[[{"header":{"parameterUnit":"m.s-1","parameterCategory":1,"la1":31.0,"la2":29.5877,"lo1":-88.7671,"lo2":-86.6584,"dy":0.0162,"dx":0.0185,"nx":115,"ny":88,"refTime":"2023-06-30T18:00:00:Z","depth":0,"parameterNumber":2,"parameterNumberName":"U-component_of_WINDS"},"data":[0.0,0.0,0.0,0.0,0.0,0.0,0.0,0.0,0.0,0.0,0.0,0.0,0.0,0.0,0.0,0.0,0.0,0.0,0.0,0.0,0.0,0.0,0.0,0.0,0.0,0.0,0.0,0.0,0.0,0.0,0.0,0.0,0.0,0.0,0.0,0.0,0.0,0.0,0.0,0.0,0.0,0.0,0.0,0.0,0.0,0.0,0.0,0.0,0.0,0.0,0.0,0.0,0.0,0.0,0.0,0.0,0.0,0.0,0.0,0.0,0.0,0.0,0.0,0.0,0.0,0.0,0.0,0.0,0.0,0.0,0.0,0.0,0.0,0.0,0.0,0.0,0.0,0.0,0.0,0.0,0.0,0.0,0.0,0.0,0.0,0.0,0.0,0.0,0.0,0.0,0.0,0.0,0.0,0.0,0.0,0.0,0.0,0.0,0.0,0.0,0.0,0.0,0.0,0.0,0.0,0.0,0.0,0.0,0.0,0.0,0.0,0.0,0.0,0.0,0.0,0.0,0.0,0.0,0.0,0.0,0.0,0.0,0.0,0.0,0.0,0.0,0.0,0.0,0.0,0.0,0.0,0.0,0.0,0.0,0.0,0.0,0.0,0.0,0.0,0.0,0.0,0.0,0.0,0.0,0.0,0.0,0.0,0.0,0.0,0.0,0.0,0.0,0.0,0.0,0.0,0.0,0.0,0.0,0.0,0.0,0.0,0.0,0.0,0.0,0.0,0.0,0.0,0.0,0.0,0.0,0.0,0.0,0.0,0.0,0.0,0.0,0.0,0.0,0.0,0.0,0.0,0.0,0.0,0.0,0.0,0.0,0.0,0.0,0.0,0.0,0.0,0.0,0.0,0.0,0.0,0.0,0.0,0.0,0.0,0.0,0.0,0.0,0.0,0.0,0.0,0.0,0.0,0.0,0.0,0.0,0.0,0.0,0.0,0.0,0.0,0.0,0.0,0.0,0.0,0.0,0.0,0.0,0.0,0.0,0.0,0.0,0.0,0.0,0.0,0.0,0.0,0.0,0.0,0.0,0.0,0.0,0.0,0.0,0.0,0.0,0.0,0.0,0.0,0.0,0.0,0.0,0.0,0.0,0.0,0.0,0.0,0.0,0.0,0.0,0.0,0.0,0.0,0.0,0.0,0.0,0.0,0.0,0.0,0.0,0.0,0.0,0.0,0.0,0.0,0.0,0.0,0.0,0.0,0.0,0.0,0.0,0.0,0.0,0.0,0.0,0.0,0.0,0.0,0.0,0.0,0.0,0.0,0.0,0.0,0.0,0.0,0.0,0.0,0.0,0.0,0.0,0.0,0.0,0.0,0.0,0.0,0.0,0.0,0.0,0.0,0.0,0.0,0.0,0.0,0.0,0.0,0.0,0.0,0.0,0.0,0.0,0.0,0.0,0.0,0.0,0.0,0.0,0.0,0.0,0.0,0.0,0.0,0.0,0.0,0.0,0.0,0.0,0.0,0.0,0.0,0.0,0.0,0.0,0.0,0.0,0.0,0.0,0.0,0.0,0.0,0.0,0.0,0.0,0.0,0.0,0.0,0.0,0.0,0.0,0.0,0.0,0.0,0.0,0.0,0.0,0.0,0.0,0.0,0.0,0.0,0.0,0.0,0.0,0.0,0.0,0.0,0.0,0.0,0.0,0.0,0.0,0.0,0.0,0.0,0.0,0.0,0.0,0.0,0.0,0.0,0.0,0.0,0.0,0.0,0.0,0.0,0.0,0.0,0.0,0.0,0.0,0.0,0.0,0.0,0.0,0.0,0.0,0.0,0.0,0.0,0.0,0.0,0.0,0.0,0.0,0.0,0.0,0.0,0.0,0.0,0.0,0.0,0.0,0.0,0.0,0.0,0.0,0.0,0.0,0.0,0.0,0.0,0.0,0.0,0.0,0.0,0.0,0.0,0.0,0.0,0.0,0.0,0.0,0.0,0.0,0.0,0.0,0.0,0.0,0.0,0.0,0.0,0.0,0.0,0.0,0.0,0.0,0.0,0.0,0.0,0.0,0.0,0.0,0.0,0.0,0.0,0.0,0.0,0.0,0.0,0.0,0.0,0.0,0.0,0.0,0.0,0.0,0.0,0.0,0.0,0.0,0.0,0.0,0.0,0.0,0.0,0.0,0.0,0.0,0.0,0.0,0.0,0.0,0.0,0.0,0.0,0.0,0.0,0.0,0.0,0.0,0.0,0.0,0.0,0.0,0.0,0.0,0.0,0.0,0.0,0.0,0.0,0.0,0.0,0.0,0.0,0.0,0.0,0.0,0.0,0.0,0.0,0.0,0.0,0.0,0.0,0.0,0.0,0.0,0.0,0.0,0.0,0.0,0.0,0.0,0.0,0.0,0.0,0.0,0.0,0.0,0.0,0.0,0.0,0.0,0.0,0.0,0.0,0.0,0.0,0.0,0.0,0.0,0.0,0.0,0.0,0.0,0.0,0.0,0.0,0.0,0.0,0.0,0.0,0.0,0.0,0.0,0.0,0.0,0.0,0.0,0.0,0.0,0.0,0.0,0.0,0.0,0.0,0.0,0.0,0.0,0.0,0.0,0.0,0.0,0.0,0.0,0.0,0.0,0.0,0.0,0.0,0.0,0.0,0.0,0.0,0.0,0.0,0.0,0.0,0.0,0.0,0.0,0.0,0.0,0.0,0.0,0.0,0.0,0.0,0.0,0.0,0.0,0.0,0.0,0.0,0.0,0.0,0.0,0.0,0.0,0.0,0.0,0.0,0.0,0.0,0.0,0.0,0.0,0.0,0.0,0.0,0.0,0.0,0.0,0.0,0.0,0.0,0.0,0.0,0.0,0.0,0.0,0.0,0.0,0.0,0.0,0.0,0.0,0.0,0.0,0.0,0.0,0.0,0.0,0.0,0.0,0.0,0.0,0.0,0.0,0.0,0.0,0.0,0.0,0.0,0.0,0.0,0.0,0.0,0.0,0.0,0.0,0.0,0.0,0.0,0.0,0.0,0.0,0.0,0.0,0.0,0.0,0.0,0.0,0.0,0.0,0.0,0.0,0.0,0.0,0.0,0.0,0.0,0.0,0.0,0.0,0.0,0.0,0.0,0.0,0.0,0.0,0.0,0.0,0.0,0.0,0.0,0.0,0.0,0.0,0.0,0.0,0.0,0.0,0.0,0.0,0.0,0.0,0.0,0.0,0.0,0.0,0.0,0.0,0.0,0.0,0.0,0.0,0.0,0.0,0.0,0.0,0.0,0.0,0.0,0.0,0.0,0.0,0.0,0.0,0.0,0.0,0.0,0.0,0.0,0.0,0.0,0.0,0.0,0.0,0.0,0.0,0.0,0.0,0.0,0.0,0.0,0.0,0.0,0.0,0.0,0.0,0.0,0.0,0.0,0.0,0.0,0.0,0.0,0.0,0.0,0.0,0.0,0.0,0.0,0.0,0.0,0.0,0.0,0.0,0.0,0.0,0.0,0.0,0.0,0.0,0.0,0.0,0.0,0.0,0.0,0.0,0.0,0.0,0.0,0.0,0.0,0.0,0.0,0.0,0.0,0.0,0.0,0.0,0.0,0.0,0.0,0.0,0.0,0.0,0.0,0.0,0.0,0.0,0.0,0.0,0.0,0.0,0.0,0.0,0.0,0.0,0.0,0.0,0.0,0.0,0.0,0.0,0.0,0.0,0.0,0.0,0.0,0.0,0.0,0.0,0.0,0.0,0.0,0.0,0.0,0.0,0.0,0.0,0.0,0.0,0.0,0.0,0.0,0.0,0.0,0.0,0.0,0.0,0.0,0.0,0.0,0.0,0.0,0.0,0.0,0.0,0.0,0.0,0.0,0.0,0.0,0.0,0.0,0.0,0.0,0.0,0.0,0.0,0.0,0.0,0.0,0.0,0.0,0.0,0.0,0.0,0.0,0.0,0.0,0.0,0.0,0.0,0.0,0.0,0.0,0.0,0.0,0.0,0.0,0.0,0.0,0.0,0.0,0.0,0.0,0.0,0.0,0.0,0.0,0.0,0.0,0.0,0.0,0.0,0.0,0.0,0.0,0.0,0.0,0.0,0.0,0.0,0.0,0.0,0.0,0.0,0.0,0.0,0.0,0.0,0.0,0.0,0.0,0.0,0.0,0.0,0.0,0.0,0.0,0.0,0.0,0.0,0.0,0.0,0.0,0.0,0.0,0.0,0.0,0.0,0.0,0.0,0.0,0.0,0.0,0.0,0.0,0.0,0.0,0.0,0.0,0.0,0.0,0.0,0.0,0.0,0.0,0.0,0.0,0.0,0.0,0.0,0.0,0.0,-3.4472,0.0,0.0,0.0,0.0,0.0,0.0,0.0,0.0,0.0,0.0,0.0,0.0,0.0,0.0,0.0,0.0,0.0,0.0,0.0,0.0,0.0,0.0,0.0,0.0,0.0,0.0,0.0,0.0,0.0,0.0,0.0,0.0,0.0,0.0,0.0,0.0,0.0,0.0,0.0,0.0,0.0,0.0,0.0,0.0,0.0,0.0,0.0,0.0,0.0,0.0,0.0,0.0,0.0,0.0,0.0,0.0,0.0,0.0,0.0,0.0,0.0,0.0,0.0,0.0,0.0,0.0,0.0,0.0,0.0,0.0,0.0,0.0,0.0,0.0,0.0,0.0,0.0,0.0,0.0,0.0,0.0,0.0,0.0,0.0,0.0,0.0,0.0,0.0,0.0,0.0,0.0,0.0,0.0,0.0,0.0,0.0,0.0,0.0,0.0,0.0,0.0,0.0,0.0,0.0,0.0,0.0,0.0,0.0,0.0,0.0,-3.4804,-3.4947,-3.493,-3.4899,-3.4828,0.0,0.0,0.0,0.0,0.0,0.0,0.0,0.0,0.0,0.0,0.0,0.0,0.0,0.0,0.0,0.0,0.0,0.0,0.0,0.0,0.0,0.0,0.0,0.0,0.0,0.0,0.0,0.0,0.0,0.0,0.0,0.0,0.0,0.0,0.0,0.0,0.0,0.0,0.0,0.0,0.0,0.0,0.0,0.0,0.0,0.0,0.0,0.0,0.0,0.0,0.0,0.0,0.0,0.0,0.0,0.0,0.0,0.0,0.0,0.0,0.0,0.0,0.0,0.0,0.0,0.0,0.0,0.0,0.0,0.0,0.0,0.0,0.0,0.0,0.0,0.0,0.0,0.0,0.0,0.0,0.0,0.0,0.0,0.0,0.0,0.0,0.0,0.0,0.0,0.0,0.0,0.0,0.0,0.0,0.0,0.0,0.0,0.0,0.0,0.0,0.0,0.0,0.0,0.0,0.0,0.0,0.0,0.0,0.0,0.0,0.0,0.0,-3.5337,-3.5352,-3.5355,0.0,0.0,0.0,0.0,0.0,0.0,0.0,0.0,0.0,0.0,0.0,0.0,0.0,0.0,0.0,0.0,0.0,0.0,0.0,0.0,0.0,0.0,0.0,0.0,0.0,0.0,0.0,0.0,0.0,0.0,0.0,0.0,0.0,0.0,0.0,0.0,0.0,0.0,0.0,0.0,0.0,0.0,0.0,0.0,0.0,0.0,0.0,0.0,0.0,0.0,0.0,0.0,0.0,0.0,0.0,0.0,0.0,0.0,0.0,0.0,0.0,0.0,0.0,0.0,0.0,0.0,0.0,0.0,0.0,0.0,0.0,0.0,0.0,0.0,0.0,0.0,0.0,0.0,0.0,0.0,0.0,0.0,0.0,0.0,0.0,0.0,0.0,0.0,0.0,0.0,0.0,0.0,0.0,0.0,0.0,0.0,0.0,0.0,0.0,0.0,0.0,0.0,0.0,0.0,0.0,0.0,0.0,0.0,0.0,0.0,-3.5424,-3.5554,-3.5464,0.0,-3.6071,0.0,0.0,0.0,0.0,0.0,0.0,0.0,0.0,0.0,0.0,0.0,0.0,0.0,0.0,0.0,0.0,0.0,0.0,0.0,0.0,0.0,0.0,0.0,0.0,0.0,0.0,0.0,0.0,0.0,0.0,0.0,0.0,0.0,0.0,0.0,0.0,0.0,0.0,0.0,0.0,0.0,0.0,0.0,0.0,0.0,0.0,0.0,0.0,0.0,0.0,0.0,0.0,0.0,0.0,0.0,0.0,0.0,0.0,0.0,0.0,0.0,0.0,0.0,0.0,0.0,0.0,0.0,0.0,0.0,0.0,0.0,0.0,0.0,0.0,0.0,0.0,0.0,0.0,0.0,0.0,0.0,0.0,0.0,0.0,0.0,0.0,0.0,0.0,0.0,0.0,0.0,0.0,0.0,0.0,0.0,0.0,0.0,0.0,0.0,0.0,0.0,0.0,0.0,0.0,0.0,0.0,0.0,0.0,0.0,0.0,-3.5822,-3.5949,-3.6096,-3.6457,0.0,0.0,0.0,0.0,0.0,0.0,0.0,0.0,0.0,0.0,0.0,0.0,0.0,0.0,0.0,0.0,0.0,0.0,0.0,0.0,0.0,0.0,0.0,0.0,0.0,0.0,0.0,0.0,0.0,0.0,0.0,0.0,0.0,0.0,0.0,0.0,0.0,0.0,0.0,0.0,0.0,0.0,0.0,0.0,0.0,0.0,0.0,0.0,0.0,0.0,0.0,0.0,0.0,0.0,0.0,0.0,0.0,0.0,0.0,0.0,0.0,0.0,0.0,0.0,0.0,0.0,0.0,0.0,0.0,0.0,0.0,0.0,0.0,0.0,0.0,0.0,0.0,0.0,0.0,0.0,0.0,0.0,0.0,0.0,0.0,0.0,0.0,0.0,0.0,0.0,0.0,0.0,0.0,0.0,0.0,0.0,0.0,0.0,0.0,0.0,0.0,0.0,0.0,0.0,0.0,0.0,0.0,0.0,0.0,0.0,-3.6084,-3.6315,-3.6595,-3.7205,-3.7678,-3.8038,0.0,0.0,0.0,0.0,0.0,0.0,0.0,0.0,0.0,0.0,0.0,0.0,0.0,0.0,0.0,0.0,0.0,0.0,0.0,0.0,0.0,0.0,0.0,0.0,0.0,0.0,0.0,0.0,0.0,0.0,0.0,0.0,0.0,0.0,0.0,0.0,0.0,0.0,0.0,0.0,0.0,0.0,0.0,0.0,0.0,0.0,0.0,0.0,0.0,0.0,0.0,0.0,0.0,0.0,0.0,0.0,0.0,0.0,0.0,0.0,0.0,0.0,0.0,0.0,0.0,0.0,0.0,0.0,0.0,0.0,0.0,0.0,0.0,0.0,0.0,0.0,0.0,0.0,0.0,0.0,0.0,0.0,0.0,0.0,0.0,0.0,0.0,0.0,0.0,0.0,0.0,0.0,0.0,0.0,0.0,0.0,0.0,0.0,0.0,0.0,0.0,0.0,0.0,0.0,0.0,0.0,0.0,0.0,-3.6092,-3.6409,-3.6898,-3.7555,-3.8841,-3.9356,0.0,0.0,0.0,0.0,0.0,0.0,0.0,0.0,0.0,0.0,0.0,0.0,0.0,0.0,0.0,0.0,0.0,0.0,0.0,0.0,0.0,0.0,0.0,0.0,0.0,0.0,0.0,0.0,0.0,0.0,0.0,0.0,0.0,0.0,0.0,0.0,0.0,0.0,0.0,0.0,0.0,0.0,0.0,0.0,0.0,0.0,0.0,0.0,0.0,0.0,0.0,0.0,0.0,0.0,0.0,0.0,0.0,0.0,0.0,0.0,0.0,0.0,0.0,0.0,0.0,0.0,0.0,0.0,0.0,0.0,0.0,0.0,0.0,0.0,0.0,0.0,0.0,0.0,0.0,0.0,0.0,0.0,0.0,0.0,0.0,0.0,0.0,0.0,0.0,0.0,0.0,0.0,0.0,0.0,0.0,0.0,0.0,0.0,0.0,0.0,0.0,0.0,0.0,0.0,0.0,0.0,0.0,0.0,0.0,-3.6426,-3.7245,-3.8243,-3.9346,-3.9693,-3.9887,0.0,0.0,0.0,0.0,0.0,0.0,0.0,0.0,0.0,0.0,0.0,0.0,0.0,0.0,0.0,0.0,0.0,0.0,0.0,0.0,0.0,0.0,0.0,0.0,0.0,0.0,0.0,0.0,0.0,0.0,0.0,0.0,0.0,0.0,0.0,0.0,0.0,0.0,0.0,0.0,0.0,0.0,0.0,0.0,0.0,0.0,0.0,0.0,0.0,0.0,0.0,0.0,0.0,0.0,0.0,0.0,0.0,0.0,0.0,0.0,0.0,0.0,0.0,0.0,0.0,0.0,0.0,0.0,0.0,0.0,0.0,0.0,0.0,0.0,0.0,0.0,0.0,0.0,0.0,0.0,0.0,0.0,0.0,0.0,0.0,0.0,0.0,0.0,0.0,0.0,0.0,0.0,0.0,0.0,0.0,0.0,0.0,0.0,0.0,0.0,0.0,0.0,0.0,0.0,0.0,0.0,0.0,0.0,0.0,-3.7259,0.0,-3.9544,-4.0401,-4.0411,-4.0429,0.0,0.0,0.0,0.0,0.0,0.0,0.0,0.0,0.0,0.0,0.0,0.0,0.0,0.0,0.0,0.0,0.0,0.0,0.0,0.0,0.0,0.0,0.0,0.0,0.0,0.0,0.0,0.0,0.0,0.0,0.0,0.0,0.0,0.0,0.0,0.0,0.0,0.0,0.0,0.0,0.0,0.0,0.0,0.0,0.0,0.0,0.0,0.0,0.0,0.0,0.0,0.0,0.0,0.0,0.0,0.0,0.0,0.0,0.0,0.0,0.0,0.0,0.0,0.0,0.0,0.0,0.0,0.0,0.0,0.0,0.0,0.0,0.0,0.0,0.0,0.0,0.0,0.0,0.0,0.0,0.0,0.0,0.0,0.0,0.0,0.0,0.0,0.0,0.0,0.0,0.0,0.0,0.0,0.0,0.0,0.0,0.0,0.0,0.0,0.0,0.0,0.0,0.0,0.0,0.0,0.0,0.0,0.0,-3.7213,-3.8599,-4.003,-4.0689,-4.063,-4.1095,-4.1157,0.0,0.0,0.0,0.0,0.0,0.0,0.0,0.0,0.0,0.0,0.0,0.0,0.0,0.0,0.0,0.0,0.0,0.0,0.0,0.0,0.0,0.0,0.0,0.0,0.0,0.0,0.0,0.0,0.0,0.0,0.0,0.0,0.0,0.0,0.0,0.0,0.0,0.0,0.0,0.0,0.0,0.0,0.0,0.0,0.0,0.0,0.0,0.0,0.0,0.0,0.0,0.0,0.0,0.0,0.0,0.0,0.0,0.0,0.0,0.0,0.0,0.0,0.0,0.0,0.0,0.0,0.0,0.0,0.0,0.0,0.0,0.0,0.0,0.0,0.0,0.0,0.0,0.0,0.0,0.0,0.0,0.0,0.0,0.0,0.0,0.0,0.0,0.0,0.0,0.0,0.0,0.0,0.0,0.0,0.0,0.0,0.0,0.0,0.0,0.0,0.0,0.0,0.0,0.0,0.0,0.0,0.0,0.0,0.0,-4.0239,-4.0742,-4.1194,-4.1534,-4.1547,-4.1312,0.0,0.0,0.0,0.0,0.0,0.0,0.0,0.0,0.0,0.0,0.0,0.0,0.0,0.0,0.0,0.0,0.0,0.0,0.0,0.0,0.0,0.0,0.0,0.0,0.0,0.0,0.0,0.0,0.0,0.0,0.0,0.0,0.0,0.0,0.0,0.0,0.0,0.0,0.0,0.0,0.0,0.0,0.0,0.0,0.0,0.0,0.0,0.0,0.0,0.0,0.0,0.0,0.0,0.0,0.0,0.0,0.0,0.0,0.0,0.0,0.0,0.0,0.0,0.0,0.0,0.0,0.0,0.0,0.0,0.0,0.0,0.0,0.0,0.0,0.0,0.0,0.0,0.0,0.0,0.0,0.0,0.0,0.0,0.0,0.0,0.0,0.0,0.0,0.0,0.0,0.0,0.0,0.0,0.0,0.0,0.0,0.0,0.0,0.0,0.0,0.0,0.0,0.0,0.0,0.0,0.0,0.0,0.0,0.0,-4.1517,-4.1594,-4.1747,-4.2016,-4.1762,-4.1408,-4.0918,0.0,0.0,0.0,0.0,0.0,0.0,0.0,0.0,0.0,0.0,0.0,0.0,0.0,0.0,0.0,0.0,0.0,0.0,0.0,0.0,0.0,0.0,0.0,0.0,0.0,0.0,0.0,0.0,0.0,0.0,0.0,0.0,0.0,0.0,0.0,0.0,0.0,0.0,0.0,0.0,0.0,0.0,0.0,0.0,0.0,0.0,0.0,0.0,0.0,0.0,0.0,0.0,0.0,0.0,0.0,0.0,0.0,0.0,0.0,0.0,0.0,0.0,0.0,0.0,0.0,0.0,0.0,0.0,0.0,0.0,0.0,0.0,0.0,0.0,0.0,0.0,0.0,0.0,0.0,0.0,0.0,0.0,0.0,0.0,0.0,0.0,0.0,0.0,0.0,0.0,0.0,0.0,0.0,0.0,0.0,0.0,0.0,0.0,0.0,0.0,0.0,0.0,0.0,0.0,0.0,0.0,0.0,0.0,-4.2503,-4.2503,-4.2387,-4.2124,-4.1856,-4.1445,0.0,0.0,0.0,0.0,0.0,0.0,0.0,0.0,0.0,0.0,0.0,0.0,0.0,0.0,0.0,0.0,0.0,0.0,0.0,0.0,0.0,0.0,0.0,0.0,0.0,0.0,0.0,0.0,0.0,0.0,0.0,0.0,0.0,0.0,0.0,0.0,0.0,0.0,0.0,0.0,0.0,0.0,0.0,0.0,0.0,0.0,0.0,0.0,0.0,0.0,0.0,0.0,0.0,0.0,0.0,0.0,0.0,0.0,0.0,0.0,0.0,0.0,0.0,0.0,0.0,0.0,0.0,0.0,0.0,0.0,0.0,0.0,0.0,0.0,0.0,0.0,0.0,0.0,0.0,0.0,0.0,0.0,0.0,0.0,0.0,0.0,0.0,0.0,0.0,0.0,0.0,0.0,0.0,0.0,0.0,0.0,0.0,0.0,0.0,0.0,0.0,0.0,0.0,0.0,0.0,0.0,0.0,0.0,0.0,-4.2514,-4.2667,-4.2607,-4.2331,-4.192,-4.1512,0.0,0.0,0.0,0.0,0.0,0.0,0.0,0.0,0.0,0.0,0.0,0.0,0.0,0.0,0.0,0.0,0.0,0.0,0.0,0.0,0.0,0.0,0.0,0.0,0.0,0.0,0.0,0.0,0.0,0.0,0.0,0.0,0.0,0.0,0.0,0.0,0.0,0.0,0.0,0.0,0.0,0.0,0.0,0.0,0.0,0.0,0.0,0.0,0.0,0.0,0.0,0.0,0.0,0.0,0.0,0.0,0.0,0.0,0.0,0.0,0.0,0.0,0.0,0.0,0.0,0.0,0.0,0.0,0.0,0.0,0.0,0.0,0.0,0.0,0.0,0.0,0.0,0.0,0.0,0.0,0.0,0.0,0.0,0.0,0.0,0.0,0.0,0.0,0.0,0.0,0.0,0.0,0.0,0.0,0.0,0.0,0.0,0.0,0.0,0.0,0.0,0.0,0.0,0.0,0.0,0.0,0.0,0.0,-4.2044,-4.2668,-4.2803,-4.2785,-4.2613,-4.2071,-4.16,0.0,0.0,0.0,0.0,0.0,0.0,0.0,0.0,0.0,0.0,0.0,0.0,0.0,0.0,0.0,0.0,0.0,0.0,0.0,0.0,0.0,0.0,0.0,0.0,0.0,0.0,0.0,0.0,0.0,0.0,0.0,0.0,0.0,0.0,0.0,0.0,0.0,0.0,0.0,0.0,0.0,0.0,0.0,0.0,0.0,0.0,0.0,0.0,0.0,0.0,0.0,0.0,0.0,0.0,0.0,0.0,0.0,0.0,0.0,0.0,0.0,0.0,0.0,0.0,0.0,0.0,0.0,0.0,0.0,0.0,0.0,0.0,0.0,0.0,0.0,0.0,0.0,0.0,0.0,0.0,0.0,0.0,0.0,0.0,0.0,0.0,0.0,0.0,0.0,0.0,0.0,0.0,0.0,0.0,0.0,0.0,0.0,0.0,0.0,0.0,0.0,0.0,0.0,0.0,0.0,0.0,0.0,0.0,-4.2649,-4.2783,-4.2824,-4.2825,-4.2806,-4.2216,-4.1705,0.0,0.0,0.0,0.0,0.0,0.0,0.0,0.0,0.0,0.0,0.0,0.0,0.0,0.0,0.0,0.0,0.0,0.0,0.0,0.0,0.0,0.0,0.0,0.0,0.0,0.0,0.0,0.0,0.0,0.0,0.0,0.0,0.0,0.0,0.0,0.0,0.0,0.0,0.0,0.0,0.0,0.0,0.0,0.0,0.0,0.0,0.0,0.0,0.0,0.0,0.0,0.0,0.0,0.0,0.0,0.0,0.0,0.0,0.0,0.0,0.0,0.0,0.0,0.0,0.0,0.0,0.0,0.0,0.0,0.0,0.0,0.0,0.0,0.0,0.0,0.0,0.0,0.0,0.0,0.0,0.0,0.0,0.0,0.0,0.0,0.0,0.0,0.0,0.0,0.0,0.0,0.0,0.0,0.0,0.0,0.0,0.0,0.0,0.0,0.0,0.0,0.0,0.0,0.0,0.0,0.0,0.0,0.0,-4.2668,-4.2783,-4.2514,-4.2358,-4.2358,-4.2071,-4.1774,0.0,0.0,0.0,0.0,0.0,0.0,0.0,0.0,0.0,0.0,0.0,0.0,0.0,0.0,0.0,0.0,0.0,0.0,0.0,0.0,0.0,0.0,0.0,0.0,0.0,0.0,0.0,0.0,0.0,0.0,0.0,0.0,0.0,0.0,0.0,0.0,0.0,0.0,0.0,0.0,0.0,0.0,0.0,0.0,0.0,0.0,0.0,0.0,-3.7284,0.0,0.0,0.0,0.0,0.0,0.0,0.0,0.0,0.0,0.0,0.0,0.0,0.0,0.0,0.0,0.0,0.0,0.0,0.0,0.0,0.0,0.0,0.0,0.0,0.0,0.0,0.0,0.0,0.0,0.0,0.0,0.0,0.0,0.0,0.0,0.0,0.0,0.0,0.0,0.0,0.0,0.0,0.0,0.0,0.0,0.0,0.0,0.0,0.0,0.0,0.0,0.0,0.0,0.0,0.0,0.0,0.0,0.0,0.0,-4.2764,-4.2842,-4.2634,-4.2418,-4.2216,-4.1945,-4.1604,0.0,0.0,0.0,0.0,0.0,0.0,0.0,0.0,0.0,0.0,0.0,0.0,0.0,0.0,0.0,0.0,0.0,0.0,0.0,0.0,0.0,0.0,0.0,0.0,0.0,0.0,0.0,0.0,0.0,0.0,0.0,0.0,0.0,0.0,0.0,0.0,0.0,0.0,0.0,0.0,0.0,0.0,0.0,0.0,0.0,0.0,0.0,0.0,0.0,0.0,0.0,0.0,0.0,0.0,0.0,0.0,0.0,0.0,0.0,0.0,0.0,0.0,0.0,0.0,0.0,0.0,0.0,0.0,0.0,0.0,0.0,0.0,0.0,0.0,0.0,0.0,0.0,0.0,0.0,0.0,0.0,0.0,0.0,0.0,0.0,0.0,0.0,0.0,0.0,0.0,0.0,0.0,0.0,0.0,0.0,0.0,0.0,0.0,0.0,0.0,0.0,0.0,0.0,0.0,0.0,0.0,0.0,-4.2725,-4.2765,-4.2787,-4.2711,-4.2458,-4.1994,-4.1648,-4.1225,-4.0724,0.0,0.0,0.0,0.0,0.0,0.0,0.0,0.0,0.0,0.0,0.0,0.0,0.0,0.0,0.0,0.0,0.0,0.0,0.0,0.0,0.0,0.0,0.0,0.0,0.0,0.0,0.0,0.0,0.0,0.0,0.0,0.0,0.0,0.0,0.0,0.0,0.0,0.0,-4.0087,-4.0011,0.0,0.0,0.0,0.0,0.0,0.0,0.0,0.0,-3.81,0.0,0.0,0.0,0.0,0.0,0.0,0.0,0.0,0.0,0.0,0.0,0.0,0.0,0.0,0.0,0.0,0.0,0.0,0.0,0.0,0.0,0.0,0.0,0.0,0.0,0.0,0.0,0.0,0.0,0.0,0.0,0.0,0.0,0.0,0.0,0.0,0.0,0.0,0.0,0.0,0.0,0.0,0.0,0.0,0.0,0.0,0.0,0.0,0.0,0.0,0.0,0.0,0.0,0.0,0.0,0.0,-4.2764,-4.2668,-4.2552,-4.2318,-4.1931,-4.1503,-4.1042,-4.0587,-4.0303,-4.0204,0.0,0.0,0.0,0.0,0.0,0.0,0.0,0.0,0.0,0.0,0.0,0.0,0.0,0.0,0.0,0.0,0.0,0.0,0.0,0.0,0.0,0.0,0.0,0.0,0.0,0.0,0.0,0.0,0.0,0.0,0.0,0.0,0.0,0.0,0.0,0.0,0.0,0.0,0.0,-4.0087,-4.0054,0.0,0.0,0.0,0.0,0.0,0.0,0.0,0.0,-3.8141,0.0,0.0,0.0,0.0,0.0,0.0,0.0,0.0,0.0,0.0,0.0,0.0,0.0,0.0,0.0,0.0,0.0,0.0,0.0,0.0,0.0,0.0,0.0,0.0,0.0,0.0,0.0,0.0,0.0,0.0,0.0,0.0,0.0,0.0,0.0,0.0,0.0,0.0,0.0,0.0,0.0,0.0,0.0,0.0,0.0,0.0,0.0,0.0,0.0,0.0,0.0,0.0,0.0,0.0,0.0,-4.2686,-4.2512,-4.2335,-4.2177,-4.176,-4.1258,-4.0825,-4.058,-4.0303,0.0,0.0,0.0,0.0,0.0,0.0,0.0,0.0,0.0,0.0,0.0,0.0,0.0,0.0,0.0,0.0,0.0,0.0,0.0,0.0,0.0,0.0,0.0,0.0,0.0,0.0,0.0,0.0,0.0,0.0,0.0,0.0,0.0,0.0,0.0,0.0,0.0,0.0,0.0,0.0,-4.0113,-4.007,-4.0011,0.0,0.0,0.0,0.0,0.0,0.0,-3.9719,-3.9165,0.0,0.0,0.0,0.0,0.0,0.0,0.0,0.0,0.0,0.0,0.0,0.0,0.0,0.0,0.0,0.0,0.0,0.0,0.0,0.0,0.0,0.0,0.0,0.0,0.0,0.0,0.0,0.0,0.0,0.0,0.0,0.0,0.0,0.0,0.0,0.0,0.0,0.0,0.0,0.0,0.0,0.0,0.0,0.0,0.0,0.0,0.0,0.0,0.0,0.0,0.0,0.0,0.0,0.0,0.0,-4.2492,-4.2114,-4.1932,-4.1909,-4.1547,-4.1139,-4.0683,-4.0521,-4.0188,0.0,0.0,0.0,0.0,0.0,0.0,0.0,0.0,0.0,0.0,0.0,0.0,0.0,0.0,0.0,0.0,0.0,0.0,0.0,0.0,0.0,0.0,0.0,0.0,0.0,0.0,0.0,0.0,0.0,0.0,0.0,0.0,0.0,0.0,0.0,0.0,0.0,0.0,0.0,0.0,0.0,-4.0188,-4.0138,-4.0688,0.0,0.0,0.0,0.0,-4.1831,-4.1028,0.0,0.0,0.0,0.0,0.0,0.0,0.0,0.0,0.0,0.0,0.0,0.0,0.0,0.0,0.0,0.0,0.0,0.0,0.0,0.0,0.0,0.0,0.0,0.0,0.0,0.0,0.0,0.0,0.0,0.0,0.0,0.0,0.0,0.0,0.0,0.0,0.0,0.0,0.0,0.0,0.0,0.0,0.0,0.0,0.0,0.0,0.0,0.0,0.0,0.0,0.0,0.0,0.0,0.0,0.0,0.0,-4.2113,-4.1431,-4.1022,-4.0961,-4.0902,-4.0676,-4.0179,-3.9561,-3.9131,0.0,0.0,0.0,0.0,0.0,0.0,0.0,0.0,0.0,0.0,0.0,0.0,0.0,0.0,0.0,0.0,0.0,0.0,0.0,0.0,0.0,0.0,0.0,0.0,0.0,0.0,0.0,0.0,0.0,0.0,0.0,0.0,0.0,0.0,0.0,0.0,0.0,0.0,0.0,0.0,0.0,-4.0395,-4.0288,-4.0909,-4.129,0.0,0.0,-4.2078,-4.2088,-4.1841,0.0,0.0,0.0,0.0,0.0,0.0,0.0,0.0,0.0,0.0,0.0,0.0,0.0,0.0,0.0,0.0,0.0,0.0,0.0,0.0,0.0,0.0,0.0,0.0,0.0,0.0,0.0,0.0,0.0,0.0,0.0,0.0,0.0,0.0,0.0,0.0,0.0,0.0,0.0,0.0,0.0,0.0,0.0,0.0,0.0,0.0,0.0,0.0,0.0,0.0,0.0,0.0,0.0,0.0,0.0,-4.1828,-4.1842,-4.1179,-4.0844,-4.0784,-4.0556,-4.0303,-4.0096,-3.9377,-3.8889,0.0,0.0,0.0,0.0,0.0,0.0,0.0,0.0,0.0,0.0,0.0,0.0,0.0,0.0,0.0,0.0,0.0,0.0,0.0,0.0,0.0,0.0,0.0,0.0,0.0,0.0,0.0,0.0,0.0,0.0,0.0,0.0,0.0,0.0,0.0,0.0,0.0,0.0,0.0,0.0,0.0,0.0,-4.105,-4.1988,0.0,0.0,0.0,-4.3027,-4.3311,0.0,0.0,0.0,0.0,0.0,0.0,0.0,0.0,0.0,0.0,0.0,0.0,0.0,0.0,0.0,0.0,0.0,0.0,0.0,0.0,0.0,0.0,0.0,0.0,0.0,0.0,0.0,0.0,0.0,0.0,0.0,0.0,0.0,0.0,0.0,0.0,0.0,0.0,0.0,0.0,0.0,0.0,0.0,0.0,0.0,0.0,0.0,0.0,0.0,0.0,0.0,0.0,0.0,0.0,0.0,0.0,0.0,-4.1534,-4.0845,-4.0541,-4.0611,-4.0279,-4.0113,-4.0096,-3.9385,0.0,0.0,0.0,0.0,0.0,0.0,0.0,0.0,0.0,0.0,0.0,0.0,0.0,0.0,0.0,0.0,0.0,0.0,0.0,0.0,0.0,0.0,0.0,0.0,0.0,0.0,0.0,-3.4151,0.0,0.0,0.0,0.0,0.0,0.0,0.0,0.0,0.0,0.0,0.0,0.0,0.0,0.0,-4.1679,-4.1604,-4.2833,-4.3698,0.0,0.0,-4.3855,-4.4311,-4.3912,-4.3362,0.0,0.0,0.0,0.0,0.0,0.0,0.0,0.0,0.0,0.0,0.0,0.0,0.0,0.0,0.0,0.0,0.0,0.0,0.0,0.0,0.0,0.0,0.0,0.0,0.0,0.0,0.0,0.0,0.0,0.0,0.0,0.0,0.0,0.0,0.0,0.0,0.0,0.0,0.0,0.0,0.0,0.0,0.0,0.0,0.0,0.0,0.0,0.0,0.0,0.0,0.0,0.0,0.0,0.0,-4.0893,-4.1019,-4.0158,-3.9853,-4.0137,-4.0121,-4.0113,-4.0096,-3.9377,-3.8569,0.0,0.0,0.0,0.0,0.0,0.0,0.0,0.0,0.0,0.0,0.0,0.0,0.0,0.0,0.0,0.0,0.0,0.0,0.0,0.0,0.0,0.0,0.0,0.0,0.0,0.0,0.0,0.0,0.0,0.0,0.0,0.0,0.0,0.0,0.0,0.0,0.0,0.0,0.0,0.0,0.0,-4.1869,-4.1638,-4.2928,-4.3778,0.0,-4.4028,-4.4536,-4.457,-4.4519,-4.4288,-4.363,0.0,0.0,0.0,0.0,0.0,0.0,0.0,0.0,0.0,0.0,0.0,0.0,0.0,0.0,0.0,0.0,0.0,0.0,0.0,0.0,0.0,0.0,0.0,0.0,0.0,0.0,0.0,0.0,0.0,0.0,0.0,0.0,0.0,0.0,0.0,0.0,0.0,0.0,0.0,0.0,0.0,0.0,0.0,0.0,0.0,0.0,0.0,0.0,0.0,0.0,0.0,0.0,0.0,-4.0868,-4.0823,-4.0209,-3.9965,-4.0079,-4.0113,-4.0113,-4.0113,-3.9402,-3.8535,0.0,0.0,0.0,0.0,0.0,0.0,0.0,0.0,0.0,0.0,0.0,0.0,0.0,0.0,0.0,0.0,0.0,0.0,0.0,0.0,0.0,0.0,0.0,0.0,0.0,0.0,0.0,0.0,-3.5289,-3.605,-3.6709,0.0,0.0,0.0,0.0,0.0,0.0,0.0,0.0,0.0,0.0,-4.2628,-4.3185,-4.36,0.0,0.0,-4.4103,-4.4018,-4.4241,-4.4315,-4.4023,-4.3265,-4.2943,0.0,0.0,0.0,0.0,0.0,0.0,0.0,0.0,0.0,0.0,0.0,0.0,0.0,0.0,0.0,0.0,0.0,0.0,0.0,0.0,0.0,0.0,0.0,0.0,0.0,0.0,0.0,0.0,0.0,0.0,0.0,0.0,0.0,0.0,0.0,0.0,0.0,0.0,0.0,0.0,0.0,0.0,0.0,0.0,0.0,0.0,0.0,0.0,0.0,0.0,0.0,0.0,-4.0884,-4.0714,-4.0313,-4.0113,-4.0113,-4.0113,-4.0113,-4.0096,-3.9605,-3.8873,0.0,0.0,0.0,0.0,0.0,0.0,0.0,0.0,0.0,0.0,0.0,0.0,0.0,0.0,0.0,0.0,0.0,0.0,0.0,0.0,0.0,0.0,0.0,0.0,0.0,0.0,0.0,0.0,-3.5754,-3.6852,-3.7851,0.0,0.0,0.0,0.0,0.0,0.0,0.0,0.0,0.0,0.0,-4.314,-4.3897,-4.3872,-4.3972,-4.4547,-4.403,-4.3621,-4.3831,-4.3877,-4.3595,-4.2852,0.0,0.0,0.0,0.0,0.0,0.0,0.0,0.0,0.0,0.0,0.0,0.0,0.0,0.0,0.0,0.0,0.0,0.0,0.0,0.0,0.0,0.0,0.0,0.0,0.0,0.0,0.0,-4.2609,0.0,0.0,-4.2308,0.0,0.0,0.0,0.0,0.0,0.0,0.0,0.0,0.0,0.0,0.0,0.0,0.0,0.0,0.0,0.0,0.0,0.0,0.0,0.0,0.0,0.0,-4.0884,-4.068,-4.0313,-4.0113,-4.0113,-4.0113,-4.0113,-4.0113,-4.0096,-3.9648,-3.8756,0.0,0.0,0.0,0.0,0.0,0.0,0.0,0.0,0.0,0.0,0.0,0.0,0.0,0.0,0.0,0.0,0.0,0.0,0.0,0.0,0.0,0.0,0.0,0.0,0.0,0.0,-3.4744,-3.6123,-3.7393,0.0,0.0,0.0,0.0,0.0,0.0,0.0,0.0,0.0,-4.1452,-4.2485,-4.3325,-4.3436,-4.3538,-4.3638,-4.3831,-4.3697,-4.3502,-4.3353,-4.3306,-4.3094,0.0,0.0,0.0,0.0,0.0,0.0,0.0,0.0,0.0,0.0,0.0,0.0,0.0,0.0,0.0,0.0,0.0,0.0,0.0,0.0,0.0,0.0,0.0,0.0,0.0,0.0,0.0,-4.2747,-4.2609,0.0,0.0,0.0,0.0,0.0,0.0,0.0,0.0,0.0,0.0,0.0,-4.1912,-4.199,0.0,0.0,0.0,0.0,0.0,0.0,0.0,0.0,0.0,0.0,0.0,0.0,-4.0728,-4.0558,-4.0246,-4.0113,-4.0113,-4.0113,-4.0113,-4.0113,-4.0113,-3.9607,-3.8555,0.0,0.0,0.0,0.0,0.0,0.0,0.0,0.0,0.0,0.0,0.0,0.0,0.0,0.0,0.0,0.0,0.0,0.0,0.0,0.0,0.0,0.0,0.0,0.0,0.0,-3.4964,0.0,0.0,0.0,0.0,0.0,0.0,0.0,0.0,0.0,0.0,0.0,-4.1455,-4.2483,-4.2696,-4.3013,-4.368,-4.3171,-4.2911,0.0,0.0,0.0,0.0,0.0,0.0,0.0,0.0,0.0,0.0,0.0,0.0,0.0,0.0,-4.0366,-4.0643,-4.0624,-4.0589,-4.0677,0.0,0.0,0.0,0.0,0.0,0.0,0.0,0.0,0.0,0.0,0.0,0.0,0.0,0.0,-4.2823,0.0,-4.2609,0.0,0.0,0.0,0.0,0.0,0.0,0.0,0.0,-4.183,-4.1551,-4.1196,-4.1467,-4.1286,0.0,-4.1517,-4.1988,0.0,0.0,0.0,0.0,0.0,0.0,0.0,0.0,-4.0607,-4.0436,-4.0213,-4.0113,-4.0113,-4.0113,-4.0113,-4.0113,-4.0062,-3.9648,-3.8888,-3.7214,-3.5968,0.0,0.0,0.0,0.0,0.0,0.0,0.0,0.0,0.0,0.0,0.0,0.0,0.0,0.0,0.0,0.0,0.0,0.0,0.0,0.0,0.0,0.0,0.0,-3.5827,0.0,0.0,0.0,0.0,0.0,0.0,0.0,0.0,0.0,-4.0529,-4.0946,-4.1575,-4.2563,-4.2642,-4.2855,-4.3512,0.0,0.0,0.0,0.0,0.0,0.0,0.0,-4.2093,-4.1604,-4.1406,-4.1239,-4.095,-4.0574,-4.0366,-4.0366,0.0,0.0,-4.0416,-4.0366,-4.0331,-4.0455,-4.0489,-4.0489,-4.0489,-4.0489,-4.0489,0.0,0.0,0.0,0.0,0.0,0.0,0.0,0.0,-4.2919,-4.2862,0.0,-4.2649,0.0,0.0,0.0,0.0,-4.1961,-4.1408,0.0,0.0,-4.059,-4.0327,-4.0473,-4.1082,-4.1292,-4.123,-4.1946,-4.2074,-4.1618,-4.1774,0.0,0.0,0.0,0.0,0.0,0.0,-4.0551,-4.0305,-4.0146,-4.0113,-4.0113,-4.0113,-4.0113,-4.0113,-3.9961,-3.9824,-3.9618,-3.7943,-3.6866,-3.6552,-3.4328,0.0,0.0,0.0,0.0,0.0,0.0,0.0,0.0,0.0,0.0,0.0,0.0,0.0,0.0,0.0,0.0,0.0,0.0,0.0,0.0,-3.5046,0.0,0.0,0.0,0.0,0.0,0.0,0.0,0.0,0.0,0.0,-3.9935,-4.1063,-4.1959,-4.1857,0.0,0.0,0.0,0.0,-4.2028,-4.2318,-4.2206,-4.1948,-4.1621,-4.1604,-4.1423,-4.0901,0.0,0.0,-4.0524,-4.0489,-4.0489,-4.0505,-4.0331,-4.0277,-4.0261,-4.0261,-4.0296,-4.0436,-4.0455,-4.0455,-4.0489,-4.047,-4.0489,-4.2919,0.0,0.0,0.0,0.0,-4.2919,-4.2919,-4.2919,-4.2919,-4.2843,-4.2783,-4.2764,0.0,0.0,0.0,0.0,0.0,0.0,-4.1069,-4.1045,-4.1388,-4.1326,-4.0908,-4.1257,-4.1098,-4.052,-4.1101,-4.1337,-4.1171,-4.1143,-4.122,-4.1391,0.0,0.0,0.0,0.0,-4.0379,-4.0305,-4.0163,-4.0113,-4.0113,-4.0113,-4.0113,-4.0113,-3.9961,-3.9618,-3.8978,-3.7983,-3.6978,-3.598,-3.4759,0.0,0.0,0.0,0.0,0.0,0.0,0.0,0.0,0.0,0.0,0.0,0.0,0.0,0.0,0.0,0.0,0.0,0.0,0.0,-3.5368,-3.586,-3.6368,0.0,0.0,0.0,0.0,0.0,0.0,0.0,0.0,0.0,-4.0182,-4.1071,-4.1885,0.0,0.0,-4.2301,-4.2333,-4.2077,-4.1817,-4.1654,-4.1573,0.0,-4.1104,-4.1153,-4.1203,-4.1034,-4.0901,-4.073,-4.0524,-4.0436,-4.0312,-4.0156,-4.0016,-3.9874,-3.9874,-3.998,-4.0101,-4.0137,-4.0137,-4.0121,-4.0137,-4.0261,-4.0366,-4.2919,-4.2919,-4.2919,-4.2919,-4.2919,-4.2919,-4.2919,-4.2919,-4.2919,-4.2881,-4.2823,-4.2707,-4.232,-4.1794,-4.1694,0.0,0.0,0.0,-4.0989,-4.0922,-4.1146,-4.1029,-4.0661,-4.0987,-4.084,-4.0237,-4.0843,-4.0986,-4.0644,-4.0747,-4.0778,-4.0765,0.0,0.0,-4.0655,-4.0429,-4.0263,-4.0213,-4.0163,-4.0113,-4.0113,-4.0113,-4.007,-4.0011,-3.9901,-3.954,-3.9011,-3.8051,-3.7164,-3.6387,-3.5186,-3.4175,0.0,0.0,0.0,0.0,0.0,0.0,0.0,0.0,0.0,0.0,0.0,-3.2168,-3.2841,0.0,0.0,0.0,-3.4487,-3.52,-3.5944,-3.6133,0.0,0.0,0.0,0.0,0.0,0.0,0.0,-3.9882,-4.0222,-4.0478,-4.0626,-4.1054,-4.1571,-4.1932,-4.1883,-4.1753,-4.1703,0.0,-4.1503,-4.1254,-4.1205,-4.1138,-4.0833,-4.0916,-4.0966,-4.0898,-4.078,-4.0662,-4.0524,-4.0401,-4.0242,-4.0137,-3.9945,-3.9803,-3.9717,-3.9803,-3.9925,-3.996,-4.0011,-4.0011,-4.0011,-4.0117,-4.0172,-4.2919,-4.2919,-4.2919,-4.2919,-4.2919,-4.2919,-4.2919,-4.2919,-4.2919,-4.2882,-4.2844,-4.2554,-4.2376,-4.2284,-4.1958,0.0,-4.159,-4.1109,-4.0846,-4.076,-4.0253,-4.003,-4.0046,-4.0592,-4.0662,-4.0302,-4.0996,-4.0913,-4.0179,-4.0531,-4.0507,-4.007,-4.0188,-4.028,-4.0288,-4.0305,-4.0179,-4.0028,-4.0011,-4.0028,-3.9986,-4.0054,-4.0011,-3.9901,-3.9755,-3.9573,-3.9309,-3.8112,-3.737,-3.7205,-3.5522,-3.4578,-3.4474,0.0,0.0,0.0,0.0,0.0,0.0,0.0,0.0,0.0,0.0,0.0,0.0,0.0,0.0,0.0,-3.513,0.0,-3.5763,-3.6098,0.0,0.0,0.0,-3.8498,-3.9203,-3.9861,-4.0285,-4.0347,0.0,0.0,-4.1034,-4.1049,-4.1049,-4.1049,-4.1187,-4.1239,-4.1102,-4.1117,-4.1117,-4.1068,-4.1083,-4.0984,-4.0814,-4.0765,-4.073,-4.0558,-4.0489,-4.0505,-4.047,-4.0381,-4.0312,-4.0191,-4.0086,-3.9889,-3.9732,-3.9646,-3.9732,-3.9905,-3.994,-3.994,-3.9925,-3.996,-3.9996,-4.2919,-4.2919,-4.2919,-4.2919,-4.2919,-4.2919,-4.2919,-4.2919,-4.2919,-4.2824,-4.2668,-4.2571,-4.2129,-4.1361,-4.0691,-4.0284,-4.0141,-4.0624,-4.0736,-4.0623,-4.1014,-4.1194,-4.119,-4.1258,-4.1218,-4.1106,-4.081,-4.0538,-4.0319,-4.0062,-3.9918,-3.9807,-3.9833,-3.9986,-4.0263,-4.0188,-3.985,-3.9259,-3.9283,-3.9209,-3.9126,-3.9547,-3.9764,-3.9755,-3.9616,-3.9077,-3.8096,-3.7634,-3.6966,-3.6005,-3.5518,-3.5011,-3.4533,-3.4219,0.0,0.0,0.0,0.0,0.0,0.0,0.0,0.0,0.0,-3.3529,-3.4234,0.0,-3.4517,0.0,-3.5415,-3.5829,-3.6622,-3.6765,0.0,0.0,-3.86,-3.8962,-3.9713,-3.9897,-4.0124,-4.064,-4.0672,-4.0643,-4.0643,-4.0643,-4.0643,-4.0643,-4.095,-4.1151,-4.1117,-4.1117,-4.1034,-4.0916,-4.0867,-4.0814,-4.0643,-4.0558,-4.0558,-4.0505,-4.0489,-4.0455,-4.0366,-4.0312,-4.0191,-3.991,-3.9788,-3.9696,-3.9517,-3.9481,-3.9496,-3.9532,-3.9532,-3.9517,-3.9517,-3.9661,-3.9768,-4.2919,-4.2919,-4.2919,-4.2881,-4.2861,-4.2882,-4.2862,-4.2767,-4.2767,-4.2632,-4.247,-4.2331,-4.1917,-4.13,-4.0855,-4.0598,-4.051,-4.0951,-4.1098,-4.1029,-4.1394,-4.1604,-4.1587,-4.1346,-4.1123,-4.0943,-4.0434,-4.0087,-3.9927,-3.9703,-3.9616,-3.9599,-3.9333,-3.932,-3.9539,-3.9792,-3.9716,-3.932,-3.9,-3.8639,-3.8237,-3.8874,-3.9016,-3.8553,-3.903,-3.8723,-3.7589,-3.7388,-3.6952,-3.6179,-3.5767,-3.5359,-3.4951,-3.4683,-3.4322,0.0,0.0,0.0,0.0,0.0,0.0,0.0,0.0,0.0,0.0,0.0,-3.51,-3.5474,-3.5759,-3.6172,-3.6814,-3.7149,-3.7755,-3.8844,-3.897,-3.9298,-4.0114,-4.014,-4.0276,-4.0615,-4.0574,-4.0489,-4.0489,-4.0489,-4.0489,-4.0489,-4.0662,-4.0814,-4.083,-4.083,-4.078,-4.0662,-4.0646,-4.0627,-4.0489,-4.0489,-4.0489,-4.0489,-4.047,-4.0366,-4.0312,-4.0172,-3.9945,-3.9753,-3.9625,-3.9532,-3.9424,-3.9388,-3.9388,-3.9388,-3.9388,-3.9388,-3.9409,-3.9496,-3.9553,-4.2919,-4.2919,-4.2881,-4.2824,-4.2783,-4.2805,-4.2747,-4.2609,-4.2609,-4.249,-4.2267,-4.1977,-4.1762,-4.1604,-4.1604,-4.1604,-4.1604,-4.1604,-4.1604,-4.1604,-4.156,-4.1538,-4.1515,-4.1071,-4.0676,-4.0319,-3.9995,-3.9592,-3.9166,-3.9289,-3.9292,-3.9159,-3.8688,-3.8405,-3.8438,-3.9023,-3.9393,-3.9419,-3.8664,-3.7978,-3.7359,-3.8037,-3.7986,-3.7177,-3.8137,-3.8264,-3.7405,-3.7147,-3.6964,-3.6738,-3.6086,-3.5653,-3.5489,-3.4936,-3.4638,0.0,-3.4068,0.0,0.0,0.0,0.0,0.0,0.0,0.0,0.0,-3.5489,-3.5534,-3.5624,-3.6181,-3.6603,-3.6935,-3.7496,-3.8236,-3.9184,-3.931,-3.9623,-4.0378,-4.047,-4.0455,-4.0489,-4.0489,-4.0489,-4.0489,-4.0489,-4.0489,-4.0489,-4.0524,-4.0524,-4.0505,-4.0539,-4.0539,-4.0489,-4.0489,-4.0524,-4.0489,-4.0489,-4.0489,-4.047,-4.0366,-4.0261,-4.0207,-3.9945,-3.9696,-3.9661,-3.9517,-3.9424,-3.9388,-3.9388,-3.9388,-3.9388,-3.9388,-3.9388,-3.9388,-3.9424,-3.9388,-4.2919,-4.2882,-4.2746,-4.2649,-4.2629,-4.249,-4.249,-4.2609,-4.2609,-4.2412,-4.2103,-4.1801,-4.1631,-4.1604,-4.1604,-4.1604,-4.1604,-4.1604,-4.1604,-4.1582,-4.1272,-4.1117,-4.1071,-4.0419,-4.0087,-3.9986,-3.9616,-3.9053,-3.8427,-3.8437,-3.8138,-3.7567,-3.7434,-3.7393,-3.7377,0.0,0.0,0.0,-3.7085,-3.6578,-3.6461,-3.7062,-3.7235,-3.6949,-3.7068,0.0,-3.6543,-3.6382,-3.6209,-3.5946,-3.5784,0.0,0.0,0.0,0.0,0.0,0.0,0.0,0.0,0.0,0.0,0.0,-3.5385,-3.537,-3.5489,-3.5489,-3.5729,-3.6237,-3.6417,-3.7012,-3.8185,-3.843,-3.8881,-3.9707,-3.9833,-3.9999,-4.0296,-4.0331,-4.0366,-4.0489,-4.0489,-4.0489,-4.0489,-4.0489,-4.0489,-4.0489,-4.0489,-4.0489,-4.0489,-4.0489,-4.0489,-4.0489,-4.0489,-4.0489,-4.0489,-4.0505,-4.0436,-4.0366,-4.0347,-4.0156,-3.9895,-3.9788,-3.9625,-3.9481,-3.9424,-3.9388,-3.9388,-3.9388,-3.9388,-3.9388,-3.9388,-3.9388,-3.9388,-3.9388,-3.9388,-4.2919,-4.2881,-4.2689,-4.257,0.0,-4.2308,-4.2246,-4.2305,-4.2269,-4.2103,-4.1827,-4.167,-4.1604,-4.1604,-4.167,-4.1692,-4.1692,-4.1692,-4.1481,-4.1108,-4.0675,-4.0262,-3.9893,-3.9166,-3.8815,-3.879,-3.8402,-3.8013,-3.7682,-3.7665,-3.7466,-3.7102,-3.6738,-3.6572,-3.6555,-3.6208,-3.6265,-3.6737,-3.6338,-3.5924,-3.5608,-3.6216,-3.6324,-3.5861,-3.672,0.0,0.0,0.0,0.0,0.0,0.0,0.0,0.0,-3.5489,0.0,-3.5489,-3.5489,-3.5489,-3.5489,-3.5489,-3.5489,-3.5489,-3.5489,-3.5489,-3.5489,-3.5804,-3.6118,-3.6462,-3.7045,-3.7738,-3.8472,-3.8862,-3.9264,-3.9773,-3.9839,-3.991,-4.0101,-4.0242,-4.0347,-4.0401,-4.047,-4.0489,-4.0489,-4.0489,-4.0489,-4.0489,-4.0489,-4.0489,-4.0489,-4.0489,-4.0489,-4.0489,-4.0489,-4.0455,-4.0436,-4.0401,-4.0331,-4.0207,-4.0051,-3.993,-3.9717,-3.961,-3.9532,-3.9424,-3.9388,-3.9388,-3.9388,-3.9388,-3.9388,-3.9388,-3.9388,-3.9388,-3.9388,-3.9388,-3.9388,-4.2881,-4.2843,-4.2649,-4.247,-4.2292,-4.2121,-4.1973,-4.1923,0.0,0.0,0.0,-4.1604,-4.1534,-4.1433,-4.1521,-4.1494,-4.137,-4.137,-4.0979,-4.0359,-3.9913,-3.9344,-3.8684,-3.7986,-3.7646,-3.7573,-3.7261,-3.7036,-3.6903,-3.692,-3.6854,-3.6671,-3.6108,-3.5794,-3.5777,-3.5214,-3.5197,-3.5777,-3.5794,-3.5512,-3.4932,-3.5495,-3.5439,-3.4707,-3.6191,-3.6519,-3.5514,-3.6234,-3.6445,-3.599,-3.5784,-3.5621,-3.5472,-3.5439,-3.5439,-3.5407,-3.5439,-3.5424,-3.5439,-3.5439,-3.5439,-3.5439,-3.5472,-3.5549,-3.5669,-3.6178,-3.6582,-3.6791,-3.7778,-3.8437,-3.8556,-3.908,-3.9445,-3.9625,-3.9661,-3.9732,-3.9925,-4.0101,-4.0207,-4.0226,-4.0347,-4.0401,-4.0401,-4.0401,-4.0436,-4.0436,-4.0401,-4.0385,-4.0436,-4.047,-4.0489,-4.0489,-4.0489,-4.047,-4.0347,-4.0312,-4.0207,-3.9996,-3.9803,-3.9681,-3.961,-3.9517,-3.9424,-3.9388,-3.9388,-3.9388,-3.9388,-3.9388,-3.9388,-3.9388,-3.9388,-3.9388,-3.9388,-3.9388,-3.9388,-4.2805,-4.2611,-4.243,-4.2207,-4.1959,-4.174,-4.1648,-4.1666,-4.1758,-4.1819,-4.1758,-4.1631,-4.1236,-4.066,-4.0682,-4.0291,-3.9659,-3.9659,-3.9607,-3.948,-3.9047,-3.8663,-3.8282,-3.7821,-3.7475,-3.7186,-3.7127,-3.6787,-3.6208,-3.6158,-3.5843,-3.528,-3.5098,-3.5065,-3.5048,-3.4949,-3.4949,-3.5048,-3.5048,-3.4998,-3.4899,-3.4998,-3.4967,-3.4683,-3.4434,-3.459,-3.5212,-3.4878,-3.4988,-3.5676,-3.572,-3.5574,-3.5279,-3.5246,-3.5148,-3.5001,-3.5148,-3.5261,-3.5246,-3.5228,-3.5228,-3.5261,-3.5392,-3.5744,-3.6297,-3.6432,-3.6941,-3.7988,-3.8337,-3.8646,-3.9149,-3.9313,-3.9424,-3.946,-3.946,-3.9532,-3.9732,-3.9768,-3.9874,-4.0031,-4.0066,-4.0066,-4.0101,-4.0117,-4.0172,-4.0277,-4.0207,-4.0066,-4.0137,-4.0331,-4.0455,-4.0489,-4.0489,-4.0436,-4.0312,-4.0312,-4.0121,-3.9803,-3.9717,-3.9625,-3.9481,-3.9424,-3.9388,-3.9388,-3.9388,-3.9388,-3.9388,-3.9388,-3.9388,-3.9388,-3.9388,-3.9388,-3.9388,-3.9388,-3.9388,-4.2611,-4.2391,-4.2166,-4.2019,-4.1856,-4.1274,-4.099,-4.0976,-4.0598,-4.069,-4.1059,-4.1033,-4.0569,-3.9884,-3.9933,-3.9778,-3.9426,-3.9426,-3.9159,-3.8734,-3.8324,-3.7698,-3.6983,-3.658,-3.6222,-3.5909,-3.5909,-3.5727,-3.5429,-3.5413,-3.523,-3.4916,-3.4899,-3.4899,-3.4899,-3.4899,-3.4899,-3.4899,-3.4899,-3.4899,-3.4899,-3.4899,-3.4875,-3.4787,-3.4567,-3.4484,-3.4648,-3.443,-3.4333,-3.4399,-3.4711,-3.4778,-3.4581,-3.4857,-3.5001,-3.4902,-3.4968,-3.5034,-3.5034,-3.5034,-3.5049,-3.5049,-3.5213,-3.5791,-3.679,-3.6952,-3.7375,-3.8302,-3.8706,-3.9065,-3.9343,-3.9388,-3.9388,-3.9388,-3.9388,-3.946,-3.9517,-3.9646,-3.9732,-3.9839,-3.9925,-4.0011,-4.0011,-4.0011,-4.0046,-4.0117,-4.0046,-4.0011,-4.0011,-4.0121,-4.0242,-4.0242,-4.0242,-4.0156,-4.0016,-3.998,-3.9839,-3.9589,-3.9553,-3.9481,-3.9424,-3.9388,-3.9373,-3.9388,-3.9373,-3.9388,-3.9373,-3.9388,-3.9388,-3.9388,-3.9388,-3.9388,-3.9388,-3.9388,-3.9104,-4.245,-4.2205,-4.1998,-4.1785,-4.1492,-4.0619,-4.0239,-4.0147,-3.9568,-3.9547,-3.9933,-4.0147,-3.9779,-3.9076,-3.9145,-3.9097,-3.8939,-3.8921,-3.8586,-3.802,-3.7626,-3.6903,-3.5958,-3.5616,-3.531,-3.4947,-3.4899,-3.4899,-3.4899,-3.4899,-3.4899,-3.4899,-3.4899,-3.4899,-3.4899,-3.4899,-3.4899,-3.4899,-3.4899,-3.4899,-3.4899,-3.4899,-3.4851,-3.4724,-3.4662,-3.4473,-3.4026,-3.3962,-3.3728,-3.3344,-3.3728,-3.3854,-3.3785,-3.4295,-3.4615,-3.4596,-3.4762,-3.485,-3.4883,-3.4868,-3.4902,-3.4835,-3.5049,-3.5729,-3.7,-3.7282,-3.7729,-3.8527,-3.9095,-3.9373,-3.9388,-3.9388,-3.9388,-3.9388,-3.9388,-3.9388,-3.9424,-3.9538,-3.9625,-3.9646,-3.9783,-3.9854,-3.9854,-3.9854,-3.9869,-3.9854,-3.994,-3.9975,-3.9905,-3.9889,-3.994,-3.9889,-3.9925,-3.9925,-3.9768,-3.9717,-3.9646,-3.9424,-3.9424,-3.932,-3.9194,-3.9155,-3.9065,-3.8945,-3.8901,-3.882,-3.888,-3.8916,-3.876,-3.8596,-3.8512,-3.8551,-3.8282,-3.8126,-3.8229,-4.2351,-4.1959,-4.1842,-4.14,-4.058,-3.9743,-3.9427,-3.9392,-3.9301,-3.8856,-3.8356,-3.907,-3.895,-3.8286,-3.8216,-3.7883,-3.7323,-3.7255,-3.7238,-3.7148,-3.7075,-3.6626,-3.595,-3.5864,-3.5526,-3.4954,-3.4899,-3.4851,-3.4851,-3.4899,-3.4899,-3.4899,-3.4899,-3.4899,-3.4899,-3.4899,-3.4899,-3.4883,-3.4899,-3.4899,-3.4899,-3.4899,-3.4667,-3.4192,-3.3668,-3.3421,-3.3463,-3.2839,-3.275,-3.3208,-3.3143,-3.3046,-3.2976,-3.3487,-3.3758,-3.3685,-3.4295,-3.4731,-3.4731,-3.4835,-3.485,-3.4731,-3.4835,-3.5581,-3.6966,-3.7179,-3.7834,-3.8874,-3.9298,-3.9388,-3.9388,-3.9388,-3.9388,-3.9388,-3.9388,-3.9388,-3.9379,-3.9424,-3.9424,-3.9409,-3.9331,-3.9445,-3.9331,-3.9316,-3.9391,-3.9322,-3.9491,-3.9577,-3.9364,-3.9414,-3.9465,-3.9469,-3.9702,-3.9799,-3.9626,-3.9666,-3.9364,-3.926,-3.9313,-3.8975,-3.8482,-3.8287,-3.8317,-3.7704,-3.7599,-3.7599,-3.7599,-3.7584,-3.7404,-3.715,-3.6941,-3.6671,-3.6022,-3.5707,-3.5915,-4.1366,-4.1018,-4.0539,-4.0162,-3.9708,-3.8891,-3.8541,-3.8547,-3.8003,-3.7577,-3.7333,-3.763,-3.7557,-3.728,-3.728,-3.7105,-3.6826,-3.6826,-3.6826,-3.6826,-3.6826,-3.6547,-3.6054,-3.5732,-3.5345,-3.4883,-3.457,-3.4407,-3.4431,-3.457,-3.4739,-3.4859,-3.4739,-3.4667,-3.4659,-3.4521,-3.4423,-3.4407,-3.4423,-3.4423,-3.4448,-3.4739,-3.4715,-3.43,-3.3527,-3.3032,-3.2878,-3.2059,-3.1663,-3.1838,-3.2116,-3.2198,-3.204,-3.2637,-3.3143,-3.3489,-3.4132,-3.4515,-3.4515,-3.4568,-3.4582,-3.453,-3.4683,-3.5261,-3.6202,-3.6492,-3.7064,-3.7998,-3.8874,-3.9388,-3.9358,-3.9388,-3.9388,-3.9388,-3.9388,-3.9224,-3.8841,-3.8811,-3.8691,-3.8317,-3.8207,-3.8242,-3.8227,-3.8227,-3.8227,-3.8227,-3.8382,-3.8442,-3.8242,-3.8297,-3.8297,-3.8217,-3.8082,-3.8286,-3.8682,-3.8542,-3.8207,-3.7828,-3.7674,-3.7449,-3.6941,-3.6701,-3.6567,-3.6312,-3.6297,-3.6282,-3.6282,-3.6297,-3.6178,-3.5848,-3.5893,-3.5804,-3.5549,-3.5294,-3.5703,-4.0358,-4.0063,-3.9322,-3.8968,-3.8856,-3.8041,-3.7671,-3.7659,-3.6989,-3.6705,-3.6708,-3.6664,-3.6623,-3.662,-3.6664,-3.6719,-3.6684,-3.6475,-3.6371,-3.6354,-3.618,-3.5965,-3.5766,-3.5316,-3.5023,-3.4842,-3.4374,-3.4101,-3.4126,-3.4275,-3.4497,-3.4618,-3.4497,-3.4399,-3.4374,-3.4176,-3.4101,-3.4101,-3.4101,-3.4101,-3.4151,-3.4358,-3.4317,-3.3926,-3.3145,-3.2544,-3.2188,-3.1452,-3.0955,-3.0806,-3.1244,-3.1387,-3.1279,-3.1857,-3.2614,-3.3431,-3.3925,-3.424,-3.4399,-3.438,-3.438,-3.4414,-3.453,-3.4942,-3.5585,-3.5922,-3.6388,-3.7124,-3.8091,-3.8683,-3.8835,-3.8871,-3.8871,-3.8871,-3.8835,-3.8631,-3.8197,-3.8123,-3.7943,-3.7494,-3.7505,-3.7404,-3.7404,-3.7464,-3.7494,-3.7494,-3.7464,-3.7404,-3.736,-3.7315,-3.718,-3.712,-3.6492,-3.657,-3.7524,-3.7315,-3.6716,-3.6432,-3.6297,-3.6118,-3.5385,-3.5265,-3.5055,-3.507,-3.5011,-3.4966,-3.4951,-3.4951,-3.4814,-3.4696,-3.456,-3.4455,-3.4068,-3.4196,-3.4006,-3.9529,-3.9234,-3.8477,-3.8102,-3.7985,-3.7231,-3.6835,-3.6847,-3.6719,-3.6623,-3.6523,-3.6523,-3.6444,-3.6343,-3.6512,-3.6647,-3.658,-3.5916,-3.5586,-3.5481,-3.4872,-3.4716,-3.4995,-3.451,-3.4442,-3.458,-3.4088,-3.3921,-3.4011,-3.4101,-3.4126,-3.4151,-3.4126,-3.4126,-3.4101,-3.4075,-3.4075,-3.4025,-3.4025,-3.4075,-3.4009,-3.3681,-3.3251,-3.2761,-3.2226,-3.1751,-3.1263,-3.0955,-3.0791,-3.0791,-3.076,-3.0685,-3.0714,-3.125,-3.215,-3.3256,-3.3532,-3.3823,-3.4283,-3.4366,-3.438,-3.4414,-3.4414,-3.4777,-3.5473,-3.5629,-3.5982,-3.6797,-3.6891,-3.7164,-3.7406,-3.7639,-3.7639,-3.7624,-3.7535,-3.7569,-3.7479,-3.7464,-3.7449,-3.733,-3.7225,-3.718,-3.73,-3.7404,-3.727,-3.7255,-3.7315,-3.7255,-3.703,-3.6746,-3.6477,-3.6151,-3.5489,-3.5058,-3.6148,-3.5998,-3.5624,-3.528,-3.504,-3.5175,-3.4863,-3.4488,-3.4114,-3.3799,-3.3633,-3.3558,-3.3589,-3.3454,-3.3244,-3.2975,-3.2497,-3.2273,-3.2601,-3.141,-3.1407,-3.8274,-3.7694,-3.7494,-3.7329,-3.7129,-3.6867,-3.6705,-3.6681,-3.6523,-3.6464,-3.6482,-3.6402,-3.6343,-3.6284,-3.5883,-3.5734,-3.57,-3.544,-3.5077,-3.4627,-3.4332,-3.4117,-3.3917,-3.3431,-3.3082,-3.2961,-3.2522,-3.259,-3.3205,-3.3607,-3.3949,-3.4034,-3.394,-3.3848,-3.3822,-3.3668,-3.3581,-3.3581,-3.3581,-3.3581,-3.3565,-3.3124,-3.2652,-3.2173,-3.1921,-3.1623,-3.1219,-3.0881,-3.0672,-3.0657,-3.0628,-3.0612,-3.067,-3.1177,-3.17,-3.2222,-3.3038,-3.3605,-3.3804,-3.4182,-3.438,-3.438,-3.438,-3.4501,-3.4806,-3.4966,-3.5219,-3.5443,-3.5575,-3.568,-3.5974,-3.6658,-3.7262,-3.7297,-3.7321,-3.7176,-3.6926,-3.6821,-3.6671,-3.6312,-3.6193,-3.6193,-3.6267,-3.6207,-3.6193,-3.6193,-3.6193,-3.6028,-3.5624,-3.5325,-3.5117,-3.4577,-3.3858,-3.338,-3.3754,-3.4188,-3.4113,-3.3724,-3.3469,-3.3215,-3.2916,-3.2856,-3.2557,-3.2542,-3.2378,-3.2318,-3.2377,-3.2303,-3.205,-3.1886,-3.1337,-3.1367,-3.1279,-3.0955,-3.0836,-3.7344,-3.6864,-3.6886,-3.6806,-3.6643,-3.6623,-3.6623,-3.6561,-3.6381,-3.636,-3.6402,-3.6343,-3.618,-3.5904,-3.5404,-3.4869,-3.449,-3.4438,-3.418,-3.3697,-3.3473,-3.3259,-3.2983,-3.25,-3.2163,-3.1954,-3.1437,-3.1575,-3.2178,-3.2656,-3.3093,-3.3453,-3.3323,-3.3374,-3.3507,-3.3388,-3.3293,-3.3293,-3.3293,-3.3309,-3.324,-3.2819,-3.2259,-3.1734,-3.1588,-3.1393,-3.1087,-3.0747,-3.0612,-3.0612,-3.0612,-3.0612,-3.0656,-3.0974,-3.1322,-3.1584,-3.2338,-3.3082,-3.3474,-3.3877,-3.4182,-3.4399,-3.438,-3.438,-3.4414,-3.4515,-3.4597,-3.4631,-3.4683,-3.4735,-3.4963,-3.5745,-3.6384,-3.6452,-3.6539,-3.6458,-3.6056,-3.6063,-3.5902,-3.5636,-3.5594,-3.5534,-3.5489,-3.5519,-3.5534,-3.5489,-3.534,-3.4951,-3.4623,-3.4084,-3.3739,-3.3184,-3.2602,-3.2214,-3.2303,-3.257,-3.2825,-3.2527,-3.2482,-3.1959,-3.1706,-3.1541,-3.1438,-3.1365,-3.1278,-3.1234,-3.119,-3.1161,-3.1132,-3.1087,-3.1146,-3.1191,-3.1146,-3.1117,-3.0955,-3.6809,-3.6788,-3.6742,-3.6623,-3.6502,-3.6523,-3.6423,-3.6343,-3.6284,-3.6284,-3.6322,-3.6266,-3.5835,-3.5335,-3.5042,-3.43,-3.3283,-3.3076,-3.299,-3.2835,-3.2283,-3.2109,-3.2239,-3.1762,-3.156,-3.1674,-3.1373,-3.1176,-3.1232,-3.1406,-3.1763,-3.2222,-3.2342,-3.2643,-3.3288,-3.3198,-3.3261,-3.3293,-3.3293,-3.3293,-3.324,-3.2788,-3.204,-3.1201,-3.1147,-3.0969,-3.0556,-3.0569,-3.0612,-3.0612,-3.0612,-3.0612,-3.0612,-3.067,-3.0858,-3.1351,-3.1555,-3.2193,-3.3227,-3.3489,-3.3819,-3.4196,-3.4351,-3.438,-3.4414,-3.4414,-3.4414,-3.4448,-3.4433,-3.4448,-3.4481,-3.4747,-3.4974,-3.4913,-3.5189,-3.516,-3.5071,-3.5111,-3.5261,-3.5407,-3.5424,-3.5472,-3.5472,-3.5335,-3.529,-3.5218,-3.4829,-3.4397,-3.4128,-3.338,-3.2631,-3.2258,-3.1946,-3.1663,-3.1367,-3.1161,-3.1352,-3.1484,-3.1617,-3.1483,-3.1484,-3.1395,-3.1336,-3.1263,-3.1117,-3.1058,-3.0999,-3.0984,-3.1014,-3.1014,-3.1043,-3.1028,-3.0984,-3.0955,-3.0925,-3.6728,-3.6606,-3.6664,-3.6564,-3.6402,-3.6464,-3.6423,-3.6301,-3.6284,-3.6284,-3.6197,-3.5766,-3.5404,-3.4973,-3.4128,-3.3369,-3.2869,-3.2403,-3.2145,-3.2127,-3.1903,-3.1661,-3.1421,-3.1012,-3.0533,-3.0167,-3.0371,-3.0496,-3.0591,-3.0954,-3.1365,-3.1507,-3.1539,-3.1918,-3.2592,-3.2623,-3.2813,-3.3245,-3.3293,-3.3293,-3.3219,-3.2424,-3.1667,-3.1019,-3.0368,-2.9773,-2.9362,-3.0133,-3.0583,-3.0583,-3.0612,-3.0612,-3.0612,-3.0612,-3.0699,-3.0917,-3.1293,-3.1596,-3.2135,-3.2962,-3.3532,-3.3804,-3.4138,-3.4351,-3.438,-3.4414,-3.4414,-3.438,-3.438,-3.438,-3.4414,-3.4448,-3.4597,-3.4716,-3.4835,-3.4902,-3.4902,-3.4968,-3.5001,-3.5082,-3.5067,-3.5067,-3.5011,-3.4818,-3.4589,-3.4535,-3.4075,-3.36,-3.3155,-3.2796,-3.2273,-3.1841,-3.1513,-3.1292,-3.1146,-3.1029,-3.1132,-3.122,-3.1249,-3.1307,-3.1307,-3.1278,-3.1234,-3.1132,-3.1014,-3.091,-3.0851,-3.0821,-3.0881,-3.0821,-3.0791,-3.0762,-3.0762,-3.0762,-3.0762,-3.6626,-3.6502,-3.6544,-3.6444,-3.6322,-3.6385,-3.6381,-3.6284,-3.6284,-3.6163,-3.5818,-3.5421,-3.4852,-3.4249,-3.3317,-3.2766,-3.2455,-3.199,-3.18,-3.1746,-3.1579,-3.1295,-3.0845,-3.023,-2.9705,-2.93,-2.9564,-2.9785,-2.9817,-3.0212,-3.0535,-3.0796,-3.0828,-3.1176,-3.1855,-3.2181,-3.2544,-3.2898,-3.3166,-3.3293,-3.3087,-3.2248,-3.1369,-3.0635,-2.9826,-2.9079,-2.8504,-2.9363,-3.0016,-3.0234,-3.0452,-3.0598,-3.0612,-3.0612,-3.0612,-3.0685,-3.093,-3.1264,-3.1555,-3.2266,-3.2908,-3.3151,-3.3703,-3.4037,-3.4095,-3.4211,-3.438,-3.438,-3.438,-3.438,-3.438,-3.438,-3.4481,-3.4563,-3.465,-3.4735,-3.4817,-3.4817,-3.4868,-3.4902,-3.4935,-3.4784,-3.4522,-3.4333,-3.3893,-3.3752,-3.322,-3.2761,-3.2347,-3.2109,-3.1708,-3.1426,-3.1235,-3.1087,-3.1058,-3.0999,-3.0969,-3.1014,-3.1043,-3.1102,-3.1176,-3.1176,-3.1146,-3.1043,-3.0925,-3.0851,-3.0806,-3.0762,-3.0762,-3.0672,-3.0612,-3.0642,-3.0672,-3.0672,-3.0672,-3.6502,-3.6482,-3.6343,-3.6322,-3.6284,-3.6284,-3.6253,-3.618,-3.618,-3.5766,-3.5252,-3.4921,-3.4231,-3.3179,-3.2835,-3.2421,-3.1903,-3.1834,-3.18,-3.1671,-3.1372,-3.0908,-3.0414,-2.9722,-2.9328,-2.9137,-2.9161,-2.9177,-2.924,-2.9304,-2.9453,-3.0069,-3.0157,-3.0464,-3.1112,-3.1833,-3.2133,-3.2449,-3.2914,-3.3182,-3.3203,-3.2033,-3.1043,-3.0019,-2.9316,-2.8475,-2.7799,-2.8207,-2.8943,-2.9581,-3.0248,-3.0612,-3.0612,-3.0612,-3.0612,-3.0612,-3.0612,-3.0901,-3.1308,-3.1627,-3.1903,-3.244,-3.3035,-3.3489,-3.362,-3.3978,-3.4298,-3.4366,-3.438,-3.438,-3.438,-3.438,-3.4414,-3.4414,-3.4448,-3.4515,-3.4664,-3.4698,-3.4716,-3.4787,-3.4824,-3.4604,-3.403,-3.3871,-3.3399,-3.2974,-3.237,-3.1972,-3.187,-3.156,-3.1131,-3.0984,-3.1043,-3.094,-3.094,-3.091,-3.0881,-3.0821,-3.0866,-3.0925,-3.0984,-3.0984,-3.0984,-3.0895,-3.0836,-3.0791,-3.0762,-3.0702,-3.0672,-3.0642,-3.0612,-3.0612,-3.0612,-3.0612,-3.0612,-3.6444,-3.6343,-3.6322,-3.6284,-3.6284,-3.6284,-3.5973,-3.5525,-3.549,-3.5076,-3.4407,-3.3749,-3.3335,-3.2869,-3.2317,-3.1955,-3.1834,-3.18,-3.18,-3.1744,-3.1298,-3.0666,-3.0097,-2.9766,-2.9425,-2.9144,-2.9114,-2.9114,-2.9114,-2.9114,-2.9225,-2.9367,-2.9469,-2.9769,-3.0401,-3.071,-3.1327,-3.2165,-3.2434,-3.2835,-3.2898,-3.1228,-3.005,-2.9606,-2.7915,-2.6853,-2.6464,-2.6946,-2.8068,-2.9508,-3.0219,-3.0612,-3.0568,-3.0582,-3.0582,-3.0582,-3.0612,-3.0656,-3.0903,-3.125,-3.1553,-3.1756,-3.2396,-3.2977,-3.3474,-3.3634,-3.3949,-3.4254,-3.438,-3.4351,-3.4366,-3.4385,-3.4385,-3.438,-3.4312,-3.4341,-3.4481,-3.4481,-3.4515,-3.4505,-3.4159,-3.3795,-3.3463,-3.2849,-3.2282,-3.2053,-3.1644,-3.1218,-3.1263,-3.1294,-3.0955,-3.1058,-3.1043,-3.0925,-3.0866,-3.0791,-3.0732,-3.0672,-3.0672,-3.0702,-3.0732,-3.0732,-3.0732,-3.0657,-3.0702,-3.0702,-3.0672,-3.0642,-3.0612,-3.0612,-3.0612,-3.0612,-3.0612,-3.0612,-3.0612,-3.6381,-3.6284,-3.6284,-3.6284,-3.6249,-3.5956,-3.5594,-3.518,-3.4855,-3.43,-3.3611,-3.3128,-3.2714,-3.2403,-3.199,-3.18,-3.18,-3.1746,-3.1709,-3.1617,-3.1181,-3.0543,-2.9968,-2.9772,-2.9544,-2.9144,-2.9114,-2.9114,-2.9114,-2.9114,-2.9114,-2.9146,-2.9114,-2.9319,-2.9738,-3.0109,-3.0726,-3.1681,-3.2092,-3.2546,-3.2786,-3.0911,-2.9837,-2.9185,-2.742,-2.6233,-2.6181,-2.6567,-2.7584,-2.8911,-2.9617,-2.9918,-3.019,-3.0341,-3.0371,-3.0401,-3.0522,-3.0612,-3.0656,-3.093,-3.1029,-3.1081,-3.1604,-3.2113,-3.2457,-3.2764,-3.3296,-3.3499,-3.3819,-3.3993,-3.4022,-3.4022,-3.4008,-3.3949,-3.379,-3.3862,-3.4279,-3.4153,-3.4051,-3.3877,-3.3485,-3.2966,-3.2762,-3.1946,-3.1558,-3.1285,-3.1038,-3.0864,-3.085,-3.0881,-3.0925,-3.0955,-3.0925,-3.0806,-3.0732,-3.0702,-3.0702,-3.0642,-3.0612,-3.0612,-3.0612,-3.0612,-3.0598,-3.0598,-3.0612,-3.0612,-3.0612,-3.0612,-3.0612,-3.0612,-3.0612,-3.0612,-3.0612,-3.0612,-3.0612,-3.6284,-3.6284,-3.6232,-3.618,-3.6025,-3.5425,-3.4956,-3.48,-3.4234,-3.3524,-3.2904,-3.2764,-3.2349,-3.1799,-3.176,-3.1763,-3.1763,-3.1653,-3.1615,-3.1466,-3.114,-3.0621,-3.0102,-2.9815,-2.9589,-2.9259,-2.9167,-2.9114,-2.9114,-2.9114,-2.9114,-2.9114,-2.9114,-2.9114,-2.9319,-2.9738,-3.0433,-3.1239,-3.1767,-3.2181,-3.2183,-3.0754,-2.9547,-2.8864,-2.7295,-2.6261,-2.6128,-2.6427,-2.71,-2.8336,-2.8563,-2.9078,-2.9513,-2.9827,-3.0019,-3.008,-3.0249,-3.0401,-3.0462,-3.0444,-3.0414,-3.036,-3.0933,-3.1312,-3.1418,-3.2023,-3.2513,-3.2745,-3.305,-3.3344,-3.3402,-3.3402,-3.3369,-3.3311,-3.2875,-3.3166,-3.3775,-3.3717,-3.3402,-3.3358,-3.2817,-3.2179,-3.1712,-3.1379,-3.1206,-3.0962,-3.0745,-3.0716,-3.0702,-3.0732,-3.0732,-3.0702,-3.0672,-3.0642,-3.0642,-3.0612,-3.0642,-3.0612,-3.0612,-3.0612,-3.0612,-3.0612,-3.0612,-3.0612,-3.0612,-3.0612,-3.0612,-3.0612,-3.0612,-3.0612,-3.0612,-3.0612,-3.0612,-3.0612,-3.0612,-3.6284,-3.6249,-3.5663,-3.5439,-3.5301,-3.4648,-3.399,-3.3421,-3.3248,-3.2747,-3.2161,-3.1948,-3.1807,-3.1635,-3.1595,-3.1557,-3.1593,-3.1538,-3.1519,-3.15,-3.1443,-3.1137,-3.0601,-3.0032,-2.9677,-2.9538,-2.9243,-2.9098,-2.9114,-2.9091,-2.9114,-2.9114,-2.9091,-2.9114,-2.9161,-2.9296,-2.9982,-3.0977,-3.1288,-3.1623,-3.1762,-3.0313,-2.8952,-2.8194,-2.6483,-2.5508,-2.5314,-2.5353,-2.5749,-2.6634,-2.779,-2.8589,-2.8912,-2.9366,-2.9654,-2.9741,-2.9803,-2.9851,-2.982,-2.9882,-2.9913,-3.0078,-3.0268,-3.0666,-3.1358,-3.1505,-3.1959,-3.2321,-3.2643,-3.2716,-3.2803,-3.2745,-3.2716,-3.2658,-3.2527,-3.2513,-3.2817,-3.2817,-3.273,-3.26,-3.2164,-3.164,-3.1482,-3.1032,-3.08,-3.0641,-3.0612,-3.0612,-3.0612,-3.0612,-3.0612,-3.0612,-3.0612,-3.0612,-3.0612,-3.0612,-3.0612,-3.0612,-3.0612,-3.0612,-3.0612,-3.0612,-3.0612,-3.0612,-3.0612,-3.0612,-3.0612,-3.0612,-3.0612,-3.0612,-3.0612,-3.0612,-3.0612,-3.0612,-3.0612,-3.5826,-3.5459,-3.4898,-3.47,-3.4579,-3.3852,-3.33,-3.285,-3.245,-3.2087,-3.1759,-3.1596,-3.154,-3.1557,-3.15,-3.1481,-3.1481,-3.1443,-3.1385,-3.1366,-3.1327,-3.1137,-3.0764,-3.0182,-2.9793,-2.9744,-2.9335,-2.9137,-2.9091,-2.9052,-2.9052,-2.9075,-2.9021,-2.9037,-2.9068,-2.9021,-2.9808,-3.0865,-3.0999,-3.1218,-3.144,-3.0247,-2.846,-2.7354,-2.5953,-2.5244,-2.5257,-2.5103,-2.5196,-2.5689,-2.6689,-2.7712,-2.821,-2.8677,-2.9031,-2.9341,-2.954,-2.9571,-2.9602,-2.9602,-2.9634,-2.9634,-2.9772,-2.999,-3.0404,-3.0614,-3.0881,-3.1226,-3.1639,-3.2104,-3.244,-3.2133,-3.206,-3.1975,-3.1772,-3.1627,-3.1656,-3.1828,-3.2017,-3.1901,-3.1467,-3.1177,-3.0901,-3.0727,-3.0685,-3.0612,-3.0612,-3.0612,-3.0612,-3.0612,-3.0612,-3.0612,-3.0612,-3.0612,-3.0612,-3.0612,-3.0612,-3.0612,-3.0612,-3.0612,-3.0612,-3.0612,-3.0612,-3.0612,-3.0612,-3.0612,-3.0612,-3.0612,-3.0612,-3.0612,-3.0612,-3.0612,-3.0612,-3.0612,-3.0612,-3.5138,-3.4486,-3.4075,-3.3904,-3.3803,-3.3076,-3.2714,-3.2591,-3.1965,-3.1704,-3.1579,-3.1519,-3.1481,-3.1462,-3.1443,-3.1443,-3.1404,-3.1349,-3.1271,-3.123,-3.123,-3.1078,-3.0707,-3.0272,-2.9924,-2.9772,-2.9312,-2.9091,-2.9029,-2.899,-2.9013,-2.9052,-2.8944,-2.8967,-2.9021,-2.903,-2.9634,-3.0935,-3.0974,-3.0861,-3.1025,-3.0066,-2.8437,-2.6422,-2.5702,-2.5328,-2.5257,-2.5131,-2.5032,-2.5032,-2.5493,-2.6321,-2.7196,-2.7923,-2.8288,-2.887,-2.9129,-2.9334,-2.932,-2.9352,-2.9289,-2.9099,-2.9352,-2.9446,-2.9488,-2.978,-2.9992,-3.0154,-3.0563,-3.132,-3.1934,-3.1464,-3.1193,-3.117,-3.0781,-3.0581,-3.0685,-3.1061,-3.1322,-3.1322,-3.1061,-3.0845,-3.0757,-3.0641,-3.0612,-3.0612,-3.0612,-3.0612,-3.0612,-3.0612,-3.0612,-3.0612,-3.0612,-3.0612,-3.0612,-3.0612,-3.0612,-3.0612,-3.0612,-3.0612,-3.0612,-3.0612,-3.0612,-3.0612,-3.0612,-3.0612,-3.0612,-3.0612,-3.0612,-3.0612,-3.0612,-3.0612,-3.0612,-3.0612,-3.0612,-3.4315,-3.4123,-3.3388,-3.311,-3.299,-3.23,-3.2024,-3.1972,-3.1832,-3.1709,-3.1579,-3.1519,-3.1426,-3.1368,-3.1288,-3.1266,-3.1269,-3.123,-3.121,-3.119,-3.119,-3.1117,-3.0905,-3.0293,-3.0011,-2.9843,-2.9341,-2.892,-2.8967,-2.9013,-2.9029,-2.9075,-2.9006,-2.9006,-2.9045,-2.9123,-2.9618,-3.082,-3.0923,-3.0731,-3.0292,-2.9349,-2.7855,-2.5675,-2.523,-2.5146,-2.5103,-2.5033,-2.5005,-2.5018,-2.51,-2.5534,-2.6253,-2.7169,-2.7731,-2.8089,-2.8511,-2.8812,-2.8862,-2.8812,-2.8908,-2.9035,-2.9131,-2.932,-2.9415,-2.9571,-2.9634,-2.9693,-2.9749,-3.0043,-3.004,-3.0177,-3.0171,-3.0209,-3.0317,-3.028,-3.0491,-3.0652,-3.0738,-3.0722,-3.0609,-3.0612,-3.0612,-3.0612,-3.0612,-3.0612,-3.0612,-3.0612,-3.0612,-3.0612,-3.0612,-3.0612,-3.0612,-3.0612,-3.0612,-3.0612,-3.0612,-3.0612,-3.0612,-3.0612,-3.0612,-3.0612,-3.0612,-3.0612,-3.0612,-3.0612,-3.0612,-3.0612,-3.0612,-3.0612,-3.0612,-3.0612,-3.0612,-3.0612,-3.0612,-3.3536,-3.3116,-3.2566,-3.2334,-3.2265,-3.1955,-3.18,-3.18,-3.1727,-3.1634,-3.154,-3.1428,-3.1349,-3.1252,-3.1213,-3.119,-3.119,-3.119,-3.119,-3.119,-3.119,-3.1055,-3.0885,-3.0187,-2.9815,-2.9506,-2.9036,-2.8795,-2.8842,-2.892,-2.8967,-2.8905,-2.8811,-2.8803,-2.8873,-2.8794,-2.9607,-3.0535,-3.0777,-3.0587,-3.0063,-2.8881,-2.6866,-2.5758,-2.5075,-2.5005,-2.5005,-2.5005,-2.5005,-2.5005,-2.5018,-2.5168,-2.5602,-2.6226,-2.7067,-2.7583,-2.7976,-2.8302,-2.8519,-2.8587,-2.8683,-2.878,-2.8844,-2.8908,-2.9067,-2.9194,-2.9415,-2.9509,-2.9383,-2.9415,-2.9659,-2.9571,-2.9665,-2.9772,-2.9834,-2.9913,-3.0066,-3.0083,-3.0144,-3.0219,-3.0387,-3.0507,-3.0612,-3.0612,-3.0612,-3.0612,-3.0612,-3.0612,-3.0612,-3.0612,-3.0612,-3.0612,-3.0612,-3.0612,-3.0612,-3.0612,-3.0612,-3.0612,-3.0612,-3.0612,-3.0612,-3.0612,-3.0612,-3.0612,-3.0612,-3.0612,-3.0612,-3.0612,-3.0612,-3.0612,-3.0612,-3.0612,-3.0612,-3.0612,-3.0612,-3.288,-3.2266,-3.1947,-3.18,-3.18,-3.18,-3.18,-3.1781,-3.169,-3.1596,-3.1481,-3.1387,-3.1291,-3.1213,-3.119,-3.119,-3.119,-3.119,-3.119,-3.119,-3.119,-3.0995,-3.0617,-3.0075,-2.9661,-2.9432,-2.8842,-2.866,-2.8732,-2.8818,-2.8834,-2.8794,-2.858,-2.858,-2.8723,-2.8878,-2.9614,-3.0256,-3.0789,-3.0722,-2.9852,-2.8066,-2.6283,-2.5508,-2.5131,-2.5005,-2.5005,-2.5005,-2.5005,-2.5005,-2.5005,-2.5018,-2.5086,-2.5453,-2.6226,-2.7149,-2.7542,-2.7976,-2.8248,-2.8573,-2.8619,-2.8651,-2.8619,-2.8619,-2.8665,-2.8922,-2.9099,-2.9289,-2.9194,-2.9067,-2.9257,-2.9383,-2.9415,-2.9477,-2.9509,-2.954,-2.9634,-2.9727,-2.982,-2.9974,-3.0205,-3.0326,-3.0371,-3.0612,-3.0612,-3.0612,-3.0612,-3.0612,-3.0612,-3.0612,-3.0612,-3.0612,-3.0612,-3.0612,-3.0612,-3.0612,-3.0612,-3.0612,-3.0612,-3.0612,-3.0612,-3.0612,-3.0612,-3.0612,-3.0612,-3.0612,-3.0612,-3.0612,-3.0612,-3.0612,-3.0612,-3.0612,-3.0612,-3.0612,-3.0612,-3.2371,-3.2284,-3.1947,-3.18,-3.18,-3.18,-3.18,-3.18,-3.1763,-3.167,-3.1462,-3.1462,-3.1346,-3.123,-3.119,-3.119,-3.119,-3.119,-3.119,-3.119,-3.119,-3.1151,-3.0955,-3.0199,-2.9837,-2.9528,-2.8959,-2.8645,-2.8636,-2.8747,-2.8771,-2.8747,-2.8723,-2.8771,-2.8731,-2.9133,-2.9974,-3.0623,-3.1223,-3.0753,-2.9119,-2.7169,-2.595,-2.5258,-2.5033,-2.5005,-2.5005,-2.5005,-2.5005,-2.5005,-2.5005,-2.5005,-2.5018,-2.5032,-2.5439,-2.6212,-2.6999,-2.7746,-2.7908,-2.8234,-2.856,-2.856,-2.8587,-2.8587,-2.8633,-2.8633,-2.8748,-2.8683,-2.8683,-2.8748,-2.8812,-2.878,-2.8876,-2.9035,-2.9162,-2.9289,-2.9415,-2.932,-2.9446,-2.9571,-2.9775,-2.9943,-3.0005,-3.0341,-3.0612,-3.0612,-3.0612,-3.0582,-3.0612,-3.0582,-3.0612,-3.0612,-3.0612,-3.0612,-3.0612,-3.0612,-3.0612,-3.0612,-3.0612,-3.0612,-3.0612,-3.0612,-3.0612,-3.0612,-3.0612,-3.0612,-3.0612,-3.0612,-3.0612,-3.0612,-3.0612,-3.0612,-3.0612,-3.0612,-3.0612,-3.2653,-3.2283,-3.2126,-3.1983,-3.1783,-3.1727,-3.1673,-3.1671,-3.1651,-3.1521,-3.1406,-3.1387,-3.131,-3.121,-3.119,-3.119,-3.119,-3.119,-3.119,-3.119,-3.119,-3.119,-3.1035,-3.0535,-3.0118,-2.9639,-2.9205,-2.8724,-2.8645,-2.8589,-2.866,-2.8604,-2.858,-2.8556,-2.8728,-2.9261,-2.9861,-3.0392,-3.0664,-2.9993,-2.8378,-2.7027,-2.5947,-2.5048,-2.5033,-2.5005,-2.5005,-2.5005,-2.5005,-2.5005,-2.5005,-2.5005,-2.5005,-2.5018,-2.5168,-2.5385,-2.6172,-2.6959,-2.7623,-2.7936,-2.822,-2.8519,-2.8587,-2.8587,-2.8587,-2.8587,-2.8587,-2.8587,-2.8587,-2.8587,-2.8587,-2.8587,-2.8683,-2.878,-2.8844,-2.8908,-2.9035,-2.9004,-2.9035,-2.9162,-2.932,-2.9477,-2.9634,-2.982,-3.0052,-3.0158,-3.0219,-3.028,-3.0371,-3.0492,-3.0552,-3.0612,-3.0612,-3.0612,-3.0612,-3.0612,-3.0612,-3.0612,-3.0612,-3.0612,-3.0612,-3.0612,-3.0552,-3.0582,-3.0582,-3.0612,-3.0612,-3.0612,-3.0612,-3.0612,-3.0612,-3.0612,-3.0612,-3.0612,-3.0612,-3.2925,-3.2301,-3.2301,-3.2109,-3.1783,-3.169,-3.1635,-3.1598,-3.1557,-3.1445,-3.1315,-3.1276,-3.1252,-3.121,-3.119,-3.119,-3.119,-3.119,-3.119,-3.119,-3.1171,-3.1112,-3.0858,-3.0493,-3.0032,-2.9601,-2.9044,-2.87,-2.8525,-2.8468,-2.8493,-2.8411,-2.846,-2.8574,-2.8827,-2.9381,-3.0074,-3.0674,-3.0351,-2.944,-2.8175,-2.7331,-2.6313,-2.5591,-2.5202,-2.5146,-2.5005,-2.5005,-2.5005,-2.5005,-2.5005,-2.5005,-2.5005,-2.5018,-2.4962,-2.5111,-2.5544,-2.6026,-2.6742,-2.7259,-2.7755,-2.8193,-2.856,-2.8587,-2.8587,-2.8587,-2.8587,-2.8587,-2.8587,-2.8587,-2.8587,-2.8587,-2.8619,-2.8619,-2.8619,-2.8619,-2.8619,-2.8716,-2.8844,-2.9035,-2.9131,-2.9099,-2.9194,-2.9257,-2.9415,-2.9602,-2.9772,-2.9927,-3.0111,-3.028,-3.0249,-3.028,-3.028,-3.031,-3.0431,-3.0462,-3.0492,-3.0582,-3.0612,-3.0583,-3.0554,-3.0477,-3.0401,-3.0431,-3.0421,-3.0462,-3.0385,-3.0492,-3.0612,-3.0612,-3.0612,-3.0612,-3.0612,-3.0612,-3.0583,-3.2925,-3.2301,-3.2301,-3.2109,-3.18,-3.18,-3.1709,-3.1598,-3.1579,-3.1449,-3.1293,-3.1232,-3.121,-3.119,-3.119,-3.119,-3.119,-3.119,-3.119,-3.119,-3.1171,-3.0995,-3.0699,-3.0267,-2.9728,-2.9273,-2.8897,-2.8621,-2.8411,-2.842,-2.8436,-2.8411,-2.8411,-2.8796,-2.9196,-2.9633,-3.0258,-3.0566,-3.0104,-2.9256,-2.8374,-2.7617,-2.6785,-2.6015,-2.5757,-2.5591,-2.5033,-2.5005,-2.4977,-2.4977,-2.4977,-2.4948,-2.492,-2.492,-2.4892,-2.4889,-2.4914,-2.5314,-2.5781,-2.6435,-2.7101,-2.7705,-2.8125,-2.8311,-2.8275,-2.8492,-2.856,-2.8519,-2.8505,-2.8587,-2.8587,-2.8587,-2.8587,-2.8587,-2.8587,-2.8587,-2.8587,-2.8587,-2.8748,-2.8908,-2.8972,-2.8908,-2.8876,-2.8972,-2.9067,-2.9257,-2.9477,-2.9634,-2.9727,-2.9851,-2.9789,-2.9789,-2.9789,-2.9882,-3.0111,-3.0233,-3.0431,-3.0552,-3.0612,-3.0539,-3.0451,-3.036,-3.0125,-2.9966,-2.9882,-3.0005,-3.0119,-3.0027,-3.0118,-3.0467,-3.0612,-3.0612,-3.0612,-3.0612,-3.0539,-3.2716,-3.2301,-3.2301,-3.2109,-3.18,-3.1709,-3.1653,-3.1579,-3.1485,-3.1368,-3.1303,-3.121,-3.119,-3.1224,-3.119,-3.119,-3.119,-3.119,-3.1241,-3.119,-3.1151,-3.1075,-3.0777,-3.0464,-3.0011,-2.9506,-2.9044,-2.8605,-2.842,-2.8436,-2.8411,-2.8411,-2.8411,-2.8519,-2.8965,-2.9494,-2.9925,-3.0012,-2.9654,-2.8966,-2.794,-2.734,-2.664,-2.6002,-2.5453,-2.5286,-2.5005,-2.5005,-2.4948,-2.4892,-2.4892,-2.4835,-2.4791,-2.4778,-2.4721,-2.4677,-2.4677,-2.4753,-2.4978,-2.5601,-2.624,-2.6873,-2.7255,-2.7462,-2.7633,-2.7827,-2.8003,-2.8125,-2.8329,-2.841,-2.856,-2.8573,-2.8587,-2.8587,-2.8532,-2.8478,-2.8424,-2.8343,-2.8483,-2.8575,-2.8652,-2.8683,-2.8683,-2.8683,-2.878,-2.8908,-2.9131,-2.932,-2.9415,-2.9477,-2.9446,-2.9477,-2.9509,-2.9665,-2.9896,-3.0158,-3.0401,-3.0492,-3.0538,-3.0318,-3.0099,-2.9958,-2.9724,-2.9506,-2.926,-2.9275,-2.9289,-2.9378,-2.961,-3.0089,-3.0409,-3.0612,-3.0612,-3.0481,-3.0292,-3.262,-3.2301,-3.2197,-3.2002,-3.18,-3.169,-3.1615,-3.1593,-3.1701,-3.1783,-3.185,-3.185,-3.1867,-3.185,-3.1884,-3.1918,-3.1985,-3.1968,-3.1918,-3.1952,-3.1985,-3.1635,-3.1321,-3.0954,-3.0499,-2.9891,-2.9348,-2.8881,-2.8653,-2.8493,-2.8436,-2.8411,-2.8427,-2.8519,-2.8889,-2.9095,-2.9387,-2.9387,-2.9085,-2.8646,-2.756,-2.7185,-2.6561,-2.6015,-2.5564,-2.5202,-2.5033,-2.492,-2.4835,-2.4791,-2.4734,-2.4706,-2.4649,-2.4591,-2.4563,-2.4549,-2.452,-2.4505,-2.4622,-2.5138,-2.5721,-2.6334,-2.6702,-2.6786,-2.6871,-2.7172,-2.742,-2.7474,-2.7813,-2.8085,-2.8112,-2.7936,-2.7868,-2.7759,-2.7786,-2.7746,-2.7773,-2.7746,-2.8003,-2.8184,-2.8261,-2.8347,-2.8605,-2.8605,-2.8651,-2.8748,-2.8812,-2.8972,-2.9035,-2.9099,-2.9131,-2.9194,-2.9289,-2.9509,-2.9758,-2.982,-2.9913,-3.0036,-3.0025,-2.9802,-2.9601,-2.9433,-2.9116,-2.8668,-2.8454,-2.8455,-2.8626,-2.8842,-2.9291,-2.9769,-2.9915,-2.9958,-2.9813,-2.9624,-2.961,-3.2619,-3.2284,-3.1984,-3.1838,-3.1819,-3.18,-3.167,-3.1604,-3.2076,-3.2553,-3.2848,-3.2949,-3.2966,-3.2933,-3.2628,-3.2594,-3.2662,-3.2814,-3.2848,-3.2679,-3.2459,-3.2299,-3.1804,-3.1248,-3.0662,-2.9874,-2.922,-2.8877,-2.8856,-2.8248,-2.8174,-2.8165,-2.8057,-2.8458,-2.9243,-2.9341,-2.9371,-2.9279,-2.8765,-2.8195,-2.775,-2.7414,-2.6733,-2.6217,-2.5674,-2.5258,-2.4948,-2.4806,-2.4721,-2.4607,-2.4578,-2.4549,-2.452,-2.4534,-2.4476,-2.4347,-2.4334,-2.4261,-2.421,-2.5109,-2.5542,-2.5751,-2.6004,-2.6307,-2.6583,-2.6779,-2.6776,-2.6789,-2.7009,-2.7009,-2.6928,-2.6942,-2.7037,-2.7091,-2.7176,-2.7203,-2.7226,-2.724,-2.7528,-2.7678,-2.7759,-2.7895,-2.8302,-2.8573,-2.8587,-2.8619,-2.8587,-2.8651,-2.8748,-2.8812,-2.8876,-2.8972,-2.9099,-2.932,-2.9509,-2.9352,-2.9415,-2.9571,-2.9678,-2.961,-2.9237,-2.888,-2.8464,-2.7879,-2.7741,-2.7737,-2.8052,-2.8411,-2.8568,-2.8652,-2.8927,-2.8999,-2.8869,-2.884,-2.8927,-3.2749,-3.2619,-3.2503,-3.2318,-3.2055,-3.1765,-3.1614,-3.1551,-3.1679,-3.1854,-3.1921,-3.1935,-3.1952,-3.1952,-3.2087,-3.2138,-3.2087,-3.1935,-3.1935,-3.2053,-3.2171,-3.1739,-3.1355,-3.1054,-3.0519,-2.9734,-2.8981,-2.8275,-2.7922,-2.7527,-2.7157,-2.7072,-2.7334,-2.7719,-2.8427,-2.875,-2.8735,-2.8695,-2.8495,-2.8275,-2.8008,-2.7373,-2.6794,-2.6334,-2.5646,-2.5118,-2.4806,-2.4692,-2.4578,-2.4421,-2.4405,-2.4376,-2.4332,-2.4316,-2.4258,-2.4187,-2.4187,-2.4203,-2.4245,-2.4646,-2.4744,-2.4965,-2.5157,-2.54,-2.5351,-2.5859,-2.5997,-2.6188,-2.6421,-2.6529,-2.682,-2.682,-2.686,-2.6874,-2.6915,-2.6901,-2.6915,-2.6901,-2.6996,-2.7081,-2.7149,-2.7416,-2.7796,-2.8243,-2.8365,-2.8505,-2.8519,-2.8573,-2.8651,-2.8651,-2.8683,-2.878,-2.8908,-2.9162,-2.9289,-2.9226,-2.9415,-2.9713,-2.9852,-2.9867,-2.9375,-2.8446,-2.7783,-2.7159,-2.7099,-2.7051,-2.7293,-2.7463,-2.7313,-2.7395,-2.7927,-2.8389,-2.8462,-2.8477,-2.855,-3.2968,-3.2952,-3.2842,-3.2635,-3.2335,-3.1966,-3.181,-3.1803,-3.172,-3.1743,-3.1989,-3.2019,-3.2053,-3.2036,-3.1952,-3.1952,-3.1968,-3.1985,-3.1985,-3.1968,-3.2002,-3.1762,-3.1308,-3.0761,-3.0194,-2.9401,-2.848,-2.7765,-2.7398,-2.6708,-2.651,-2.6503,-2.6364,-2.6903,-2.7488,-2.7626,-2.7626,-2.7611,-2.7495,-2.7561,-2.737,-2.7011,-2.6486,-2.6103,-2.555,-2.4935,-2.4692,-2.4549,-2.4434,-2.429,-2.4232,-2.4173,-2.4141,-2.4125,-2.4125,-2.4125,-2.4112,-2.4157,-2.4229,-2.4245,-2.434,-2.4326,-2.4334,-2.4463,-2.4618,-2.5108,-2.5069,-2.5255,-2.5754,-2.5775,-2.5825,-2.5895,-2.6175,-2.6161,-2.6148,-2.6091,-2.6077,-2.6007,-2.6142,-2.6239,-2.6455,-2.6823,-2.7232,-2.7751,-2.8071,-2.8283,-2.8451,-2.8519,-2.8573,-2.8587,-2.8587,-2.8651,-2.8716,-2.8908,-2.9067,-2.9131,-2.9401,-2.9837,-2.9795,-2.9631,-2.8603,-2.7563,-2.6989,-2.6547,-2.6491,-2.6462,-2.6454,-2.6504,-2.678,-2.7019,-2.7389,-2.7764,-2.8026,-2.8028,-2.7998,-3.3321,-3.3276,-3.297,-3.2813,-3.267,-3.2266,-3.2236,-3.2403,-3.2269,-3.2547,-3.3169,-3.2949,-3.278,-3.3068,-3.3136,-3.2966,-3.2747,-3.2814,-3.2679,-3.2679,-3.2138,-3.1698,-3.1157,-3.0743,-2.9825,-2.8748,-2.7834,-2.7289,-2.7015,-2.6221,-2.6033,-2.6118,-2.5933,-2.6118,-2.6241,-2.6265,-2.6403,-2.6657,-2.6765,-2.674,-2.6534,-2.6243,-2.577,-2.5411,-2.5025,-2.4647,-2.4418,-2.4255,-2.4218,-2.4157,-2.4112,-2.4112,-2.4125,-2.4125,-2.4125,-2.4125,-2.4125,-2.4112,-2.4141,-2.4141,-2.4141,-2.4157,-2.4274,-2.4476,-2.456,-2.4582,-2.4432,-2.436,-2.4648,-2.4298,-2.4116,-2.4562,-2.4976,-2.4947,-2.4934,-2.4891,-2.4862,-2.4943,-2.5101,-2.5288,-2.5555,-2.5918,-2.6482,-2.6996,-2.7512,-2.7813,-2.802,-2.8263,-2.8376,-2.8554,-2.8587,-2.8587,-2.8651,-2.8651,-2.878,-2.9035,-2.9257,-2.962,-2.9136,-2.8786,-2.7723,-2.6978,-2.6607,-2.6301,-2.602,-2.5975,-2.6258,-2.6486,-2.6688,-2.6941,-2.7113,-2.7157,-2.7459,-2.7273,-2.7186,-3.3666,-3.3652,-3.355,-3.3302,-3.2892,-3.2179,-3.1887,-3.189,-3.1635,-3.1681,-3.1816,-3.1833,-3.1985,-3.1833,-3.1833,-3.185,-3.1664,-3.1343,-3.1035,-3.0987,-3.092,-3.0194,-2.9822,-2.9632,-2.9001,-2.8274,-2.7421,-2.6716,-2.6098,-2.547,-2.4995,-2.4887,-2.5081,-2.5056,-2.5004,-2.4848,-2.5505,-2.5988,-2.6097,-2.5925,-2.5616,-2.5297,-2.4869,-2.4488,-2.4259,-2.3981,-2.3823,-2.3927,-2.3971,-2.406,-2.407,-2.4083,-2.4125,-2.4125,-2.4125,-2.4125,-2.4125,-2.4125,-2.4125,-2.4083,-2.4054,-2.3894,-2.378,-2.3881,-2.4028,-2.4057,-2.3839,-2.3679,-2.3783,-2.3653,-2.3623,-2.393,-2.4163,-2.4234,-2.4234,-2.4292,-2.4305,-2.4458,-2.4601,-2.4781,-2.5034,-2.5276,-2.5791,-2.6262,-2.6761,-2.7198,-2.7565,-2.7878,-2.8153,-2.8376,-2.8522,-2.8554,-2.8619,-2.8619,-2.8812,-2.9067,-2.9194,-2.9279,-2.8785,-2.8222,-2.7557,-2.6908,-2.6396,-2.605,-2.5813,-2.5975,-2.6297,-2.6445,-2.65,-2.6727,-2.6895,-2.6837,-2.6794,-2.6794,-2.6794,-3.3807,-3.3807,-3.3807,-3.3522,-3.3019,-3.2179,-3.1787,-3.1657,-3.1368,-3.119,-3.119,-3.1224,-3.119,-3.119,-3.097,-3.0784,-3.0734,-3.0142,-2.9803,-2.9685,-2.9162,-2.8924,-2.8704,-2.8466,-2.803,-2.7431,-2.6798,-2.6131,-2.546,-2.4823,-2.4343,-2.4374,-2.4281,-2.4281,-2.4337,-2.4434,-2.471,-2.5155,-2.5343,-2.5183,-2.4853,-2.4485,-2.4077,-2.3626,-2.342,-2.3298,-2.313,-2.3369,-2.3498,-2.3707,-2.3731,-2.3874,-2.4008,-2.4125,-2.4125,-2.4125,-2.4125,-2.4125,-2.4054,-2.3793,-2.3763,-2.3573,-2.316,-2.319,-2.3263,-2.3322,-2.295,-2.2665,-2.3058,-2.3327,-2.3374,-2.3433,-2.3551,-2.364,-2.3771,-2.3901,-2.4002,-2.4144,-2.4284,-2.4411,-2.4614,-2.48,-2.516,-2.5601,-2.6007,-2.6392,-2.6921,-2.7442,-2.7801,-2.8139,-2.8344,-2.843,-2.8541,-2.8619,-2.8844,-2.8871,-2.8779,-2.8719,-2.8349,-2.7814,-2.7268,-2.6714,-2.6114,-2.5854,-2.5689,-2.5921,-2.619,-2.6177,-2.6245,-2.65,-2.6727,-2.6659,-2.67,-2.6794,-2.6794,-3.3807,-3.3807,-3.378,-3.3407,-3.2927,-3.2159,-3.1704,-3.1503,-3.1025,-3.1038,-3.1038,-3.1072,-3.0954,-3.0615,-3.0243,-3.0023,-2.9786,-2.9245,-2.889,-2.8874,-2.8553,-2.8197,-2.7858,-2.7654,-2.7328,-2.6546,-2.5956,-2.5672,-2.4997,-2.4492,-2.4281,-2.4281,-2.4281,-2.4281,-2.4297,-2.4229,-2.4413,-2.452,-2.4478,-2.4257,-2.4186,-2.4019,-2.377,-2.3255,-2.305,-2.2896,-2.2524,-2.2467,-2.2624,-2.2975,-2.3223,-2.3404,-2.3744,-2.394,-2.394,-2.3894,-2.3835,-2.3907,-2.3835,-2.3603,-2.3399,-2.3088,-2.2573,-2.2604,-2.2695,-2.2586,-2.2206,-2.2329,-2.2725,-2.2847,-2.2877,-2.3386,-2.3666,-2.3682,-2.3771,-2.3754,-2.375,-2.391,-2.4171,-2.4268,-2.4324,-2.4481,-2.455,-2.4988,-2.5308,-2.5641,-2.6016,-2.6698,-2.7187,-2.7589,-2.794,-2.8126,-2.8403,-2.8468,-2.8505,-2.8506,-2.823,-2.8026,-2.769,-2.7244,-2.6587,-2.6147,-2.5773,-2.5601,-2.5481,-2.5784,-2.6015,-2.5988,-2.6096,-2.6433,-2.6566,-2.6539,-2.6566,-2.67,-2.6794,-3.3807,-3.378,-3.3484,-3.2903,-3.2137,-3.1388,-3.0681,-3.0023,-2.9683,-2.9873,-3.0277,-3.0311,-3.0074,-2.9651,-2.9414,-2.9245,-2.9076,-2.8484,-2.8145,-2.7909,-2.7672,-2.7503,-2.7063,-2.708,-2.6792,-2.6468,-2.5944,-2.5313,-2.4699,-2.4405,-2.4281,-2.4281,-2.4281,-2.4281,-2.4281,-2.4229,-2.4208,-2.4229,-2.4034,-2.3836,-2.3732,-2.3354,-2.2999,-2.2485,-2.2169,-2.2175,-2.1983,-2.2139,-2.2335,-2.257,-2.2596,-2.2897,-2.3352,-2.3363,-2.3636,-2.3835,-2.3327,-2.3484,-2.3586,-2.3442,-2.319,-2.313,-2.2798,-2.2421,-2.2132,-2.1865,-2.1846,-2.2125,-2.2279,-2.2279,-2.2463,-2.31,-2.3547,-2.3547,-2.3636,-2.3501,-2.3395,-2.3675,-2.3966,-2.4054,-2.4054,-2.4154,-2.421,-2.4354,-2.4633,-2.4882,-2.5135,-2.5599,-2.6108,-2.6572,-2.7195,-2.7517,-2.8093,-2.8258,-2.8174,-2.7859,-2.7443,-2.7081,-2.669,-2.6283,-2.5833,-2.5386,-2.4966,-2.5214,-2.5328,-2.5411,-2.5546,-2.5811,-2.5974,-2.627,-2.6338,-2.6231,-2.6406,-2.6527,-2.6674,-3.3054,-3.269,-3.2134,-3.1616,-3.1029,-3.035,-2.9729,-2.9315,-2.9083,-2.9008,-2.9142,-2.9397,-2.9347,-2.8874,-2.8653,-2.8467,-2.8332,-2.7655,-2.7402,-2.7148,-2.7029,-2.686,-2.6708,-2.6708,-2.6708,-2.6487,-2.5854,-2.5214,-2.4614,-2.4343,-2.4281,-2.4281,-2.4281,-2.4281,-2.4281,-2.4234,-2.4202,-2.4187,-2.3982,-2.3797,-2.3523,-2.3046,-2.2212,-2.1621,-2.1362,-2.14,-2.139,-2.1538,-2.1734,-2.2048,-2.2243,-2.2492,-2.288,-2.3085,-2.3328,-2.3499,-2.3368,-2.3173,-2.3322,-2.316,-2.2756,-2.2586,-2.2002,-2.1219,-2.1491,-2.123,-2.0892,-2.1071,-2.1103,-2.1135,-2.1135,-2.1628,-2.1678,-2.171,-2.2132,-2.2329,-2.2512,-2.2829,-2.3203,-2.3543,-2.3734,-2.4125,-2.4168,-2.4168,-2.439,-2.4495,-2.4704,-2.4966,-2.5376,-2.5616,-2.6232,-2.668,-2.7121,-2.7238,-2.6883,-2.6664,-2.644,-2.6077,-2.5697,-2.5113,-2.4598,-2.4353,-2.4191,-2.4368,-2.4546,-2.4641,-2.4831,-2.5106,-2.5631,-2.5973,-2.6001,-2.5934,-2.6138,-2.6299,-2.6367,-3.2019,-3.1263,-3.0636,-3.0125,-2.9823,-2.9231,-2.8847,-2.8672,-2.8671,-2.8281,-2.7841,-2.8399,-2.8671,-2.8416,-2.8044,-2.779,-2.7503,-2.7148,-2.6843,-2.6793,-2.6759,-2.6708,-2.6708,-2.6708,-2.6641,-2.6419,-2.5908,-2.537,-2.4823,-2.4614,-2.4426,-2.4323,-2.4281,-2.4281,-2.4261,-2.4234,-2.4223,-2.4166,-2.4046,-2.3903,-2.3421,-2.2838,-2.1988,-2.1299,-2.081,-2.0774,-2.0737,-2.0804,-2.1027,-2.1368,-2.1864,-2.2099,-2.2237,-2.2446,-2.2737,-2.2885,-2.2757,-2.2733,-2.2809,-2.2317,-2.1865,-2.1345,-2.0539,-2.0421,-2.0816,-2.0635,-2.0302,-2.0237,-2.0237,-2.0356,-2.0388,-2.0667,-2.07,-2.07,-2.1219,-2.1741,-2.207,-2.2421,-2.2816,-2.325,-2.3603,-2.4054,-2.4125,-2.4125,-2.4164,-2.4256,-2.4413,-2.4691,-2.4913,-2.4979,-2.5288,-2.547,-2.5695,-2.5668,-2.5654,-2.5486,-2.5356,-2.5059,-2.4639,-2.392,-2.3472,-2.3608,-2.3608,-2.3459,-2.3579,-2.3876,-2.4012,-2.423,-2.4803,-2.5476,-2.5449,-2.5449,-2.5811,-2.5962,-2.5935,-3.1391,-3.0953,-3.0484,-2.9735,-2.8836,-2.8374,-2.781,-2.7199,-2.7182,-2.7012,-2.7046,-2.7012,-2.7131,-2.7148,-2.7029,-2.6962,-2.7063,-2.6742,-2.6725,-2.6708,-2.6708,-2.6708,-2.6708,-2.6691,-2.6487,-2.6228,-2.5944,-2.5577,-2.4981,-2.4779,-2.4578,-2.4323,-2.4281,-2.4281,-2.4281,-2.4255,-2.4208,-2.413,-2.3982,-2.3839,-2.3392,-2.2934,-2.2649,-2.2049,-2.1516,-2.1118,-2.0823,-2.0699,-2.0739,-2.0949,-2.1251,-2.1511,-2.1625,-2.1676,-2.1891,-2.2011,-2.1905,-2.1789,-2.1629,-2.1544,-2.1206,-2.1282,-2.0764,-2.0539,-2.0635,-2.0345,-2.014,-2.0172,-2.0291,-2.0624,-2.0837,-2.1616,-2.1865,-2.1647,-2.1865,-2.239,-2.2859,-2.3113,-2.3454,-2.3645,-2.3806,-2.4054,-2.4125,-2.4125,-2.4125,-2.4178,-2.4191,-2.4413,-2.4439,-2.4452,-2.4517,-2.4498,-2.4514,-2.4633,-2.4832,-2.446,-2.4258,-2.3947,-2.3635,-2.3134,-2.2957,-2.3202,-2.3188,-2.2978,-2.3075,-2.3332,-2.3429,-2.3627,-2.3983,-2.458,-2.4745,-2.4884,-2.5327,-2.5563,-2.5494]},{"header":{"parameterUnit":"m.s-1","parameterCategory":1,"la1":31.0,"la2":29.5877,"lo1":-88.7671,"lo2":-86.6584,"dy":0.0162,"dx":0.0185,"nx":115,"ny":88,"refTime":"2023-06-30T18:00:00:Z","depth":0,"parameterNumber":3,"parameterNumberName":"V-component_of_WINDS"},"data":[0.0,0.0,0.0,0.0,0.0,0.0,0.0,0.0,0.0,0.0,0.0,0.0,0.0,0.0,0.0,0.0,0.0,0.0,0.0,0.0,0.0,0.0,0.0,0.0,0.0,0.0,0.0,0.0,0.0,0.0,0.0,0.0,0.0,0.0,0.0,0.0,0.0,0.0,0.0,0.0,0.0,0.0,0.0,0.0,0.0,0.0,0.0,0.0,0.0,0.0,0.0,0.0,0.0,0.0,0.0,0.0,0.0,0.0,0.0,0.0,0.0,0.0,0.0,0.0,0.0,0.0,0.0,0.0,0.0,0.0,0.0,0.0,0.0,0.0,0.0,0.0,0.0,0.0,0.0,0.0,0.0,0.0,0.0,0.0,0.0,0.0,0.0,0.0,0.0,0.0,0.0,0.0,0.0,0.0,0.0,0.0,0.0,0.0,0.0,0.0,0.0,0.0,0.0,0.0,0.0,0.0,0.0,0.0,0.0,0.0,0.0,0.0,0.0,0.0,0.0,0.0,0.0,0.0,0.0,0.0,0.0,0.0,0.0,0.0,0.0,0.0,0.0,0.0,0.0,0.0,0.0,0.0,0.0,0.0,0.0,0.0,0.0,0.0,0.0,0.0,0.0,0.0,0.0,0.0,0.0,0.0,0.0,0.0,0.0,0.0,0.0,0.0,0.0,0.0,0.0,0.0,0.0,0.0,0.0,0.0,0.0,0.0,0.0,0.0,0.0,0.0,0.0,0.0,0.0,0.0,0.0,0.0,0.0,0.0,0.0,0.0,0.0,0.0,0.0,0.0,0.0,0.0,0.0,0.0,0.0,0.0,0.0,0.0,0.0,0.0,0.0,0.0,0.0,0.0,0.0,0.0,0.0,0.0,0.0,0.0,0.0,0.0,0.0,0.0,0.0,0.0,0.0,0.0,0.0,0.0,0.0,0.0,0.0,0.0,0.0,0.0,0.0,0.0,0.0,0.0,0.0,0.0,0.0,0.0,0.0,0.0,0.0,0.0,0.0,0.0,0.0,0.0,0.0,0.0,0.0,0.0,0.0,0.0,0.0,0.0,0.0,0.0,0.0,0.0,0.0,0.0,0.0,0.0,0.0,0.0,0.0,0.0,0.0,0.0,0.0,0.0,0.0,0.0,0.0,0.0,0.0,0.0,0.0,0.0,0.0,0.0,0.0,0.0,0.0,0.0,0.0,0.0,0.0,0.0,0.0,0.0,0.0,0.0,0.0,0.0,0.0,0.0,0.0,0.0,0.0,0.0,0.0,0.0,0.0,0.0,0.0,0.0,0.0,0.0,0.0,0.0,0.0,0.0,0.0,0.0,0.0,0.0,0.0,0.0,0.0,0.0,0.0,0.0,0.0,0.0,0.0,0.0,0.0,0.0,0.0,0.0,0.0,0.0,0.0,0.0,0.0,0.0,0.0,0.0,0.0,0.0,0.0,0.0,0.0,0.0,0.0,0.0,0.0,0.0,0.0,0.0,0.0,0.0,0.0,0.0,0.0,0.0,0.0,0.0,0.0,0.0,0.0,0.0,0.0,0.0,0.0,0.0,0.0,0.0,0.0,0.0,0.0,0.0,0.0,0.0,0.0,0.0,0.0,0.0,0.0,0.0,0.0,0.0,0.0,0.0,0.0,0.0,0.0,0.0,0.0,0.0,0.0,0.0,0.0,0.0,0.0,0.0,0.0,0.0,0.0,0.0,0.0,0.0,0.0,0.0,0.0,0.0,0.0,0.0,0.0,0.0,0.0,0.0,0.0,0.0,0.0,0.0,0.0,0.0,0.0,0.0,0.0,0.0,0.0,0.0,0.0,0.0,0.0,0.0,0.0,0.0,0.0,0.0,0.0,0.0,0.0,0.0,0.0,0.0,0.0,0.0,0.0,0.0,0.0,0.0,0.0,0.0,0.0,0.0,0.0,0.0,0.0,0.0,0.0,0.0,0.0,0.0,0.0,0.0,0.0,0.0,0.0,0.0,0.0,0.0,0.0,0.0,0.0,0.0,0.0,0.0,0.0,0.0,0.0,0.0,0.0,0.0,0.0,0.0,0.0,0.0,0.0,0.0,0.0,0.0,0.0,0.0,0.0,0.0,0.0,0.0,0.0,0.0,0.0,0.0,0.0,0.0,0.0,0.0,0.0,0.0,0.0,0.0,0.0,0.0,0.0,0.0,0.0,0.0,0.0,0.0,0.0,0.0,0.0,0.0,0.0,0.0,0.0,0.0,0.0,0.0,0.0,0.0,0.0,0.0,0.0,0.0,0.0,0.0,0.0,0.0,0.0,0.0,0.0,0.0,0.0,0.0,0.0,0.0,0.0,0.0,0.0,0.0,0.0,0.0,0.0,0.0,0.0,0.0,0.0,0.0,0.0,0.0,0.0,0.0,0.0,0.0,0.0,0.0,0.0,0.0,0.0,0.0,0.0,0.0,0.0,0.0,0.0,0.0,0.0,0.0,0.0,0.0,0.0,0.0,0.0,0.0,0.0,0.0,0.0,0.0,0.0,0.0,0.0,0.0,0.0,0.0,0.0,0.0,0.0,0.0,0.0,0.0,0.0,0.0,0.0,0.0,0.0,0.0,0.0,0.0,0.0,0.0,0.0,0.0,0.0,0.0,0.0,0.0,0.0,0.0,0.0,0.0,0.0,0.0,0.0,0.0,0.0,0.0,0.0,0.0,0.0,0.0,0.0,0.0,0.0,0.0,0.0,0.0,0.0,0.0,0.0,0.0,0.0,0.0,0.0,0.0,0.0,0.0,0.0,0.0,0.0,0.0,0.0,0.0,0.0,0.0,0.0,0.0,0.0,0.0,0.0,0.0,0.0,0.0,0.0,0.0,0.0,0.0,0.0,0.0,0.0,0.0,0.0,0.0,0.0,0.0,0.0,0.0,0.0,0.0,0.0,0.0,0.0,0.0,0.0,0.0,0.0,0.0,0.0,0.0,0.0,0.0,0.0,0.0,0.0,0.0,0.0,0.0,0.0,0.0,0.0,0.0,0.0,0.0,0.0,0.0,0.0,0.0,0.0,0.0,0.0,0.0,0.0,0.0,0.0,0.0,0.0,0.0,0.0,0.0,0.0,0.0,0.0,0.0,0.0,0.0,0.0,0.0,0.0,0.0,0.0,0.0,0.0,0.0,0.0,0.0,0.0,0.0,0.0,0.0,0.0,0.0,0.0,0.0,0.0,0.0,0.0,0.0,0.0,0.0,0.0,0.0,0.0,0.0,0.0,0.0,0.0,0.0,0.0,0.0,0.0,0.0,0.0,0.0,0.0,0.0,0.0,0.0,0.0,0.0,0.0,0.0,0.0,0.0,0.0,0.0,0.0,0.0,0.0,0.0,0.0,0.0,0.0,0.0,0.0,0.0,0.0,0.0,0.0,0.0,0.0,0.0,0.0,0.0,0.0,0.0,0.0,0.0,0.0,0.0,0.0,0.0,0.0,0.0,0.0,0.0,0.0,0.0,0.0,0.0,0.0,0.0,0.0,0.0,0.0,0.0,0.0,0.0,0.0,0.0,0.0,0.0,0.0,0.0,0.0,0.0,0.0,0.0,0.0,0.0,0.0,0.0,0.0,0.0,0.0,0.0,0.0,0.0,0.0,0.0,0.0,0.0,0.0,0.0,0.0,0.0,0.0,0.0,0.0,0.0,0.0,0.0,0.0,0.0,0.0,0.0,0.0,0.0,0.0,0.0,0.0,0.0,0.0,0.0,0.0,0.0,0.0,0.0,0.0,0.0,0.0,0.0,0.0,0.0,0.0,0.0,0.0,0.0,0.0,0.0,0.0,0.0,0.0,0.0,0.0,0.0,0.0,0.0,0.0,0.0,0.0,0.0,0.0,0.0,0.0,0.0,0.0,0.0,0.0,0.0,0.0,0.0,0.0,0.0,0.0,0.0,0.0,0.0,0.0,0.0,0.0,0.0,0.0,0.0,0.0,0.0,0.0,0.0,0.0,0.0,0.0,0.0,0.0,0.0,0.0,0.0,0.0,0.0,0.0,0.0,0.0,0.0,0.0,0.0,0.0,0.0,0.0,0.0,0.0,0.0,0.0,0.0,0.0,0.0,0.0,0.0,0.0,0.0,0.0,0.0,0.0,0.0,0.0,0.0,0.0,0.0,0.0,0.0,0.0,0.0,0.0,0.0,0.0,0.0,0.0,0.0,0.0,0.0,0.0,0.0,0.0,0.0,0.0,0.0,0.0,0.0,0.0,0.0,0.0,0.0,0.0,0.0,0.0,0.0,0.0,0.0,0.0,0.0,0.0,0.0,-2.244,0.0,0.0,0.0,0.0,0.0,0.0,0.0,0.0,0.0,0.0,0.0,0.0,0.0,0.0,0.0,0.0,0.0,0.0,0.0,0.0,0.0,0.0,0.0,0.0,0.0,0.0,0.0,0.0,0.0,0.0,0.0,0.0,0.0,0.0,0.0,0.0,0.0,0.0,0.0,0.0,0.0,0.0,0.0,0.0,0.0,0.0,0.0,0.0,0.0,0.0,0.0,0.0,0.0,0.0,0.0,0.0,0.0,0.0,0.0,0.0,0.0,0.0,0.0,0.0,0.0,0.0,0.0,0.0,0.0,0.0,0.0,0.0,0.0,0.0,0.0,0.0,0.0,0.0,0.0,0.0,0.0,0.0,0.0,0.0,0.0,0.0,0.0,0.0,0.0,0.0,0.0,0.0,0.0,0.0,0.0,0.0,0.0,0.0,0.0,0.0,0.0,0.0,0.0,0.0,0.0,0.0,0.0,0.0,0.0,0.0,-2.1959,-2.1731,-2.1721,-2.1807,-2.1921,0.0,0.0,0.0,0.0,0.0,0.0,0.0,0.0,0.0,0.0,0.0,0.0,0.0,0.0,0.0,0.0,0.0,0.0,0.0,0.0,0.0,0.0,0.0,0.0,0.0,0.0,0.0,0.0,0.0,0.0,0.0,0.0,0.0,0.0,0.0,0.0,0.0,0.0,0.0,0.0,0.0,0.0,0.0,0.0,0.0,0.0,0.0,0.0,0.0,0.0,0.0,0.0,0.0,0.0,0.0,0.0,0.0,0.0,0.0,0.0,0.0,0.0,0.0,0.0,0.0,0.0,0.0,0.0,0.0,0.0,0.0,0.0,0.0,0.0,0.0,0.0,0.0,0.0,0.0,0.0,0.0,0.0,0.0,0.0,0.0,0.0,0.0,0.0,0.0,0.0,0.0,0.0,0.0,0.0,0.0,0.0,0.0,0.0,0.0,0.0,0.0,0.0,0.0,0.0,0.0,0.0,0.0,0.0,0.0,0.0,0.0,0.0,-2.1128,-2.1294,-2.1665,0.0,0.0,0.0,0.0,0.0,0.0,0.0,0.0,0.0,0.0,0.0,0.0,0.0,0.0,0.0,0.0,0.0,0.0,0.0,0.0,0.0,0.0,0.0,0.0,0.0,0.0,0.0,0.0,0.0,0.0,0.0,0.0,0.0,0.0,0.0,0.0,0.0,0.0,0.0,0.0,0.0,0.0,0.0,0.0,0.0,0.0,0.0,0.0,0.0,0.0,0.0,0.0,0.0,0.0,0.0,0.0,0.0,0.0,0.0,0.0,0.0,0.0,0.0,0.0,0.0,0.0,0.0,0.0,0.0,0.0,0.0,0.0,0.0,0.0,0.0,0.0,0.0,0.0,0.0,0.0,0.0,0.0,0.0,0.0,0.0,0.0,0.0,0.0,0.0,0.0,0.0,0.0,0.0,0.0,0.0,0.0,0.0,0.0,0.0,0.0,0.0,0.0,0.0,0.0,0.0,0.0,0.0,0.0,0.0,0.0,-2.0867,-2.0683,-2.0838,0.0,-2.2104,0.0,0.0,0.0,0.0,0.0,0.0,0.0,0.0,0.0,0.0,0.0,0.0,0.0,0.0,0.0,0.0,0.0,0.0,0.0,0.0,0.0,0.0,0.0,0.0,0.0,0.0,0.0,0.0,0.0,0.0,0.0,0.0,0.0,0.0,0.0,0.0,0.0,0.0,0.0,0.0,0.0,0.0,0.0,0.0,0.0,0.0,0.0,0.0,0.0,0.0,0.0,0.0,0.0,0.0,0.0,0.0,0.0,0.0,0.0,0.0,0.0,0.0,0.0,0.0,0.0,0.0,0.0,0.0,0.0,0.0,0.0,0.0,0.0,0.0,0.0,0.0,0.0,0.0,0.0,0.0,0.0,0.0,0.0,0.0,0.0,0.0,0.0,0.0,0.0,0.0,0.0,0.0,0.0,0.0,0.0,0.0,0.0,0.0,0.0,0.0,0.0,0.0,0.0,0.0,0.0,0.0,0.0,0.0,0.0,0.0,-2.0216,-2.0029,-2.0683,-2.1422,0.0,0.0,0.0,0.0,0.0,0.0,0.0,0.0,0.0,0.0,0.0,0.0,0.0,0.0,0.0,0.0,0.0,0.0,0.0,0.0,0.0,0.0,0.0,0.0,0.0,0.0,0.0,0.0,0.0,0.0,0.0,0.0,0.0,0.0,0.0,0.0,0.0,0.0,0.0,0.0,0.0,0.0,0.0,0.0,0.0,0.0,0.0,0.0,0.0,0.0,0.0,0.0,0.0,0.0,0.0,0.0,0.0,0.0,0.0,0.0,0.0,0.0,0.0,0.0,0.0,0.0,0.0,0.0,0.0,0.0,0.0,0.0,0.0,0.0,0.0,0.0,0.0,0.0,0.0,0.0,0.0,0.0,0.0,0.0,0.0,0.0,0.0,0.0,0.0,0.0,0.0,0.0,0.0,0.0,0.0,0.0,0.0,0.0,0.0,0.0,0.0,0.0,0.0,0.0,0.0,0.0,0.0,0.0,0.0,0.0,-1.9745,-1.9564,-1.9663,-2.0623,-2.1535,-2.2239,0.0,0.0,0.0,0.0,0.0,0.0,0.0,0.0,0.0,0.0,0.0,0.0,0.0,0.0,0.0,0.0,0.0,0.0,0.0,0.0,0.0,0.0,0.0,0.0,0.0,0.0,0.0,0.0,0.0,0.0,0.0,0.0,0.0,0.0,0.0,0.0,0.0,0.0,0.0,0.0,0.0,0.0,0.0,0.0,0.0,0.0,0.0,0.0,0.0,0.0,0.0,0.0,0.0,0.0,0.0,0.0,0.0,0.0,0.0,0.0,0.0,0.0,0.0,0.0,0.0,0.0,0.0,0.0,0.0,0.0,0.0,0.0,0.0,0.0,0.0,0.0,0.0,0.0,0.0,0.0,0.0,0.0,0.0,0.0,0.0,0.0,0.0,0.0,0.0,0.0,0.0,0.0,0.0,0.0,0.0,0.0,0.0,0.0,0.0,0.0,0.0,0.0,0.0,0.0,0.0,0.0,0.0,0.0,-1.9648,-1.9054,-1.9004,-1.9602,-2.0598,-2.1536,0.0,0.0,0.0,0.0,0.0,0.0,0.0,0.0,0.0,0.0,0.0,0.0,0.0,0.0,0.0,0.0,0.0,0.0,0.0,0.0,0.0,0.0,0.0,0.0,0.0,0.0,0.0,0.0,0.0,0.0,0.0,0.0,0.0,0.0,0.0,0.0,0.0,0.0,0.0,0.0,0.0,0.0,0.0,0.0,0.0,0.0,0.0,0.0,0.0,0.0,0.0,0.0,0.0,0.0,0.0,0.0,0.0,0.0,0.0,0.0,0.0,0.0,0.0,0.0,0.0,0.0,0.0,0.0,0.0,0.0,0.0,0.0,0.0,0.0,0.0,0.0,0.0,0.0,0.0,0.0,0.0,0.0,0.0,0.0,0.0,0.0,0.0,0.0,0.0,0.0,0.0,0.0,0.0,0.0,0.0,0.0,0.0,0.0,0.0,0.0,0.0,0.0,0.0,0.0,0.0,0.0,0.0,0.0,0.0,-1.9063,-1.8621,-1.8807,-1.9617,-2.0443,-2.1376,0.0,0.0,0.0,0.0,0.0,0.0,0.0,0.0,0.0,0.0,0.0,0.0,0.0,0.0,0.0,0.0,0.0,0.0,0.0,0.0,0.0,0.0,0.0,0.0,0.0,0.0,0.0,0.0,0.0,0.0,0.0,0.0,0.0,0.0,0.0,0.0,0.0,0.0,0.0,0.0,0.0,0.0,0.0,0.0,0.0,0.0,0.0,0.0,0.0,0.0,0.0,0.0,0.0,0.0,0.0,0.0,0.0,0.0,0.0,0.0,0.0,0.0,0.0,0.0,0.0,0.0,0.0,0.0,0.0,0.0,0.0,0.0,0.0,0.0,0.0,0.0,0.0,0.0,0.0,0.0,0.0,0.0,0.0,0.0,0.0,0.0,0.0,0.0,0.0,0.0,0.0,0.0,0.0,0.0,0.0,0.0,0.0,0.0,0.0,0.0,0.0,0.0,0.0,0.0,0.0,0.0,0.0,0.0,0.0,-1.8374,0.0,-1.8809,-1.9596,-2.0369,-2.1271,0.0,0.0,0.0,0.0,0.0,0.0,0.0,0.0,0.0,0.0,0.0,0.0,0.0,0.0,0.0,0.0,0.0,0.0,0.0,0.0,0.0,0.0,0.0,0.0,0.0,0.0,0.0,0.0,0.0,0.0,0.0,0.0,0.0,0.0,0.0,0.0,0.0,0.0,0.0,0.0,0.0,0.0,0.0,0.0,0.0,0.0,0.0,0.0,0.0,0.0,0.0,0.0,0.0,0.0,0.0,0.0,0.0,0.0,0.0,0.0,0.0,0.0,0.0,0.0,0.0,0.0,0.0,0.0,0.0,0.0,0.0,0.0,0.0,0.0,0.0,0.0,0.0,0.0,0.0,0.0,0.0,0.0,0.0,0.0,0.0,0.0,0.0,0.0,0.0,0.0,0.0,0.0,0.0,0.0,0.0,0.0,0.0,0.0,0.0,0.0,0.0,0.0,0.0,0.0,0.0,0.0,0.0,0.0,-1.8554,-1.7692,-1.8507,-1.9082,-1.9434,-2.0266,-2.1141,0.0,0.0,0.0,0.0,0.0,0.0,0.0,0.0,0.0,0.0,0.0,0.0,0.0,0.0,0.0,0.0,0.0,0.0,0.0,0.0,0.0,0.0,0.0,0.0,0.0,0.0,0.0,0.0,0.0,0.0,0.0,0.0,0.0,0.0,0.0,0.0,0.0,0.0,0.0,0.0,0.0,0.0,0.0,0.0,0.0,0.0,0.0,0.0,0.0,0.0,0.0,0.0,0.0,0.0,0.0,0.0,0.0,0.0,0.0,0.0,0.0,0.0,0.0,0.0,0.0,0.0,0.0,0.0,0.0,0.0,0.0,0.0,0.0,0.0,0.0,0.0,0.0,0.0,0.0,0.0,0.0,0.0,0.0,0.0,0.0,0.0,0.0,0.0,0.0,0.0,0.0,0.0,0.0,0.0,0.0,0.0,0.0,0.0,0.0,0.0,0.0,0.0,0.0,0.0,0.0,0.0,0.0,0.0,0.0,-1.8285,-1.8406,-1.8828,-1.9533,-2.0096,-2.088,0.0,0.0,0.0,0.0,0.0,0.0,0.0,0.0,0.0,0.0,0.0,0.0,0.0,0.0,0.0,0.0,0.0,0.0,0.0,0.0,0.0,0.0,0.0,0.0,0.0,0.0,0.0,0.0,0.0,0.0,0.0,0.0,0.0,0.0,0.0,0.0,0.0,0.0,0.0,0.0,0.0,0.0,0.0,0.0,0.0,0.0,0.0,0.0,0.0,0.0,0.0,0.0,0.0,0.0,0.0,0.0,0.0,0.0,0.0,0.0,0.0,0.0,0.0,0.0,0.0,0.0,0.0,0.0,0.0,0.0,0.0,0.0,0.0,0.0,0.0,0.0,0.0,0.0,0.0,0.0,0.0,0.0,0.0,0.0,0.0,0.0,0.0,0.0,0.0,0.0,0.0,0.0,0.0,0.0,0.0,0.0,0.0,0.0,0.0,0.0,0.0,0.0,0.0,0.0,0.0,0.0,0.0,0.0,0.0,-1.8539,-1.8464,-1.8696,-1.9425,-1.992,-2.0645,-2.1642,0.0,0.0,0.0,0.0,0.0,0.0,0.0,0.0,0.0,0.0,0.0,0.0,0.0,0.0,0.0,0.0,0.0,0.0,0.0,0.0,0.0,0.0,0.0,0.0,0.0,0.0,0.0,0.0,0.0,0.0,0.0,0.0,0.0,0.0,0.0,0.0,0.0,0.0,0.0,0.0,0.0,0.0,0.0,0.0,0.0,0.0,0.0,0.0,0.0,0.0,0.0,0.0,0.0,0.0,0.0,0.0,0.0,0.0,0.0,0.0,0.0,0.0,0.0,0.0,0.0,0.0,0.0,0.0,0.0,0.0,0.0,0.0,0.0,0.0,0.0,0.0,0.0,0.0,0.0,0.0,0.0,0.0,0.0,0.0,0.0,0.0,0.0,0.0,0.0,0.0,0.0,0.0,0.0,0.0,0.0,0.0,0.0,0.0,0.0,0.0,0.0,0.0,0.0,0.0,0.0,0.0,0.0,0.0,-1.8481,-1.8481,-1.8651,-1.9142,-1.9629,-2.0439,0.0,0.0,0.0,0.0,0.0,0.0,0.0,0.0,0.0,0.0,0.0,0.0,0.0,0.0,0.0,0.0,0.0,0.0,0.0,0.0,0.0,0.0,0.0,0.0,0.0,0.0,0.0,0.0,0.0,0.0,0.0,0.0,0.0,0.0,0.0,0.0,0.0,0.0,0.0,0.0,0.0,0.0,0.0,0.0,0.0,0.0,0.0,0.0,0.0,0.0,0.0,0.0,0.0,0.0,0.0,0.0,0.0,0.0,0.0,0.0,0.0,0.0,0.0,0.0,0.0,0.0,0.0,0.0,0.0,0.0,0.0,0.0,0.0,0.0,0.0,0.0,0.0,0.0,0.0,0.0,0.0,0.0,0.0,0.0,0.0,0.0,0.0,0.0,0.0,0.0,0.0,0.0,0.0,0.0,0.0,0.0,0.0,0.0,0.0,0.0,0.0,0.0,0.0,0.0,0.0,0.0,0.0,0.0,0.0,-1.821,-1.8001,-1.8141,-1.8681,-1.9492,-2.0303,0.0,0.0,0.0,0.0,0.0,0.0,0.0,0.0,0.0,0.0,0.0,0.0,0.0,0.0,0.0,0.0,0.0,0.0,0.0,0.0,0.0,0.0,0.0,0.0,0.0,0.0,0.0,0.0,0.0,0.0,0.0,0.0,0.0,0.0,0.0,0.0,0.0,0.0,0.0,0.0,0.0,0.0,0.0,0.0,0.0,0.0,0.0,0.0,0.0,0.0,0.0,0.0,0.0,0.0,0.0,0.0,0.0,0.0,0.0,0.0,0.0,0.0,0.0,0.0,0.0,0.0,0.0,0.0,0.0,0.0,0.0,0.0,0.0,0.0,0.0,0.0,0.0,0.0,0.0,0.0,0.0,0.0,0.0,0.0,0.0,0.0,0.0,0.0,0.0,0.0,0.0,0.0,0.0,0.0,0.0,0.0,0.0,0.0,0.0,0.0,0.0,0.0,0.0,0.0,0.0,0.0,0.0,0.0,-1.8118,-1.7947,-1.7675,-1.7667,-1.7978,-1.9117,-2.0121,0.0,0.0,0.0,0.0,0.0,0.0,0.0,0.0,0.0,0.0,0.0,0.0,0.0,0.0,0.0,0.0,0.0,0.0,0.0,0.0,0.0,0.0,0.0,0.0,0.0,0.0,0.0,0.0,0.0,0.0,0.0,0.0,0.0,0.0,0.0,0.0,0.0,0.0,0.0,0.0,0.0,0.0,0.0,0.0,0.0,0.0,0.0,0.0,0.0,0.0,0.0,0.0,0.0,0.0,0.0,0.0,0.0,0.0,0.0,0.0,0.0,0.0,0.0,0.0,0.0,0.0,0.0,0.0,0.0,0.0,0.0,0.0,0.0,0.0,0.0,0.0,0.0,0.0,0.0,0.0,0.0,0.0,0.0,0.0,0.0,0.0,0.0,0.0,0.0,0.0,0.0,0.0,0.0,0.0,0.0,0.0,0.0,0.0,0.0,0.0,0.0,0.0,0.0,0.0,0.0,0.0,0.0,0.0,-1.7994,-1.7721,-1.752,-1.7466,-1.7512,-1.8796,-1.9948,0.0,0.0,0.0,0.0,0.0,0.0,0.0,0.0,0.0,0.0,0.0,0.0,0.0,0.0,0.0,0.0,0.0,0.0,0.0,0.0,0.0,0.0,0.0,0.0,0.0,0.0,0.0,0.0,0.0,0.0,0.0,0.0,0.0,0.0,0.0,0.0,0.0,0.0,0.0,0.0,0.0,0.0,0.0,0.0,0.0,0.0,0.0,0.0,0.0,0.0,0.0,0.0,0.0,0.0,0.0,0.0,0.0,0.0,0.0,0.0,0.0,0.0,0.0,0.0,0.0,0.0,0.0,0.0,0.0,0.0,0.0,0.0,0.0,0.0,0.0,0.0,0.0,0.0,0.0,0.0,0.0,0.0,0.0,0.0,0.0,0.0,0.0,0.0,0.0,0.0,0.0,0.0,0.0,0.0,0.0,0.0,0.0,0.0,0.0,0.0,0.0,0.0,0.0,0.0,0.0,0.0,0.0,0.0,-1.7947,-1.7721,-1.821,-1.8473,-1.8473,-1.9117,-1.9758,0.0,0.0,0.0,0.0,0.0,0.0,0.0,0.0,0.0,0.0,0.0,0.0,0.0,0.0,0.0,0.0,0.0,0.0,0.0,0.0,0.0,0.0,0.0,0.0,0.0,0.0,0.0,0.0,0.0,0.0,0.0,0.0,0.0,0.0,0.0,0.0,0.0,0.0,0.0,0.0,0.0,0.0,0.0,0.0,0.0,0.0,0.0,0.0,-2.74,0.0,0.0,0.0,0.0,0.0,0.0,0.0,0.0,0.0,0.0,0.0,0.0,0.0,0.0,0.0,0.0,0.0,0.0,0.0,0.0,0.0,0.0,0.0,0.0,0.0,0.0,0.0,0.0,0.0,0.0,0.0,0.0,0.0,0.0,0.0,0.0,0.0,0.0,0.0,0.0,0.0,0.0,0.0,0.0,0.0,0.0,0.0,0.0,0.0,0.0,0.0,0.0,0.0,0.0,0.0,0.0,0.0,0.0,0.0,-1.7768,-1.7527,-1.7878,-1.8334,-1.8796,-1.9392,-2.0068,0.0,0.0,0.0,0.0,0.0,0.0,0.0,0.0,0.0,0.0,0.0,0.0,0.0,0.0,0.0,0.0,0.0,0.0,0.0,0.0,0.0,0.0,0.0,0.0,0.0,0.0,0.0,0.0,0.0,0.0,0.0,0.0,0.0,0.0,0.0,0.0,0.0,0.0,0.0,0.0,0.0,0.0,0.0,0.0,0.0,0.0,0.0,0.0,0.0,0.0,0.0,0.0,0.0,0.0,0.0,0.0,0.0,0.0,0.0,0.0,0.0,0.0,0.0,0.0,0.0,0.0,0.0,0.0,0.0,0.0,0.0,0.0,0.0,0.0,0.0,0.0,0.0,0.0,0.0,0.0,0.0,0.0,0.0,0.0,0.0,0.0,0.0,0.0,0.0,0.0,0.0,0.0,0.0,0.0,0.0,0.0,0.0,0.0,0.0,0.0,0.0,0.0,0.0,0.0,0.0,0.0,0.0,-1.7861,-1.7714,-1.7559,-1.7692,-1.8241,-1.9193,-1.9977,-2.0836,-2.1882,0.0,0.0,0.0,0.0,0.0,0.0,0.0,0.0,0.0,0.0,0.0,0.0,0.0,0.0,0.0,0.0,0.0,0.0,0.0,0.0,0.0,0.0,0.0,0.0,0.0,0.0,0.0,0.0,0.0,0.0,0.0,0.0,0.0,0.0,0.0,0.0,0.0,0.0,-2.3144,-2.3276,0.0,0.0,0.0,0.0,0.0,0.0,0.0,0.0,-2.6185,0.0,0.0,0.0,0.0,0.0,0.0,0.0,0.0,0.0,0.0,0.0,0.0,0.0,0.0,0.0,0.0,0.0,0.0,0.0,0.0,0.0,0.0,0.0,0.0,0.0,0.0,0.0,0.0,0.0,0.0,0.0,0.0,0.0,0.0,0.0,0.0,0.0,0.0,0.0,0.0,0.0,0.0,0.0,0.0,0.0,0.0,0.0,0.0,0.0,0.0,0.0,0.0,0.0,0.0,0.0,0.0,-1.7768,-1.7947,-1.8172,-1.8565,-1.933,-2.0187,-2.1195,-2.2094,-2.2687,-2.2862,0.0,0.0,0.0,0.0,0.0,0.0,0.0,0.0,0.0,0.0,0.0,0.0,0.0,0.0,0.0,0.0,0.0,0.0,0.0,0.0,0.0,0.0,0.0,0.0,0.0,0.0,0.0,0.0,0.0,0.0,0.0,0.0,0.0,0.0,0.0,0.0,0.0,0.0,0.0,-2.3144,-2.3242,0.0,0.0,0.0,0.0,0.0,0.0,0.0,0.0,-2.6091,0.0,0.0,0.0,0.0,0.0,0.0,0.0,0.0,0.0,0.0,0.0,0.0,0.0,0.0,0.0,0.0,0.0,0.0,0.0,0.0,0.0,0.0,0.0,0.0,0.0,0.0,0.0,0.0,0.0,0.0,0.0,0.0,0.0,0.0,0.0,0.0,0.0,0.0,0.0,0.0,0.0,0.0,0.0,0.0,0.0,0.0,0.0,0.0,0.0,0.0,0.0,0.0,0.0,0.0,0.0,-1.7955,-1.8265,-1.8573,-1.8834,-1.9695,-2.0683,-2.165,-2.2148,-2.2687,0.0,0.0,0.0,0.0,0.0,0.0,0.0,0.0,0.0,0.0,0.0,0.0,0.0,0.0,0.0,0.0,0.0,0.0,0.0,0.0,0.0,0.0,0.0,0.0,0.0,0.0,0.0,0.0,0.0,0.0,0.0,0.0,0.0,0.0,0.0,0.0,0.0,0.0,0.0,0.0,-2.3101,-2.3135,-2.3276,0.0,0.0,0.0,0.0,0.0,0.0,-2.5548,-2.5862,0.0,0.0,0.0,0.0,0.0,0.0,0.0,0.0,0.0,0.0,0.0,0.0,0.0,0.0,0.0,0.0,0.0,0.0,0.0,0.0,0.0,0.0,0.0,0.0,0.0,0.0,0.0,0.0,0.0,0.0,0.0,0.0,0.0,0.0,0.0,0.0,0.0,0.0,0.0,0.0,0.0,0.0,0.0,0.0,0.0,0.0,0.0,0.0,0.0,0.0,0.0,0.0,0.0,0.0,0.0,-1.8311,-1.864,-1.8999,-1.9376,-2.0096,-2.0962,-2.1917,-2.1887,-2.2334,0.0,0.0,0.0,0.0,0.0,0.0,0.0,0.0,0.0,0.0,0.0,0.0,0.0,0.0,0.0,0.0,0.0,0.0,0.0,0.0,0.0,0.0,0.0,0.0,0.0,0.0,0.0,0.0,0.0,0.0,0.0,0.0,0.0,0.0,0.0,0.0,0.0,0.0,0.0,0.0,0.0,-2.2969,-2.3057,-2.355,0.0,0.0,0.0,0.0,-2.5072,-2.5451,0.0,0.0,0.0,0.0,0.0,0.0,0.0,0.0,0.0,0.0,0.0,0.0,0.0,0.0,0.0,0.0,0.0,0.0,0.0,0.0,0.0,0.0,0.0,0.0,0.0,0.0,0.0,0.0,0.0,0.0,0.0,0.0,0.0,0.0,0.0,0.0,0.0,0.0,0.0,0.0,0.0,0.0,0.0,0.0,0.0,0.0,0.0,0.0,0.0,0.0,0.0,0.0,0.0,0.0,0.0,0.0,-1.9026,-1.8827,-1.9566,-2.1266,-2.1463,-2.1971,-2.2906,-2.2611,-2.2535,0.0,0.0,0.0,0.0,0.0,0.0,0.0,0.0,0.0,0.0,0.0,0.0,0.0,0.0,0.0,0.0,0.0,0.0,0.0,0.0,0.0,0.0,0.0,0.0,0.0,0.0,0.0,0.0,0.0,0.0,0.0,0.0,0.0,0.0,0.0,0.0,0.0,0.0,0.0,0.0,0.0,-2.2564,-2.2794,-2.3204,-2.3599,0.0,0.0,-2.4539,-2.4792,-2.5017,0.0,0.0,0.0,0.0,0.0,0.0,0.0,0.0,0.0,0.0,0.0,0.0,0.0,0.0,0.0,0.0,0.0,0.0,0.0,0.0,0.0,0.0,0.0,0.0,0.0,0.0,0.0,0.0,0.0,0.0,0.0,0.0,0.0,0.0,0.0,0.0,0.0,0.0,0.0,0.0,0.0,0.0,0.0,0.0,0.0,0.0,0.0,0.0,0.0,0.0,0.0,0.0,0.0,0.0,0.0,-1.8897,-1.9567,-2.014,-2.0811,-2.1686,-2.2192,-2.2687,-2.3091,-2.2734,-2.268,0.0,0.0,0.0,0.0,0.0,0.0,0.0,0.0,0.0,0.0,0.0,0.0,0.0,0.0,0.0,0.0,0.0,0.0,0.0,0.0,0.0,0.0,0.0,0.0,0.0,0.0,0.0,0.0,0.0,0.0,0.0,0.0,0.0,0.0,0.0,0.0,0.0,0.0,0.0,0.0,0.0,0.0,-2.2872,-2.3635,0.0,0.0,0.0,-2.4967,-2.5449,0.0,0.0,0.0,0.0,0.0,0.0,0.0,0.0,0.0,0.0,0.0,0.0,0.0,0.0,0.0,0.0,0.0,0.0,0.0,0.0,0.0,0.0,0.0,0.0,0.0,0.0,0.0,0.0,0.0,0.0,0.0,0.0,0.0,0.0,0.0,0.0,0.0,0.0,0.0,0.0,0.0,0.0,0.0,0.0,0.0,0.0,0.0,0.0,0.0,0.0,0.0,0.0,0.0,0.0,0.0,0.0,0.0,-2.0257,-2.115,-2.1727,-2.205,-2.2731,-2.3101,-2.3091,-2.2682,0.0,0.0,0.0,0.0,0.0,0.0,0.0,0.0,0.0,0.0,0.0,0.0,0.0,0.0,0.0,0.0,0.0,0.0,0.0,0.0,0.0,0.0,0.0,0.0,0.0,0.0,0.0,-2.2927,0.0,0.0,0.0,0.0,0.0,0.0,0.0,0.0,0.0,0.0,0.0,0.0,0.0,0.0,-2.2866,-2.3002,-2.3926,-2.466,0.0,0.0,-2.5447,-2.5906,-2.5737,-2.5862,0.0,0.0,0.0,0.0,0.0,0.0,0.0,0.0,0.0,0.0,0.0,0.0,0.0,0.0,0.0,0.0,0.0,0.0,0.0,0.0,0.0,0.0,0.0,0.0,0.0,0.0,0.0,0.0,0.0,0.0,0.0,0.0,0.0,0.0,0.0,0.0,0.0,0.0,0.0,0.0,0.0,0.0,0.0,0.0,0.0,0.0,0.0,0.0,0.0,0.0,0.0,0.0,0.0,0.0,-1.9834,-2.1239,-2.124,-2.1808,-2.294,-2.3047,-2.3101,-2.3091,-2.2734,-2.2493,0.0,0.0,0.0,0.0,0.0,0.0,0.0,0.0,0.0,0.0,0.0,0.0,0.0,0.0,0.0,0.0,0.0,0.0,0.0,0.0,0.0,0.0,0.0,0.0,0.0,0.0,0.0,0.0,0.0,0.0,0.0,0.0,0.0,0.0,0.0,0.0,0.0,0.0,0.0,0.0,0.0,-2.2556,-2.3021,-2.3795,-2.4517,0.0,-2.542,-2.5713,-2.5732,-2.5703,-2.6022,-2.6999,0.0,0.0,0.0,0.0,0.0,0.0,0.0,0.0,0.0,0.0,0.0,0.0,0.0,0.0,0.0,0.0,0.0,0.0,0.0,0.0,0.0,0.0,0.0,0.0,0.0,0.0,0.0,0.0,0.0,0.0,0.0,0.0,0.0,0.0,0.0,0.0,0.0,0.0,0.0,0.0,0.0,0.0,0.0,0.0,0.0,0.0,0.0,0.0,0.0,0.0,0.0,0.0,0.0,-2.0935,-2.182,-2.2174,-2.2611,-2.3081,-2.3101,-2.3101,-2.3101,-2.2691,-2.2473,0.0,0.0,0.0,0.0,0.0,0.0,0.0,0.0,0.0,0.0,0.0,0.0,0.0,0.0,0.0,0.0,0.0,0.0,0.0,0.0,0.0,0.0,0.0,0.0,0.0,0.0,0.0,0.0,-2.2105,-2.1876,-2.184,0.0,0.0,0.0,0.0,0.0,0.0,0.0,0.0,0.0,0.0,-2.3205,-2.3326,-2.4793,0.0,0.0,-2.5914,-2.6514,-2.6255,-2.6169,-2.6582,-2.7762,-2.8222,0.0,0.0,0.0,0.0,0.0,0.0,0.0,0.0,0.0,0.0,0.0,0.0,0.0,0.0,0.0,0.0,0.0,0.0,0.0,0.0,0.0,0.0,0.0,0.0,0.0,0.0,0.0,0.0,0.0,0.0,0.0,0.0,0.0,0.0,0.0,0.0,0.0,0.0,0.0,0.0,0.0,0.0,0.0,0.0,0.0,0.0,0.0,0.0,0.0,0.0,0.0,0.0,-2.1624,-2.2106,-2.275,-2.3101,-2.3101,-2.3101,-2.3101,-2.3091,-2.2808,-2.267,0.0,0.0,0.0,0.0,0.0,0.0,0.0,0.0,0.0,0.0,0.0,0.0,0.0,0.0,0.0,0.0,0.0,0.0,0.0,0.0,0.0,0.0,0.0,0.0,0.0,0.0,0.0,0.0,-2.2613,-2.2473,-2.2519,0.0,0.0,0.0,0.0,0.0,0.0,0.0,0.0,0.0,0.0,-2.4098,-2.402,-2.565,-2.6552,-2.5654,-2.6456,-2.7125,-2.686,-2.6822,-2.7241,-2.843,0.0,0.0,0.0,0.0,0.0,0.0,0.0,0.0,0.0,0.0,0.0,0.0,0.0,0.0,0.0,0.0,0.0,0.0,0.0,0.0,0.0,0.0,0.0,0.0,0.0,0.0,0.0,-1.8087,0.0,0.0,-1.8781,0.0,0.0,0.0,0.0,0.0,0.0,0.0,0.0,0.0,0.0,0.0,0.0,0.0,0.0,0.0,0.0,0.0,0.0,0.0,0.0,0.0,0.0,-2.1624,-2.2087,-2.275,-2.3101,-2.3101,-2.3101,-2.3101,-2.3101,-2.3091,-2.3006,-2.2829,0.0,0.0,0.0,0.0,0.0,0.0,0.0,0.0,0.0,0.0,0.0,0.0,0.0,0.0,0.0,0.0,0.0,0.0,0.0,0.0,0.0,0.0,0.0,0.0,0.0,0.0,-2.4272,-2.3627,-2.3196,0.0,0.0,0.0,0.0,0.0,0.0,0.0,0.0,0.0,-2.3393,-2.4343,-2.5077,-2.5078,-2.629,-2.7136,-2.686,-2.704,-2.7315,-2.7552,-2.7589,-2.7919,0.0,0.0,0.0,0.0,0.0,0.0,0.0,0.0,0.0,0.0,0.0,0.0,0.0,0.0,0.0,0.0,0.0,0.0,0.0,0.0,0.0,0.0,0.0,0.0,0.0,0.0,0.0,-1.7707,-1.8087,0.0,0.0,0.0,0.0,0.0,0.0,0.0,0.0,0.0,0.0,0.0,-1.7629,-1.7393,0.0,0.0,0.0,0.0,0.0,0.0,0.0,0.0,0.0,0.0,0.0,0.0,-2.1998,-2.2309,-2.2828,-2.3101,-2.3101,-2.3101,-2.3101,-2.3101,-2.3101,-2.3156,-2.3281,0.0,0.0,0.0,0.0,0.0,0.0,0.0,0.0,0.0,0.0,0.0,0.0,0.0,0.0,0.0,0.0,0.0,0.0,0.0,0.0,0.0,0.0,0.0,0.0,0.0,-2.5344,0.0,0.0,0.0,0.0,0.0,0.0,0.0,0.0,0.0,0.0,0.0,-2.5279,-2.4775,-2.5528,-2.6101,-2.6052,-2.7437,-2.82,0.0,0.0,0.0,0.0,0.0,0.0,0.0,0.0,0.0,0.0,0.0,0.0,0.0,0.0,-3.1893,-3.154,-3.1596,-3.1641,-3.1496,0.0,0.0,0.0,0.0,0.0,0.0,0.0,0.0,0.0,0.0,0.0,0.0,0.0,0.0,-1.7574,0.0,-1.8087,0.0,0.0,0.0,0.0,0.0,0.0,0.0,0.0,-1.7972,-1.753,-1.7064,-1.7123,-1.7101,0.0,-1.741,-1.8148,0.0,0.0,0.0,0.0,0.0,0.0,0.0,0.0,-2.222,-2.253,-2.2925,-2.3101,-2.3101,-2.3101,-2.3101,-2.3101,-2.3188,-2.3355,-2.3598,-2.4457,-2.501,0.0,0.0,0.0,0.0,0.0,0.0,0.0,0.0,0.0,0.0,0.0,0.0,0.0,0.0,0.0,0.0,0.0,0.0,0.0,0.0,0.0,0.0,0.0,-2.615,0.0,0.0,0.0,0.0,0.0,0.0,0.0,0.0,0.0,-2.4958,-2.6023,-2.6742,-2.6274,-2.6775,-2.717,-2.7189,0.0,0.0,0.0,0.0,0.0,0.0,0.0,-2.9474,-3.0227,-3.0499,-3.0724,-3.1139,-3.1629,-3.1893,-3.1893,0.0,0.0,-3.1862,-3.1893,-3.1937,-3.1749,-3.1705,-3.1705,-3.1705,-3.1705,-3.1705,0.0,0.0,0.0,0.0,0.0,0.0,0.0,0.0,-1.7286,-1.7426,0.0,-1.7994,0.0,0.0,0.0,0.0,-1.9123,-1.8544,0.0,0.0,-1.7544,-1.7066,-1.692,-1.7385,-1.774,-1.7981,-1.8293,-1.9063,-2.013,-1.9758,0.0,0.0,0.0,0.0,0.0,0.0,-2.2362,-2.2803,-2.3003,-2.3101,-2.3101,-2.3101,-2.3101,-2.3101,-2.3363,-2.3634,-2.3864,-2.4877,-2.5634,-2.6012,-2.652,0.0,0.0,0.0,0.0,0.0,0.0,0.0,0.0,0.0,0.0,0.0,0.0,0.0,0.0,0.0,0.0,0.0,0.0,0.0,0.0,-2.7442,0.0,0.0,0.0,0.0,0.0,0.0,0.0,0.0,0.0,0.0,-2.6433,-2.6922,-2.7444,-2.7705,0.0,0.0,0.0,0.0,-2.9703,-2.922,-2.9347,-2.9715,-3.017,-3.0227,-3.0442,-3.1172,0.0,0.0,-3.1661,-3.1705,-3.1705,-3.1717,-3.1937,-3.2038,-3.2025,-3.2025,-3.1981,-3.1805,-3.1749,-3.1749,-3.1705,-3.1761,-3.1705,-1.7286,0.0,0.0,0.0,0.0,-1.7286,-1.7286,-1.7286,-1.7286,-1.7473,-1.7721,-1.7768,0.0,0.0,0.0,0.0,0.0,0.0,-1.8393,-1.8543,-1.859,-1.8345,-1.784,-1.7672,-1.7498,-1.7409,-1.8032,-1.8512,-1.8926,-2.0345,-2.0889,-2.0637,0.0,0.0,0.0,0.0,-2.2671,-2.2803,-2.3013,-2.3101,-2.3101,-2.3101,-2.3101,-2.3101,-2.3363,-2.3864,-2.4713,-2.5801,-2.6559,-2.6929,-2.7773,0.0,0.0,0.0,0.0,0.0,0.0,0.0,0.0,0.0,0.0,0.0,0.0,0.0,0.0,0.0,0.0,0.0,0.0,0.0,-2.8513,-2.8397,-2.7969,0.0,0.0,0.0,0.0,0.0,0.0,0.0,0.0,0.0,-2.8861,-2.9094,-2.9124,0.0,0.0,-2.9141,-2.9163,-2.96,-2.9966,-3.0125,-3.0204,0.0,-3.0904,-3.0871,-3.0838,-3.1062,-3.1172,-3.1395,-3.1661,-3.1805,-3.1994,-3.2157,-3.2332,-3.2506,-3.2506,-3.2376,-3.2257,-3.2213,-3.2213,-3.2201,-3.2213,-3.2025,-3.1893,-1.7286,-1.7286,-1.7286,-1.7286,-1.7286,-1.7286,-1.7286,-1.7286,-1.7286,-1.738,-1.7574,-1.7854,-1.8018,-1.7956,-1.8237,0.0,0.0,0.0,-1.8572,-1.8811,-1.8697,-1.8482,-1.8157,-1.8195,-1.8236,-1.8337,-1.8937,-1.955,-2.0209,-2.1212,-2.1739,-2.1847,0.0,0.0,-2.2132,-2.2583,-2.2838,-2.2925,-2.3013,-2.3101,-2.3101,-2.3101,-2.3135,-2.3276,-2.3503,-2.3993,-2.4734,-2.6152,-2.7001,-2.7233,-2.8303,-2.855,0.0,0.0,0.0,0.0,0.0,0.0,0.0,0.0,0.0,0.0,0.0,-2.7052,-2.7557,0.0,0.0,0.0,-2.8938,-2.9211,-2.9042,-2.887,0.0,0.0,0.0,0.0,0.0,0.0,0.0,-2.8976,-2.9899,-3.0502,-3.0337,-3.0448,-3.0273,-2.9703,-2.9806,-2.9988,-3.0091,0.0,-3.0432,-3.0736,-3.0769,-3.0859,-3.1261,-3.1184,-3.1151,-3.1241,-3.1362,-3.1484,-3.1661,-3.1849,-3.2081,-3.2213,-3.2419,-3.2593,-3.2667,-3.2593,-3.2475,-3.2431,-3.24,-3.24,-3.24,-3.2269,-3.2169,-1.7286,-1.7286,-1.7286,-1.7286,-1.7286,-1.7286,-1.7286,-1.7286,-1.7286,-1.7326,-1.7419,-1.8118,-1.8481,-1.8495,-1.9177,0.0,-1.9782,-1.906,-1.8884,-1.9115,-1.8397,-1.8085,-1.8145,-1.8874,-1.9504,-2.0149,-2.0552,-2.1526,-2.2906,-2.2236,-2.228,-2.3135,-2.2969,-2.2847,-2.2794,-2.2803,-2.2906,-2.3052,-2.3042,-2.3052,-2.3086,-2.3125,-2.3276,-2.3503,-2.3711,-2.4013,-2.4444,-2.6133,-2.7151,-2.7342,-2.8382,-2.895,-2.8863,0.0,0.0,0.0,0.0,0.0,0.0,0.0,0.0,0.0,0.0,0.0,0.0,0.0,0.0,0.0,-2.9478,0.0,-2.9481,-2.9101,0.0,0.0,0.0,-2.8617,-2.9141,-2.9631,-2.9945,-2.9992,0.0,0.0,-3.1062,-3.1074,-3.1074,-3.1074,-3.0826,-3.0724,-3.0972,-3.0984,-3.0984,-3.1017,-3.1029,-3.1095,-3.1318,-3.135,-3.1395,-3.1617,-3.1705,-3.1717,-3.1761,-3.1906,-3.1994,-3.2113,-3.2245,-3.2519,-3.268,-3.2754,-3.268,-3.2531,-3.2487,-3.2487,-3.2475,-3.2431,-3.2388,-1.7286,-1.7286,-1.7286,-1.7286,-1.7286,-1.7286,-1.7286,-1.7286,-1.7286,-1.752,-1.7947,-1.8125,-1.8264,-1.8361,-1.833,-1.8518,-1.8825,-1.8943,-1.9212,-1.954,-1.9673,-1.9704,-1.9757,-2.0067,-2.0326,-2.0551,-2.1471,-2.2183,-2.258,-2.3071,-2.3396,-2.3624,-2.358,-2.3319,-2.2838,-2.2969,-2.2892,-2.2666,-2.2623,-2.2752,-2.2932,-2.3411,-2.3657,-2.3711,-2.398,-2.4775,-2.6121,-2.6782,-2.773,-2.9091,-2.9409,-2.9377,-2.8913,-2.865,0.0,0.0,0.0,0.0,0.0,0.0,0.0,0.0,0.0,-2.8134,-2.8662,0.0,-2.8963,0.0,-2.9716,-2.9799,-2.9788,-2.9705,0.0,0.0,-2.9552,-2.956,-2.9926,-3.0201,-3.058,-3.0903,-3.1279,-3.154,-3.154,-3.154,-3.154,-3.154,-3.1139,-3.0939,-3.0984,-3.0984,-3.1062,-3.1184,-3.1217,-3.1318,-3.154,-3.1617,-3.1617,-3.1717,-3.1705,-3.1749,-3.1893,-3.1994,-3.2113,-3.2463,-3.2581,-3.2723,-3.2939,-3.2982,-3.2995,-3.2952,-3.2952,-3.2939,-3.2939,-3.2766,-3.2636,-1.7286,-1.7286,-1.7286,-1.738,-1.7481,-1.7326,-1.7426,-1.766,-1.766,-1.7932,-1.8411,-1.8681,-1.8937,-1.9204,-1.9051,-1.9093,-1.9323,-1.9533,-1.9768,-1.9956,-2.0189,-2.0292,-2.0283,-2.0727,-2.1123,-2.1427,-2.2413,-2.3028,-2.3343,-2.3797,-2.398,-2.397,-2.3692,-2.3335,-2.3001,-2.3264,-2.3278,-2.3104,-2.2916,-2.276,-2.2748,-2.3243,-2.3501,-2.351,-2.4152,-2.4967,-2.5894,-2.6792,-2.7782,-2.8843,-2.9353,-2.9539,-2.9327,-2.9038,-2.88,0.0,0.0,0.0,0.0,0.0,0.0,0.0,0.0,0.0,0.0,0.0,-2.9453,-2.9767,-3.0005,-3.015,-3.0078,-3.0285,-3.0437,-3.0417,-3.0446,-3.0565,-3.085,-3.1009,-3.1185,-3.1448,-3.1629,-3.1705,-3.1705,-3.1705,-3.1705,-3.1705,-3.1484,-3.1318,-3.133,-3.133,-3.1362,-3.1484,-3.1472,-3.1528,-3.1705,-3.1705,-3.1705,-3.1705,-3.1761,-3.1893,-3.1994,-3.2169,-3.2419,-3.2624,-3.281,-3.2952,-3.3081,-3.3124,-3.3124,-3.3124,-3.3124,-3.3124,-3.3068,-3.2995,-3.2896,-1.7286,-1.7286,-1.738,-1.752,-1.7721,-1.7567,-1.7707,-1.8087,-1.8087,-1.8365,-1.8874,-1.9463,-1.992,-2.0292,-2.0292,-2.0292,-2.0292,-2.0292,-2.0292,-2.0292,-2.0382,-2.0428,-2.0473,-2.1266,-2.1971,-2.258,-2.3266,-2.3907,-2.4414,-2.4253,-2.4137,-2.4055,-2.3476,-2.319,-2.321,-2.3564,-2.367,-2.3627,-2.3289,-2.2876,-2.2503,-2.2968,-2.3164,-2.3174,-2.4179,-2.4849,-2.5052,-2.6558,-2.7602,-2.7999,-2.8897,-2.9521,-2.9779,-2.9315,-2.9001,0.0,-2.8586,0.0,0.0,0.0,0.0,0.0,0.0,0.0,0.0,-2.9779,-2.9817,-2.9892,-3.0292,-3.0578,-3.0515,-3.0909,-3.124,-3.1308,-3.1339,-3.1447,-3.1689,-3.1761,-3.1749,-3.1705,-3.1705,-3.1705,-3.1705,-3.1705,-3.1705,-3.1705,-3.1661,-3.1661,-3.1717,-3.1673,-3.1673,-3.1705,-3.1705,-3.1661,-3.1705,-3.1705,-3.1705,-3.1761,-3.1893,-3.2025,-3.2125,-3.2419,-3.2723,-3.2766,-3.2939,-3.3081,-3.3124,-3.3124,-3.3124,-3.3124,-3.3124,-3.3124,-3.3124,-3.3081,-3.3124,-1.7286,-1.7326,-1.7761,-1.7994,-1.804,-1.8365,-1.8365,-1.8087,-1.8087,-1.8496,-1.9188,-1.9882,-2.0192,-2.0292,-2.0292,-2.0292,-2.0292,-2.0292,-2.0292,-2.0337,-2.0916,-2.1177,-2.1266,-2.252,-2.3144,-2.3319,-2.398,-2.4226,-2.4012,-2.396,-2.3774,-2.3361,-2.3278,-2.3196,-2.3186,0.0,0.0,0.0,-2.2504,-2.236,-2.2289,-2.2879,-2.3267,-2.3426,-2.3786,0.0,-2.6126,-2.6615,-2.7534,-2.8978,-2.9302,0.0,0.0,0.0,0.0,0.0,0.0,0.0,0.0,0.0,0.0,0.0,-2.9691,-2.9679,-2.9779,-2.9779,-2.998,-3.0407,-3.0557,-3.0851,-3.1547,-3.168,-3.1838,-3.2154,-3.2185,-3.2103,-3.1981,-3.1937,-3.1893,-3.1705,-3.1705,-3.1705,-3.1705,-3.1705,-3.1705,-3.1705,-3.1705,-3.1705,-3.1705,-3.1705,-3.1705,-3.1705,-3.1705,-3.1705,-3.1705,-3.1717,-3.1805,-3.1893,-3.195,-3.2157,-3.245,-3.2581,-3.281,-3.2982,-3.3081,-3.3124,-3.3124,-3.3124,-3.3124,-3.3124,-3.3124,-3.3124,-3.3124,-3.3124,-3.3124,-1.7286,-1.738,-1.7846,-1.8179,0.0,-1.8781,-1.892,-1.8835,-1.8819,-1.9188,-1.9783,-2.0155,-2.0292,-2.0292,-2.0155,-2.011,-2.011,-2.011,-2.0008,-1.9883,-2.0669,-2.0959,-2.0822,-2.2159,-2.2807,-2.2849,-2.3533,-2.3753,-2.3546,-2.3536,-2.3412,-2.3184,-2.2956,-2.2853,-2.2842,-2.2625,-2.2496,-2.2512,-2.2377,-2.223,-2.2035,-2.2575,-2.2808,-2.2846,-2.3676,0.0,0.0,0.0,0.0,0.0,0.0,0.0,0.0,-2.9779,0.0,-2.9779,-2.9779,-2.9779,-2.9779,-2.9779,-2.9779,-2.9779,-2.9779,-2.9779,-2.9779,-3.0043,-3.0306,-3.0595,-3.1085,-3.1596,-3.1997,-3.2322,-3.2511,-3.2568,-3.255,-3.2463,-3.2257,-3.2081,-3.195,-3.1849,-3.1761,-3.1705,-3.1705,-3.1705,-3.1705,-3.1705,-3.1705,-3.1705,-3.1705,-3.1705,-3.1705,-3.1705,-3.1705,-3.1749,-3.1805,-3.1849,-3.1937,-3.2125,-3.2288,-3.2407,-3.2667,-3.2797,-3.2952,-3.3081,-3.3124,-3.3124,-3.3124,-3.3124,-3.3124,-3.3124,-3.3124,-3.3124,-3.3124,-3.3124,-3.3124,-1.738,-1.7473,-1.7994,-1.8411,-1.8719,-1.9196,-1.9517,-1.9716,0.0,0.0,0.0,-2.0292,-2.0257,-2.0152,-1.9971,-1.9847,-1.9788,-1.9788,-1.9656,-1.9413,-2.0227,-2.0481,-2.0352,-2.1546,-2.2175,-2.2298,-2.289,-2.3143,-2.306,-2.307,-2.3029,-2.2915,-2.2563,-2.2366,-2.2356,-2.2004,-2.1994,-2.2356,-2.2366,-2.219,-2.1828,-2.218,-2.2306,-2.2111,-2.3559,-2.469,-2.5449,-2.6751,-2.7965,-2.9079,-2.9302,-2.956,-2.983,-2.9869,-2.9869,-2.9908,-2.9869,-2.9856,-2.9869,-2.9869,-2.9869,-2.9869,-2.983,-2.9829,-2.993,-3.0357,-3.0696,-3.0871,-3.17,-3.2252,-3.2353,-3.2792,-3.3025,-3.281,-3.2766,-3.268,-3.2475,-3.2257,-3.2125,-3.2069,-3.195,-3.1849,-3.1849,-3.1849,-3.1805,-3.1805,-3.1849,-3.1837,-3.1805,-3.1761,-3.1705,-3.1705,-3.1705,-3.1761,-3.195,-3.1994,-3.2125,-3.2388,-3.2593,-3.2711,-3.2797,-3.2939,-3.3081,-3.3124,-3.3124,-3.3124,-3.3124,-3.3124,-3.3124,-3.3124,-3.3124,-3.3124,-3.3124,-3.3124,-3.3124,-1.7567,-1.8032,-1.8504,-1.8958,-1.9455,-1.9965,-2.0201,-2.0209,-1.9973,-1.9891,-1.9973,-2.0192,-2.0112,-1.9776,-1.9732,-1.9597,-1.929,-1.929,-1.9264,-1.9256,-1.9949,-2.0558,-2.1057,-2.1836,-2.2462,-2.3012,-2.3143,-2.2987,-2.2625,-2.2594,-2.2397,-2.2045,-2.1932,-2.1911,-2.1901,-2.1838,-2.1838,-2.1901,-2.1901,-2.1869,-2.1807,-2.1869,-2.1956,-2.2149,-2.3171,-2.4389,-2.5701,-2.6702,-2.7893,-2.9279,-2.938,-2.9586,-2.9998,-3.0037,-3.0152,-3.0292,-3.0152,-3.0049,-3.0037,-3.0088,-3.0088,-3.0049,-2.9895,-2.9993,-3.0457,-3.057,-3.0997,-3.1876,-3.2098,-3.2428,-3.2923,-3.3061,-3.3081,-3.3038,-3.3038,-3.2952,-3.268,-3.2636,-3.2506,-3.2344,-3.23,-3.23,-3.2257,-3.2269,-3.2169,-3.2038,-3.2125,-3.23,-3.2213,-3.1937,-3.1749,-3.1705,-3.1705,-3.1805,-3.1994,-3.1994,-3.2201,-3.2593,-3.2667,-3.281,-3.2982,-3.3081,-3.3124,-3.3124,-3.3124,-3.3124,-3.3124,-3.3124,-3.3124,-3.3124,-3.3124,-3.3124,-3.3124,-3.3124,-3.3124,-1.8032,-1.8542,-1.905,-1.9371,-1.9629,-1.9853,-1.9992,-1.993,-1.9637,-1.9626,-1.9805,-1.9903,-1.9787,-1.9453,-1.9261,-1.9133,-1.8964,-1.8964,-1.8888,-1.8735,-1.9474,-2.0044,-2.05,-2.1173,-2.1818,-2.2439,-2.2439,-2.2325,-2.2139,-2.2128,-2.2014,-2.1818,-2.1807,-2.1807,-2.1807,-2.1807,-2.1807,-2.1807,-2.1807,-2.1807,-2.1807,-2.1807,-2.1845,-2.1949,-2.3042,-2.4202,-2.5347,-2.6419,-2.7555,-2.88,-2.9126,-2.9441,-2.9732,-3.0101,-3.0292,-3.0406,-3.033,-3.0254,-3.0254,-3.0254,-3.0267,-3.0267,-3.0075,-3.03,-3.1145,-3.1075,-3.1361,-3.2139,-3.2478,-3.278,-3.3086,-3.3124,-3.3124,-3.3124,-3.3124,-3.3038,-3.2939,-3.2754,-3.268,-3.255,-3.2475,-3.24,-3.24,-3.24,-3.2356,-3.2269,-3.2356,-3.24,-3.24,-3.2201,-3.2081,-3.2081,-3.2081,-3.2157,-3.2332,-3.2376,-3.255,-3.2853,-3.2896,-3.2982,-3.3081,-3.3124,-3.3111,-3.3124,-3.3111,-3.3124,-3.3111,-3.3124,-3.3124,-3.3124,-3.3124,-3.3124,-3.3124,-3.3124,-3.3398,-1.8458,-1.9012,-1.9417,-1.9596,-1.9624,-1.9592,-1.9571,-1.9581,-1.9299,-1.9342,-1.953,-1.9581,-1.9401,-1.9059,-1.8828,-1.8701,-1.8625,-1.8617,-1.8456,-1.8237,-1.8862,-1.9416,-1.9932,-2.0459,-2.1059,-2.1731,-2.1807,-2.1807,-2.1807,-2.1807,-2.1807,-2.1807,-2.1807,-2.1807,-2.1807,-2.1807,-2.1807,-2.1807,-2.1807,-2.1807,-2.1807,-2.1807,-2.1883,-2.2122,-2.3215,-2.4251,-2.5236,-2.6355,-2.7434,-2.8353,-2.8807,-2.917,-2.9369,-2.9943,-3.029,-3.034,-3.0418,-3.0495,-3.0457,-3.0444,-3.0406,-3.0482,-3.0267,-3.0583,-3.1531,-3.1562,-3.1729,-3.2328,-3.2805,-3.3111,-3.3124,-3.3124,-3.3124,-3.3124,-3.3124,-3.3124,-3.3081,-3.2884,-3.281,-3.2754,-3.2649,-3.2562,-3.2562,-3.2562,-3.2574,-3.2562,-3.2487,-3.2444,-3.2531,-3.2519,-3.2487,-3.2519,-3.2475,-3.2475,-3.2636,-3.2667,-3.2754,-3.3081,-3.3081,-3.2993,-3.296,-3.2855,-3.278,-3.2679,-3.2641,-3.2646,-3.2696,-3.2654,-3.2596,-3.2458,-3.2315,-3.242,-3.2194,-3.2348,-3.3158,-1.8635,-1.9455,-1.9567,-1.9636,-1.9628,-1.9384,-1.923,-1.9213,-1.9222,-1.9109,-1.9019,-1.9161,-1.905,-1.8674,-1.8639,-1.8477,-1.8153,-1.807,-1.8062,-1.8068,-1.8083,-1.8763,-1.9825,-1.9982,-2.0615,-2.1683,-2.1807,-2.1883,-2.1883,-2.1807,-2.1807,-2.1807,-2.1807,-2.1807,-2.1807,-2.1807,-2.1807,-2.1797,-2.1807,-2.1807,-2.1807,-2.1807,-2.2138,-2.29,-2.3629,-2.4674,-2.5851,-2.701,-2.7786,-2.8363,-2.8558,-2.879,-2.9047,-2.9561,-2.9932,-3.0131,-3.0475,-3.066,-3.066,-3.0482,-3.0495,-3.066,-3.0482,-3.0726,-3.1572,-3.1683,-3.2028,-3.2764,-3.3048,-3.3124,-3.3124,-3.3124,-3.3124,-3.3124,-3.3124,-3.3124,-3.3043,-3.3081,-3.3081,-3.3068,-3.2857,-3.3025,-3.2857,-3.2845,-3.2907,-3.2777,-3.2481,-3.2407,-3.2666,-3.2635,-3.2605,-3.2753,-3.2655,-3.2444,-3.2593,-3.2698,-3.2666,-3.2943,-3.3061,-3.2704,-3.229,-3.2127,-3.2152,-3.1637,-3.1549,-3.1549,-3.1549,-3.1537,-3.1386,-3.1173,-3.0997,-3.0771,-3.036,-3.0699,-3.1915,-1.9015,-1.962,-1.9445,-1.9372,-1.9367,-1.9126,-1.8954,-1.8853,-1.8896,-1.8786,-1.8664,-1.8813,-1.8827,-1.8638,-1.8638,-1.8551,-1.8411,-1.8411,-1.8411,-1.8411,-1.8411,-1.8873,-1.9678,-2.0216,-2.0924,-2.1797,-2.2289,-2.2505,-2.2467,-2.2289,-2.2025,-2.1835,-2.2025,-2.2138,-2.2187,-2.2365,-2.2515,-2.2505,-2.2515,-2.2515,-2.2478,-2.2025,-2.2063,-2.2703,-2.3694,-2.461,-2.5457,-2.6604,-2.7403,-2.7738,-2.8103,-2.8424,-2.866,-2.9194,-2.9712,-3.0087,-3.0598,-3.0874,-3.0874,-3.0785,-3.0798,-3.0887,-3.0685,-3.0855,-3.147,-3.1374,-3.1516,-3.2167,-3.2764,-3.3124,-3.3099,-3.3124,-3.3124,-3.3124,-3.3124,-3.2986,-3.2591,-3.2566,-3.2466,-3.2152,-3.2131,-3.2089,-3.2077,-3.2077,-3.2077,-3.2077,-3.1922,-3.1972,-3.2089,-3.1993,-3.1993,-3.1997,-3.1672,-3.1701,-3.2172,-3.2126,-3.1918,-3.1671,-3.1612,-3.1424,-3.0997,-3.0796,-3.0683,-3.047,-3.0457,-3.0444,-3.0444,-3.0457,-3.0357,-3.008,-3.0118,-3.0043,-2.9829,-3.0011,-3.0764,-1.9142,-1.9486,-1.9179,-1.9059,-1.9109,-1.8863,-1.8731,-1.8622,-1.8695,-1.8652,-1.8603,-1.8732,-1.8812,-1.886,-1.8732,-1.8709,-1.8692,-1.8585,-1.8532,-1.8523,-1.8434,-1.8722,-1.947,-2.0236,-2.1044,-2.1825,-2.259,-2.3001,-2.2964,-2.274,-2.2402,-2.2214,-2.2402,-2.2553,-2.259,-2.2889,-2.3001,-2.3001,-2.3001,-2.3001,-2.2927,-2.258,-2.2606,-2.3154,-2.4192,-2.5028,-2.5546,-2.6508,-2.7146,-2.7315,-2.7704,-2.8014,-2.8164,-2.8747,-2.9366,-3.0035,-3.0479,-3.083,-3.0973,-3.1024,-3.1024,-3.0986,-3.0887,-3.0982,-3.1345,-3.1227,-3.1285,-3.1777,-3.2389,-3.2748,-3.2659,-3.2616,-3.2616,-3.2616,-3.2659,-3.2416,-3.2051,-3.1989,-3.1838,-3.1461,-3.154,-3.1386,-3.1386,-3.1436,-3.1461,-3.1461,-3.1436,-3.1386,-3.1348,-3.1311,-3.1198,-3.1148,-3.062,-3.0618,-3.1486,-3.1311,-3.0809,-3.057,-3.0457,-3.0306,-2.9691,-2.9591,-2.9415,-2.9428,-2.9377,-2.934,-2.9327,-2.9327,-2.9277,-2.9114,-2.9064,-2.8976,-2.8586,-2.8949,-2.9173,-1.8749,-1.9136,-1.8818,-1.8738,-1.8887,-1.8562,-1.8567,-1.8673,-1.8709,-1.8812,-1.8962,-1.8962,-1.9073,-1.9222,-1.8856,-1.8723,-1.8638,-1.835,-1.8181,-1.8127,-1.7816,-1.812,-1.905,-1.9874,-2.0797,-2.1765,-2.2563,-2.2988,-2.2995,-2.3001,-2.2964,-2.2927,-2.2964,-2.2964,-2.3001,-2.3038,-2.3038,-2.3113,-2.3113,-2.3038,-2.3102,-2.3475,-2.4047,-2.4743,-2.5405,-2.6057,-2.676,-2.7146,-2.7302,-2.7302,-2.7455,-2.7568,-2.7594,-2.8137,-2.8948,-2.9879,-3.0127,-3.0388,-3.0869,-3.1011,-3.1024,-3.0986,-3.0986,-3.1108,-3.1384,-3.1384,-3.1486,-3.1917,-3.1928,-3.1881,-3.1597,-3.1653,-3.1653,-3.1641,-3.1565,-3.1524,-3.1449,-3.1436,-3.1424,-3.1323,-3.1235,-3.1198,-3.1298,-3.1386,-3.1273,-3.126,-3.1311,-3.126,-3.1072,-3.0834,-3.0608,-3.0267,-2.9779,-2.9352,-3.0331,-3.0206,-2.9892,-2.9603,-2.9402,-2.9515,-2.9189,-2.8875,-2.8562,-2.836,-2.8284,-2.8221,-2.8185,-2.8133,-2.8019,-2.7792,-2.745,-2.7261,-2.7599,-2.7486,-2.7726,-1.8564,-1.864,-1.8338,-1.8408,-1.8765,-1.8633,-1.8652,-1.874,-1.8962,-1.9033,-1.9042,-1.9152,-1.9222,-1.9292,-1.8879,-1.8701,-1.8683,-1.8547,-1.8357,-1.8122,-1.7968,-1.8332,-1.9141,-1.9939,-2.0772,-2.161,-2.2404,-2.282,-2.2928,-2.3205,-2.3224,-2.3065,-2.3272,-2.3372,-2.3409,-2.3629,-2.3787,-2.3787,-2.3787,-2.3787,-2.3776,-2.4288,-2.4886,-2.5534,-2.5849,-2.6242,-2.6782,-2.7201,-2.7436,-2.7423,-2.7456,-2.7503,-2.7555,-2.8072,-2.8543,-2.9013,-2.9683,-3.0192,-3.0438,-3.0777,-3.1024,-3.1024,-3.1024,-3.1065,-3.1134,-3.1072,-3.1022,-3.1151,-3.1061,-3.088,-3.0929,-3.124,-3.1615,-3.1574,-3.1455,-3.1263,-3.0984,-3.0896,-3.0771,-3.047,-3.0369,-3.0369,-3.0432,-3.0382,-3.0369,-3.0369,-3.0369,-3.0231,-2.9892,-2.9641,-2.9402,-2.9013,-2.8411,-2.8009,-2.8323,-2.8687,-2.8624,-2.8298,-2.8084,-2.7871,-2.762,-2.757,-2.7318,-2.7488,-2.7349,-2.742,-2.7531,-2.7528,-2.7313,-2.7234,-2.6824,-2.679,-2.6833,-2.7087,-2.7222,-1.8467,-1.8379,-1.829,-1.8451,-1.8772,-1.8812,-1.8812,-1.8931,-1.9192,-1.9231,-1.9152,-1.9222,-1.9237,-1.9091,-1.8825,-1.854,-1.8339,-1.8311,-1.8174,-1.7917,-1.7798,-1.8152,-1.9043,-1.9819,-2.0688,-2.1503,-2.232,-2.2731,-2.2794,-2.3133,-2.3226,-2.3153,-2.3441,-2.3641,-2.379,-2.4091,-2.4189,-2.4189,-2.4189,-2.42,-2.4261,-2.4731,-2.5204,-2.5583,-2.6039,-2.6517,-2.6964,-2.7323,-2.7503,-2.7503,-2.7503,-2.7503,-2.7542,-2.7889,-2.8203,-2.8438,-2.9118,-2.9722,-3.0074,-3.0503,-3.0777,-3.0973,-3.1024,-3.1024,-3.0986,-3.0874,-3.0811,-3.0773,-3.0685,-3.0596,-3.0662,-3.1073,-3.135,-3.1271,-3.1139,-3.0933,-3.0591,-3.0462,-3.0259,-2.9969,-2.9867,-2.9817,-2.9779,-2.9804,-2.9817,-2.9779,-2.9654,-2.9327,-2.8988,-2.8537,-2.831,-2.7968,-2.7538,-2.7271,-2.7468,-2.7756,-2.7727,-2.7415,-2.7377,-2.6936,-2.6722,-2.6584,-2.6555,-2.6611,-2.6714,-2.6794,-2.6875,-2.6909,-2.6943,-2.7024,-2.6956,-2.6935,-2.6956,-2.699,-2.7146,-1.8402,-1.8442,-1.862,-1.8812,-1.9002,-1.8962,-1.9112,-1.9222,-1.9292,-1.9292,-1.9262,-1.9283,-1.9054,-1.8788,-1.8632,-1.8238,-1.7697,-1.7587,-1.7541,-1.7458,-1.7165,-1.757,-1.8613,-1.9416,-2.0398,-2.1465,-2.2275,-2.265,-2.2639,-2.2765,-2.2971,-2.3303,-2.3337,-2.3554,-2.4129,-2.412,-2.4166,-2.4189,-2.4189,-2.4189,-2.4261,-2.4707,-2.4976,-2.5154,-2.602,-2.6743,-2.7332,-2.7464,-2.7503,-2.7503,-2.7503,-2.7503,-2.7503,-2.7555,-2.7785,-2.8229,-2.8412,-2.8987,-2.9852,-3.0087,-3.0451,-3.079,-3.0998,-3.1024,-3.0986,-3.0986,-3.0986,-3.0949,-3.0936,-3.0949,-3.0911,-3.0877,-3.0739,-3.0483,-3.0522,-3.0497,-3.042,-3.0254,-3.0049,-2.9908,-2.9856,-2.983,-2.983,-2.9781,-2.9743,-2.9617,-2.929,-2.8863,-2.8637,-2.8009,-2.7563,-2.743,-2.7164,-2.6864,-2.6909,-2.6969,-2.6837,-2.6712,-2.6766,-2.6653,-2.6712,-2.6636,-2.6705,-2.676,-2.693,-2.6998,-2.7066,-2.7113,-2.7079,-2.7079,-2.7045,-2.7092,-2.7113,-2.7146,-2.718,-1.8563,-1.8803,-1.8732,-1.8882,-1.9152,-1.9033,-1.9112,-1.9301,-1.9292,-1.9292,-1.9246,-1.9017,-1.8825,-1.8595,-1.8146,-1.7743,-1.7477,-1.7229,-1.7092,-1.7082,-1.6963,-1.737,-1.8233,-1.8958,-1.9971,-2.1172,-2.1864,-2.2157,-2.2226,-2.249,-2.2788,-2.2891,-2.2914,-2.319,-2.3625,-2.3648,-2.3786,-2.4154,-2.4189,-2.4189,-2.419,-2.4378,-2.463,-2.5007,-2.5369,-2.5767,-2.6322,-2.7072,-2.7477,-2.7477,-2.7503,-2.7503,-2.7503,-2.7503,-2.7581,-2.7777,-2.8177,-2.8512,-2.8935,-2.968,-3.0127,-3.0438,-3.0738,-3.0998,-3.1024,-3.0986,-3.0986,-3.1024,-3.1024,-3.1024,-3.0986,-3.0949,-3.0811,-3.0647,-3.0482,-3.0406,-3.0406,-3.033,-3.0292,-3.0228,-3.0216,-3.0216,-3.0101,-2.9935,-2.9542,-2.9365,-2.8911,-2.8445,-2.7882,-2.758,-2.714,-2.6895,-2.6678,-2.6726,-2.6897,-2.7032,-2.6943,-2.6841,-2.6807,-2.6739,-2.6739,-2.6773,-2.6854,-2.6943,-2.7079,-2.7167,-2.7235,-2.7268,-2.7201,-2.7268,-2.7302,-2.7335,-2.7335,-2.7335,-2.7335,-1.8763,-1.9002,-1.8922,-1.9073,-1.9262,-1.9143,-1.9192,-1.9292,-1.9292,-1.9228,-1.9045,-1.8834,-1.8531,-1.821,-1.7715,-1.7422,-1.7257,-1.7009,-1.6908,-1.6968,-1.7235,-1.7706,-1.8442,-1.9398,-2.0226,-2.1044,-2.1479,-2.164,-2.1663,-2.195,-2.2236,-2.2375,-2.2398,-2.265,-2.3144,-2.3327,-2.3591,-2.3902,-2.4097,-2.4189,-2.4205,-2.419,-2.4344,-2.4642,-2.4861,-2.5167,-2.5553,-2.638,-2.6968,-2.7163,-2.7359,-2.749,-2.7503,-2.7503,-2.7503,-2.7568,-2.785,-2.815,-2.8412,-2.9052,-2.9565,-2.9849,-3.0346,-3.0647,-3.0699,-3.0803,-3.1024,-3.1024,-3.1024,-3.1024,-3.1024,-3.1024,-3.0911,-3.0849,-3.0723,-3.0596,-3.0533,-3.0533,-3.0444,-3.0406,-3.0368,-3.0304,-3.001,-2.978,-2.9333,-2.9019,-2.8499,-2.8104,-2.7566,-2.7364,-2.7021,-2.684,-2.6914,-2.6964,-2.6998,-2.7066,-2.71,-2.7079,-2.7045,-2.6977,-2.6922,-2.6922,-2.6956,-2.7045,-2.718,-2.7235,-2.7315,-2.7335,-2.7335,-2.7436,-2.7503,-2.7469,-2.7436,-2.7436,-2.7436,-1.9002,-1.9042,-1.9222,-1.9262,-1.9292,-1.9292,-1.9225,-1.9237,-1.9237,-1.9017,-1.8695,-1.8568,-1.8201,-1.7642,-1.7458,-1.7238,-1.6963,-1.6927,-1.6908,-1.7107,-1.7569,-1.8297,-1.9144,-2.0237,-2.0871,-2.1169,-2.1236,-2.1247,-2.1293,-2.1339,-2.1399,-2.1847,-2.186,-2.2134,-2.2604,-2.3075,-2.3293,-2.3522,-2.3913,-2.4108,-2.4179,-2.4248,-2.4254,-2.4255,-2.4708,-2.5027,-2.514,-2.5678,-2.6175,-2.6693,-2.7236,-2.7503,-2.7503,-2.7503,-2.7503,-2.7503,-2.7503,-2.7824,-2.819,-2.8477,-2.8726,-2.9209,-2.9745,-3.0087,-3.0205,-3.0594,-3.0882,-3.1011,-3.1024,-3.1024,-3.1024,-3.1024,-3.0986,-3.0986,-3.0949,-3.0874,-3.0736,-3.0698,-3.0647,-3.0508,-3.0406,-3.0213,-2.9712,-2.9508,-2.9098,-2.8664,-2.8139,-2.7793,-2.7582,-2.7314,-2.7182,-2.7113,-2.7045,-2.7134,-2.7134,-2.7167,-2.7201,-2.7268,-2.7248,-2.718,-2.7113,-2.7113,-2.7113,-2.7214,-2.7281,-2.7302,-2.7335,-2.7403,-2.7436,-2.7469,-2.7503,-2.7503,-2.7503,-2.7503,-2.7503,-1.9073,-1.9222,-1.9262,-1.9292,-1.9292,-1.9292,-1.9127,-1.8889,-1.8871,-1.865,-1.8246,-1.7944,-1.7724,-1.7477,-1.7183,-1.6991,-1.6927,-1.6908,-1.6908,-1.7012,-1.7662,-1.87,-1.9639,-2.0172,-2.07,-2.1126,-2.1201,-2.1201,-2.1201,-2.1201,-2.1282,-2.1385,-2.141,-2.1629,-2.2088,-2.2261,-2.2708,-2.3316,-2.351,-2.3856,-2.4232,-2.4398,-2.4497,-2.4514,-2.4806,-2.4986,-2.5058,-2.5571,-2.6117,-2.6686,-2.721,-2.7503,-2.7523,-2.7536,-2.7536,-2.7536,-2.7503,-2.7542,-2.7764,-2.8137,-2.8472,-2.8656,-2.917,-2.9693,-3.0074,-3.0218,-3.0568,-3.0843,-3.1024,-3.0998,-3.1011,-3.096,-3.096,-3.1024,-3.0895,-3.0921,-3.0911,-3.0911,-3.0874,-3.0797,-3.0422,-3.0097,-2.9736,-2.9191,-2.8624,-2.8234,-2.7812,-2.7438,-2.7357,-2.7263,-2.7146,-2.7058,-2.7045,-2.718,-2.7248,-2.7302,-2.7369,-2.7436,-2.7436,-2.7403,-2.7369,-2.7369,-2.7369,-2.7423,-2.7403,-2.7403,-2.7436,-2.7469,-2.7503,-2.7503,-2.7503,-2.7503,-2.7503,-2.7503,-2.7503,-1.9192,-1.9292,-1.9292,-1.9292,-1.9274,-1.9118,-1.8926,-1.8705,-1.8484,-1.8238,-1.7871,-1.7614,-1.7394,-1.7229,-1.7009,-1.6908,-1.6908,-1.6968,-1.7038,-1.7166,-1.7867,-1.89,-1.9835,-2.0128,-2.0495,-2.1126,-2.1201,-2.1201,-2.1201,-2.1201,-2.1201,-2.1224,-2.1201,-2.1351,-2.1606,-2.1825,-2.2272,-2.3018,-2.3316,-2.3755,-2.4482,-2.4423,-2.4541,-2.4652,-2.4743,-2.4677,-2.4845,-2.5488,-2.6233,-2.696,-2.7377,-2.7656,-2.7908,-2.7802,-2.7769,-2.7736,-2.7603,-2.7503,-2.7542,-2.785,-2.8061,-2.8294,-2.8707,-2.9105,-2.9482,-2.9695,-2.998,-3.0163,-3.0451,-3.0607,-3.0634,-3.0634,-3.062,-3.0568,-3.0424,-3.049,-3.0932,-3.0751,-3.066,-3.0503,-3.015,-2.9617,-2.9435,-2.8765,-2.8291,-2.7923,-2.7642,-2.7426,-2.7294,-2.7201,-2.718,-2.7146,-2.718,-2.7315,-2.7369,-2.7403,-2.7403,-2.7469,-2.7503,-2.7503,-2.7503,-2.7503,-2.749,-2.749,-2.7503,-2.7503,-2.7503,-2.7503,-2.7503,-2.7503,-2.7503,-2.7503,-2.7503,-2.7503,-2.7503,-1.9292,-1.9292,-1.9265,-1.9237,-1.9155,-1.8786,-1.8586,-1.8504,-1.8155,-1.7825,-1.7495,-1.7467,-1.7291,-1.6952,-1.7065,-1.6978,-1.6978,-1.7141,-1.721,-1.7442,-1.7978,-1.8811,-1.9595,-2.0063,-2.0431,-2.0967,-2.1094,-2.1201,-2.1201,-2.1201,-2.1201,-2.1201,-2.1201,-2.1201,-2.1351,-2.1606,-2.2111,-2.2696,-2.3133,-2.3921,-2.4695,-2.4682,-2.4738,-2.5146,-2.4793,-2.4704,-2.4958,-2.552,-2.6342,-2.7424,-2.7583,-2.7836,-2.8314,-2.8182,-2.8177,-2.8112,-2.7901,-2.7736,-2.7669,-2.7775,-2.7808,-2.8126,-2.8283,-2.8505,-2.8852,-2.9088,-2.9274,-2.9483,-2.9758,-2.9957,-3.0009,-3.0009,-3.0045,-2.9993,-2.9601,-2.9862,-3.0411,-3.0359,-3.0009,-2.997,-2.9549,-2.8974,-2.8616,-2.8315,-2.8098,-2.7756,-2.7501,-2.7475,-2.7403,-2.7369,-2.7369,-2.7403,-2.7436,-2.7469,-2.7469,-2.7503,-2.7469,-2.7503,-2.7503,-2.7503,-2.7503,-2.7503,-2.7503,-2.7503,-2.7503,-2.7503,-2.7503,-2.7503,-2.7503,-2.7503,-2.7503,-2.7503,-2.7503,-2.7503,-2.7503,-1.9292,-1.9274,-1.8962,-1.8843,-1.877,-1.8374,-1.8073,-1.777,-1.7678,-1.7457,-1.7145,-1.7211,-1.7225,-1.7132,-1.7289,-1.7358,-1.7332,-1.7392,-1.7426,-1.7461,-1.7564,-1.8022,-1.8844,-1.9737,-2.0302,-2.0539,-2.0955,-2.119,-2.1201,-2.1233,-2.1201,-2.1201,-2.1233,-2.1201,-2.1236,-2.1383,-2.1834,-2.2558,-2.2994,-2.3884,-2.4983,-2.5099,-2.5223,-2.5779,-2.5575,-2.5508,-2.5591,-2.58,-2.6259,-2.6868,-2.7368,-2.7668,-2.7981,-2.8297,-2.8449,-2.8471,-2.8406,-2.8327,-2.836,-2.8295,-2.8262,-2.8171,-2.8226,-2.8285,-2.8484,-2.8554,-2.8839,-2.9166,-2.9392,-2.9457,-2.9536,-2.9483,-2.9457,-2.9405,-2.9287,-2.9274,-2.9549,-2.9549,-2.947,-2.9353,-2.8961,-2.8551,-2.8347,-2.7941,-2.7732,-2.7529,-2.7503,-2.7503,-2.7503,-2.7503,-2.7503,-2.7503,-2.7503,-2.7503,-2.7503,-2.7503,-2.7503,-2.7503,-2.7503,-2.7503,-2.7503,-2.7503,-2.7503,-2.7503,-2.7503,-2.7503,-2.7503,-2.7503,-2.7503,-2.7503,-2.7503,-2.7503,-2.7503,-2.7503,-2.7503,-1.8353,-1.8214,-1.8361,-1.8402,-1.8338,-1.7999,-1.7706,-1.7513,-1.7391,-1.7241,-1.7109,-1.7245,-1.7348,-1.7358,-1.7461,-1.7495,-1.7495,-1.7564,-1.7666,-1.7701,-1.7769,-1.8022,-1.8576,-1.9507,-2.0096,-2.0204,-2.0828,-2.1169,-2.1233,-2.1253,-2.1253,-2.1221,-2.1328,-2.134,-2.1265,-2.1328,-2.1906,-2.2579,-2.299,-2.3739,-2.4729,-2.4934,-2.5014,-2.5508,-2.5615,-2.5688,-2.5702,-2.5825,-2.6034,-2.6428,-2.6923,-2.7531,-2.8026,-2.8304,-2.8529,-2.8771,-2.8651,-2.8619,-2.8587,-2.8587,-2.8554,-2.8554,-2.8438,-2.8521,-2.8538,-2.8485,-2.8484,-2.8802,-2.8929,-2.897,-2.9209,-2.8996,-2.893,-2.8791,-2.8608,-2.8477,-2.8503,-2.8721,-2.8891,-2.8786,-2.8333,-2.8072,-2.7824,-2.7667,-2.7568,-2.7503,-2.7503,-2.7503,-2.7503,-2.7503,-2.7503,-2.7503,-2.7503,-2.7503,-2.7503,-2.7503,-2.7503,-2.7503,-2.7503,-2.7503,-2.7503,-2.7503,-2.7503,-2.7503,-2.7503,-2.7503,-2.7503,-2.7503,-2.7503,-2.7503,-2.7503,-2.7503,-2.7503,-2.7503,-2.7503,-1.7376,-1.7194,-1.7786,-1.8027,-1.7926,-1.7587,-1.7394,-1.7375,-1.722,-1.7169,-1.7235,-1.7426,-1.7495,-1.7529,-1.7564,-1.7564,-1.7632,-1.7691,-1.7828,-1.794,-1.794,-1.8124,-1.8633,-1.9332,-1.9901,-2.0128,-2.086,-2.1233,-2.1285,-2.1305,-2.1273,-2.1253,-2.1466,-2.1434,-2.1328,-2.1481,-2.1978,-2.2682,-2.3024,-2.3788,-2.4624,-2.4785,-2.4774,-2.5074,-2.5368,-2.5605,-2.5702,-2.5798,-2.5921,-2.5921,-2.6399,-2.7256,-2.804,-2.8477,-2.8474,-2.8996,-2.8876,-2.889,-2.8876,-2.8844,-2.8908,-2.9099,-2.8844,-2.8748,-2.8789,-2.8571,-2.8462,-2.849,-2.8625,-2.8699,-2.907,-2.8831,-2.852,-2.8313,-2.7898,-2.7596,-2.7568,-2.7968,-2.8203,-2.8203,-2.7968,-2.7712,-2.7633,-2.7529,-2.7503,-2.7503,-2.7503,-2.7503,-2.7503,-2.7503,-2.7503,-2.7503,-2.7503,-2.7503,-2.7503,-2.7503,-2.7503,-2.7503,-2.7503,-2.7503,-2.7503,-2.7503,-2.7503,-2.7503,-2.7503,-2.7503,-2.7503,-2.7503,-2.7503,-2.7503,-2.7503,-2.7503,-2.7503,-2.7503,-2.7503,-1.7959,-1.7905,-1.7706,-1.7605,-1.7541,-1.7174,-1.7027,-1.7,-1.7014,-1.7038,-1.7235,-1.7426,-1.7554,-1.7657,-1.7837,-1.7915,-1.7872,-1.794,-1.7974,-1.8008,-1.8008,-1.8056,-1.8341,-1.9299,-1.977,-1.9987,-2.0784,-2.14,-2.1336,-2.1273,-2.1285,-2.1221,-2.1316,-2.1316,-2.1296,-2.1354,-2.1966,-2.2805,-2.3092,-2.3956,-2.4971,-2.5122,-2.5136,-2.5396,-2.5674,-2.5757,-2.5825,-2.5866,-2.5893,-2.5907,-2.5992,-2.6441,-2.7186,-2.8012,-2.8528,-2.8834,-2.9077,-2.9192,-2.9306,-2.9383,-2.9289,-2.9162,-2.9067,-2.8876,-2.878,-2.8619,-2.8554,-2.8549,-2.8603,-2.8635,-2.8695,-2.8637,-2.8444,-2.8232,-2.8087,-2.7868,-2.7696,-2.7721,-2.7859,-2.7906,-2.7681,-2.7503,-2.7503,-2.7503,-2.7503,-2.7503,-2.7503,-2.7503,-2.7503,-2.7503,-2.7503,-2.7503,-2.7503,-2.7503,-2.7503,-2.7503,-2.7503,-2.7503,-2.7503,-2.7503,-2.7503,-2.7503,-2.7503,-2.7503,-2.7503,-2.7503,-2.7503,-2.7503,-2.7503,-2.7503,-2.7503,-2.7503,-2.7503,-2.7503,-2.7503,-1.7041,-1.6919,-1.7089,-1.7193,-1.7156,-1.6991,-1.6908,-1.6908,-1.7003,-1.7176,-1.7348,-1.751,-1.7691,-1.7862,-1.793,-1.8008,-1.8008,-1.8008,-1.8008,-1.8008,-1.8008,-1.8202,-1.8375,-1.9464,-2.0063,-2.0516,-2.1242,-2.16,-2.1537,-2.1498,-2.1434,-2.1486,-2.1612,-2.1655,-2.1561,-2.1698,-2.221,-2.2958,-2.3351,-2.379,-2.4727,-2.4558,-2.4944,-2.5534,-2.5853,-2.5893,-2.5893,-2.5893,-2.5893,-2.5893,-2.5907,-2.6062,-2.6512,-2.7158,-2.8029,-2.8563,-2.897,-2.9307,-2.9532,-2.9602,-2.9509,-2.9415,-2.9352,-2.9289,-2.9131,-2.9004,-2.878,-2.8683,-2.8812,-2.878,-2.8641,-2.8619,-2.8522,-2.8438,-2.8373,-2.8262,-2.8099,-2.8052,-2.7987,-2.7934,-2.7723,-2.759,-2.7503,-2.7503,-2.7503,-2.7503,-2.7503,-2.7503,-2.7503,-2.7503,-2.7503,-2.7503,-2.7503,-2.7503,-2.7503,-2.7503,-2.7503,-2.7503,-2.7503,-2.7503,-2.7503,-2.7503,-2.7503,-2.7503,-2.7503,-2.7503,-2.7503,-2.7503,-2.7503,-2.7503,-2.7503,-2.7503,-2.7503,-2.7503,-2.7503,-1.5992,-1.5868,-1.6586,-1.6908,-1.6908,-1.6908,-1.6908,-1.6943,-1.7072,-1.7245,-1.7495,-1.7623,-1.7794,-1.793,-1.8008,-1.8008,-1.8008,-1.8008,-1.8008,-1.8008,-1.8008,-1.8303,-1.8854,-1.9671,-2.0291,-2.0656,-2.1537,-2.1843,-2.1749,-2.1667,-2.1679,-2.1698,-2.198,-2.198,-2.1792,-2.2009,-2.2621,-2.3164,-2.3625,-2.368,-2.3745,-2.3918,-2.4509,-2.5453,-2.5798,-2.5893,-2.5893,-2.5893,-2.5893,-2.5893,-2.5893,-2.5907,-2.5978,-2.6357,-2.7158,-2.8113,-2.8521,-2.897,-2.9251,-2.9588,-2.9571,-2.954,-2.9571,-2.9571,-2.9554,-2.9303,-2.9099,-2.8908,-2.9004,-2.9131,-2.894,-2.8812,-2.878,-2.8716,-2.8683,-2.8651,-2.8554,-2.8457,-2.836,-2.8197,-2.7921,-2.7789,-2.7769,-2.7503,-2.7503,-2.7503,-2.7503,-2.7503,-2.7503,-2.7503,-2.7503,-2.7503,-2.7503,-2.7503,-2.7503,-2.7503,-2.7503,-2.7503,-2.7503,-2.7503,-2.7503,-2.7503,-2.7503,-2.7503,-2.7503,-2.7503,-2.7503,-2.7503,-2.7503,-2.7503,-2.7503,-2.7503,-2.7503,-2.7503,-2.7503,-1.5832,-1.5877,-1.6586,-1.6908,-1.6908,-1.6908,-1.6908,-1.6908,-1.6978,-1.7151,-1.7529,-1.7529,-1.7735,-1.794,-1.8008,-1.8008,-1.8008,-1.8008,-1.8008,-1.8008,-1.8008,-1.8076,-1.8371,-1.9518,-2.0031,-2.0484,-2.138,-2.1831,-2.1874,-2.1761,-2.173,-2.1761,-2.1792,-2.173,-2.1847,-2.2254,-2.2793,-2.3392,-2.3797,-2.4244,-2.476,-2.4787,-2.5115,-2.5647,-2.5866,-2.5893,-2.5893,-2.5893,-2.5893,-2.5893,-2.5893,-2.5893,-2.5907,-2.5921,-2.6343,-2.7144,-2.7959,-2.8731,-2.89,-2.9237,-2.9574,-2.9574,-2.9602,-2.9602,-2.9585,-2.9585,-2.9446,-2.9509,-2.9509,-2.9446,-2.9383,-2.9415,-2.932,-2.9162,-2.9035,-2.8908,-2.878,-2.8876,-2.8748,-2.8619,-2.8379,-2.8229,-2.8164,-2.7802,-2.7503,-2.7503,-2.7503,-2.7536,-2.7503,-2.7536,-2.7503,-2.7503,-2.7503,-2.7503,-2.7503,-2.7503,-2.7503,-2.7503,-2.7503,-2.7503,-2.7503,-2.7503,-2.7503,-2.7503,-2.7503,-2.7503,-2.7503,-2.7503,-2.7503,-2.7503,-2.7503,-2.7503,-2.7503,-2.7503,-2.7503,-1.501,-1.5833,-1.6149,-1.6517,-1.6899,-1.7003,-1.7063,-1.7107,-1.7185,-1.7382,-1.7588,-1.7623,-1.7759,-1.7974,-1.8008,-1.8008,-1.8008,-1.8008,-1.8008,-1.8008,-1.8008,-1.8008,-1.8236,-1.8988,-1.9606,-2.0323,-2.0976,-2.1694,-2.1831,-2.1937,-2.1843,-2.1949,-2.198,-2.2011,-2.2044,-2.2504,-2.3069,-2.3532,-2.385,-2.4288,-2.4723,-2.4711,-2.4893,-2.5825,-2.5866,-2.5893,-2.5893,-2.5893,-2.5893,-2.5893,-2.5893,-2.5893,-2.5893,-2.5907,-2.6062,-2.6287,-2.7102,-2.7917,-2.8605,-2.8928,-2.9223,-2.9532,-2.9602,-2.9602,-2.9602,-2.9602,-2.9602,-2.9602,-2.9602,-2.9602,-2.9602,-2.9602,-2.9509,-2.9415,-2.9352,-2.9289,-2.9162,-2.9194,-2.9162,-2.9035,-2.8876,-2.8716,-2.8554,-2.836,-2.8085,-2.8,-2.7934,-2.7868,-2.7769,-2.7636,-2.757,-2.7503,-2.7503,-2.7503,-2.7503,-2.7503,-2.7503,-2.7503,-2.7503,-2.7503,-2.7503,-2.7503,-2.757,-2.7536,-2.7536,-2.7503,-2.7503,-2.7503,-2.7503,-2.7503,-2.7503,-2.7503,-2.7503,-2.7503,-2.7503,-1.4402,-1.5798,-1.5798,-1.6228,-1.6899,-1.7072,-1.7132,-1.7201,-1.7358,-1.752,-1.7672,-1.774,-1.7862,-1.7974,-1.8008,-1.8008,-1.8008,-1.8008,-1.8008,-1.8008,-1.8042,-1.8144,-1.8496,-1.9054,-1.9737,-2.0344,-2.1198,-2.1726,-2.1987,-2.2092,-2.2061,-2.2197,-2.2135,-2.2274,-2.2522,-2.2955,-2.3496,-2.3965,-2.3713,-2.3946,-2.4331,-2.4021,-2.4591,-2.5258,-2.5702,-2.5757,-2.5893,-2.5893,-2.5893,-2.5893,-2.5893,-2.5893,-2.5893,-2.5907,-2.5962,-2.6117,-2.6567,-2.7187,-2.7935,-2.8413,-2.8804,-2.9195,-2.9574,-2.9602,-2.9602,-2.9602,-2.9602,-2.9602,-2.9602,-2.9602,-2.9602,-2.9602,-2.9571,-2.9571,-2.9571,-2.9571,-2.9571,-2.9477,-2.9352,-2.9162,-2.9067,-2.9099,-2.9004,-2.894,-2.878,-2.8587,-2.8438,-2.8276,-2.8079,-2.7868,-2.7901,-2.7868,-2.7868,-2.7835,-2.7703,-2.7669,-2.7636,-2.7536,-2.7503,-2.7477,-2.7451,-2.7623,-2.7736,-2.7703,-2.7511,-2.7669,-2.7782,-2.7636,-2.7503,-2.7503,-2.7503,-2.7503,-2.7503,-2.7503,-2.7477,-1.4402,-1.5798,-1.5798,-1.6228,-1.6908,-1.6908,-1.7038,-1.7201,-1.7235,-1.7432,-1.775,-1.7896,-1.7974,-1.8008,-1.8008,-1.8008,-1.8008,-1.8008,-1.8008,-1.8008,-1.8042,-1.8303,-1.8721,-1.9375,-2.0193,-2.088,-2.1431,-2.1862,-2.2197,-2.2154,-2.2166,-2.2197,-2.2197,-2.2498,-2.2811,-2.3204,-2.364,-2.3881,-2.352,-2.3428,-2.3704,-2.3692,-2.3959,-2.485,-2.5146,-2.5314,-2.5866,-2.5893,-2.5921,-2.5921,-2.5921,-2.5948,-2.5975,-2.5975,-2.6002,-2.6113,-2.6197,-2.6733,-2.7286,-2.7796,-2.8186,-2.8689,-2.9125,-2.938,-2.9279,-2.9504,-2.9574,-2.9532,-2.9518,-2.9602,-2.9602,-2.9602,-2.9602,-2.9602,-2.9602,-2.9602,-2.9602,-2.9602,-2.9446,-2.9289,-2.9226,-2.9289,-2.932,-2.9226,-2.9131,-2.894,-2.8716,-2.8554,-2.8457,-2.8327,-2.8392,-2.8392,-2.8392,-2.8295,-2.8079,-2.7947,-2.7703,-2.757,-2.7503,-2.7438,-2.7419,-2.7577,-2.7604,-2.7459,-2.7262,-2.7676,-2.7841,-2.7334,-2.7059,-2.7372,-2.7503,-2.7503,-2.7503,-2.7503,-2.7438,-1.4824,-1.5798,-1.5798,-1.6228,-1.6908,-1.7038,-1.7141,-1.7235,-1.7407,-1.7657,-1.7891,-1.7974,-1.8008,-1.8027,-1.8008,-1.8008,-1.8008,-1.8008,-1.8037,-1.8008,-1.8076,-1.8168,-1.863,-1.9175,-1.977,-2.0516,-2.1198,-2.1851,-2.2154,-2.2166,-2.2197,-2.2197,-2.2197,-2.2282,-2.263,-2.3095,-2.3433,-2.3448,-2.3272,-2.3196,-2.3341,-2.3714,-2.4092,-2.4892,-2.5453,-2.5619,-2.5893,-2.5893,-2.5948,-2.6002,-2.6002,-2.6056,-2.6125,-2.6111,-2.6165,-2.6233,-2.6233,-2.6429,-2.6727,-2.7214,-2.7712,-2.8134,-2.8471,-2.8625,-2.8677,-2.8816,-2.8998,-2.9125,-2.9336,-2.942,-2.9574,-2.9588,-2.9602,-2.9602,-2.9546,-2.949,-2.9434,-2.935,-2.9431,-2.9205,-2.9348,-2.9509,-2.9509,-2.9509,-2.9415,-2.9289,-2.9067,-2.8876,-2.878,-2.8716,-2.8748,-2.8716,-2.8683,-2.8522,-2.8308,-2.8,-2.7736,-2.7636,-2.7556,-2.7479,-2.74,-2.7033,-2.7058,-2.6978,-2.6871,-2.6884,-2.6839,-2.6568,-2.6661,-2.7033,-2.732,-2.7503,-2.7503,-2.7385,-2.7216,-1.5081,-1.5798,-1.6009,-1.6438,-1.6908,-1.7072,-1.721,-1.7332,-1.7662,-1.8074,-1.8389,-1.8389,-1.8398,-1.8389,-1.8408,-1.8428,-1.8467,-1.8457,-1.8428,-1.8447,-1.8467,-1.8449,-1.8634,-1.9015,-1.9665,-2.0161,-2.0741,-2.142,-2.1788,-2.2061,-2.2166,-2.2197,-2.2209,-2.2282,-2.257,-2.2782,-2.3011,-2.3011,-2.2826,-2.294,-2.3125,-2.3475,-2.4179,-2.485,-2.5342,-2.5702,-2.5866,-2.5975,-2.6056,-2.6125,-2.6179,-2.6206,-2.626,-2.6313,-2.634,-2.6326,-2.6353,-2.6394,-2.6578,-2.6898,-2.7342,-2.7569,-2.7893,-2.792,-2.7947,-2.8199,-2.8394,-2.845,-2.8802,-2.9083,-2.9111,-2.8928,-2.8858,-2.8745,-2.8774,-2.8731,-2.8759,-2.8731,-2.8998,-2.9122,-2.9265,-2.9291,-2.9557,-2.9557,-2.954,-2.9446,-2.9383,-2.9226,-2.9162,-2.9099,-2.9067,-2.9004,-2.8908,-2.8683,-2.8425,-2.836,-2.8262,-2.8131,-2.7999,-2.7609,-2.7423,-2.7029,-2.6739,-2.6792,-2.6592,-2.6131,-2.6059,-2.6199,-2.6431,-2.6746,-2.6876,-2.6915,-2.6785,-2.6615,-2.6602,-1.5037,-1.5877,-1.6473,-1.6795,-1.683,-1.6908,-1.7151,-1.7474,-1.7872,-1.8418,-1.8965,-1.9023,-1.9033,-1.9014,-1.8838,-1.8818,-1.8857,-1.8945,-1.8965,-1.8867,-1.874,-1.9168,-1.9347,-1.9431,-1.9628,-2.0151,-2.0651,-2.1029,-2.1255,-2.1675,-2.1962,-2.2005,-2.1921,-2.2234,-2.2847,-2.2975,-2.2999,-2.2927,-2.2474,-2.2629,-2.2927,-2.3207,-2.4018,-2.4609,-2.523,-2.5647,-2.5948,-2.6084,-2.6165,-2.6272,-2.6299,-2.6326,-2.6353,-2.6367,-2.642,-2.6513,-2.6498,-2.6592,-2.677,-2.6926,-2.6974,-2.7018,-2.7343,-2.7541,-2.7709,-2.7791,-2.7849,-2.7863,-2.803,-2.803,-2.7946,-2.796,-2.8058,-2.8115,-2.8141,-2.8169,-2.8255,-2.8269,-2.8507,-2.8661,-2.8745,-2.8886,-2.9307,-2.9588,-2.9602,-2.9571,-2.9602,-2.954,-2.9446,-2.9383,-2.932,-2.9226,-2.9099,-2.8876,-2.8683,-2.8844,-2.878,-2.8619,-2.8225,-2.7672,-2.7384,-2.7108,-2.6894,-2.6688,-2.6153,-2.5584,-2.5761,-2.5977,-2.5949,-2.5855,-2.6046,-2.6054,-2.5936,-2.5968,-2.6046,-1.4752,-1.5037,-1.5286,-1.5719,-1.6333,-1.689,-1.7254,-1.7489,-1.7741,-1.8068,-1.8383,-1.8437,-1.8447,-1.8447,-1.8525,-1.8555,-1.8525,-1.8437,-1.8437,-1.8506,-1.8574,-1.8463,-1.8654,-1.9076,-1.9489,-2.0009,-2.0482,-2.0827,-2.1329,-2.1362,-2.117,-2.1151,-2.1356,-2.1656,-2.2209,-2.2462,-2.245,-2.2469,-2.2313,-2.234,-2.258,-2.3225,-2.3862,-2.4397,-2.5203,-2.5784,-2.6084,-2.6192,-2.6299,-2.6418,-2.6459,-2.6486,-2.6553,-2.6594,-2.6647,-2.6686,-2.6686,-2.6645,-2.6633,-2.6662,-2.6651,-2.6713,-2.6801,-2.7001,-2.6832,-2.7131,-2.7216,-2.7357,-2.7539,-2.7652,-2.7833,-2.7833,-2.7876,-2.789,-2.7932,-2.7918,-2.7932,-2.7918,-2.8016,-2.8043,-2.8113,-2.8452,-2.8846,-2.931,-2.9437,-2.9518,-2.9532,-2.9588,-2.954,-2.954,-2.9509,-2.9415,-2.9289,-2.9035,-2.8908,-2.8972,-2.878,-2.8444,-2.7899,-2.7249,-2.7035,-2.7112,-2.6307,-2.5773,-2.5381,-2.506,-2.523,-2.5276,-2.4919,-2.4829,-2.5201,-2.5506,-2.5571,-2.5641,-2.5707,-1.4207,-1.4243,-1.4494,-1.5002,-1.5683,-1.6464,-1.7137,-1.7719,-1.7946,-1.8143,-1.8422,-1.8486,-1.8506,-1.8496,-1.8447,-1.8447,-1.8457,-1.8467,-1.8467,-1.8457,-1.8477,-1.8384,-1.835,-1.8392,-1.8685,-1.9276,-1.9665,-2.0034,-2.0599,-2.0633,-2.0665,-2.0706,-2.0598,-2.1019,-2.1476,-2.1584,-2.1584,-2.1572,-2.153,-2.1825,-2.2313,-2.3018,-2.3796,-2.4502,-2.5273,-2.5934,-2.6192,-2.6326,-2.6433,-2.6566,-2.6618,-2.6671,-2.6753,-2.6794,-2.6794,-2.6794,-2.6779,-2.6712,-2.6674,-2.6633,-2.6679,-2.6664,-2.6498,-2.6406,-2.6342,-2.6632,-2.6883,-2.7083,-2.7258,-2.7399,-2.7513,-2.7527,-2.7343,-2.7328,-2.7314,-2.7315,-2.73,-2.7286,-2.7428,-2.747,-2.7696,-2.802,-2.8385,-2.8862,-2.9259,-2.9352,-2.9462,-2.9532,-2.9588,-2.9602,-2.9602,-2.954,-2.9477,-2.9289,-2.9131,-2.9067,-2.8766,-2.8314,-2.7845,-2.7391,-2.7202,-2.7264,-2.6063,-2.5027,-2.503,-2.4947,-2.4669,-2.45,-2.4432,-2.4488,-2.4661,-2.4944,-2.5179,-2.5236,-2.521,-1.3462,-1.3571,-1.425,-1.4609,-1.5018,-1.5824,-1.696,-1.8286,-1.8443,-1.8744,-1.915,-1.9023,-1.8926,-1.9092,-1.9131,-1.9033,-1.8906,-1.8945,-1.8867,-1.8867,-1.8555,-1.8301,-1.7988,-1.7884,-1.8054,-1.8051,-1.8423,-1.9153,-1.9538,-1.9984,-2.0293,-2.0406,-2.0261,-2.0406,-2.0502,-2.0567,-2.0675,-2.0827,-2.1005,-2.1414,-2.2068,-2.2563,-2.351,-2.4379,-2.5245,-2.5803,-2.6128,-2.6412,-2.6604,-2.6712,-2.6779,-2.6779,-2.6794,-2.6794,-2.6794,-2.6794,-2.6794,-2.6779,-2.6753,-2.6753,-2.6753,-2.6712,-2.6606,-2.642,-2.6395,-2.6535,-2.678,-2.6818,-2.6899,-2.6927,-2.696,-2.6687,-2.6434,-2.6462,-2.6447,-2.646,-2.6487,-2.6573,-2.68,-2.6999,-2.7284,-2.7612,-2.7967,-2.8448,-2.8928,-2.9181,-2.9334,-2.9588,-2.9642,-2.9634,-2.9602,-2.9602,-2.954,-2.954,-2.9415,-2.9162,-2.894,-2.8541,-2.8507,-2.8165,-2.7906,-2.7214,-2.6204,-2.5398,-2.5127,-2.492,-2.4593,-2.4376,-2.4242,-2.4311,-2.4413,-2.4452,-2.467,-2.4557,-2.4478,-1.2629,-1.2666,-1.2879,-1.3455,-1.443,-1.5956,-1.691,-1.736,-1.7898,-1.8291,-1.8369,-1.8379,-1.8467,-1.8379,-1.8379,-1.8389,-1.8281,-1.8096,-1.7964,-1.7891,-1.7852,-1.7389,-1.7174,-1.7151,-1.7339,-1.7667,-1.8021,-1.8404,-1.9005,-1.9456,-1.9528,-1.9444,-1.964,-1.9576,-1.9579,-1.9588,-2.0017,-2.035,-2.0527,-2.1087,-2.1734,-2.2282,-2.3191,-2.4012,-2.5012,-2.5493,-2.5828,-2.6341,-2.6564,-2.6721,-2.6791,-2.6806,-2.6794,-2.6794,-2.6794,-2.6794,-2.6794,-2.6794,-2.6794,-2.6806,-2.6832,-2.6948,-2.6997,-2.6933,-2.6803,-2.6777,-2.6945,-2.706,-2.6941,-2.703,-2.7056,-2.6811,-2.6602,-2.6563,-2.6563,-2.651,-2.6525,-2.6517,-2.673,-2.675,-2.7022,-2.7224,-2.7598,-2.804,-2.851,-2.8849,-2.9174,-2.9442,-2.9667,-2.9642,-2.9665,-2.9634,-2.9571,-2.9571,-2.9383,-2.9131,-2.9004,-2.8835,-2.8722,-2.8346,-2.7437,-2.6732,-2.6167,-2.5711,-2.5311,-2.492,-2.4523,-2.4392,-2.439,-2.4171,-2.4217,-2.4164,-2.4125,-2.4125,-2.4125,-1.2305,-1.2305,-1.2305,-1.2952,-1.4186,-1.5913,-1.6724,-1.701,-1.7657,-1.8008,-1.8008,-1.8027,-1.8008,-1.8008,-1.7881,-1.7773,-1.7744,-1.7402,-1.7207,-1.7139,-1.6794,-1.6699,-1.6572,-1.6476,-1.6717,-1.7099,-1.7403,-1.7667,-1.8455,-1.8919,-1.9062,-1.9086,-1.9013,-1.9013,-1.91,-1.9262,-1.948,-1.983,-2.0159,-2.0667,-2.1274,-2.1902,-2.255,-2.3523,-2.4572,-2.4929,-2.5297,-2.5897,-2.6097,-2.6329,-2.6413,-2.6573,-2.6663,-2.6794,-2.6794,-2.6794,-2.6794,-2.6794,-2.6832,-2.7011,-2.7037,-2.7178,-2.7479,-2.7454,-2.7418,-2.7367,-2.7655,-2.7864,-2.754,-2.7312,-2.7246,-2.7195,-2.7093,-2.7016,-2.6927,-2.6837,-2.6774,-2.6698,-2.6676,-2.664,-2.6745,-2.6946,-2.7278,-2.7695,-2.8011,-2.824,-2.868,-2.9236,-2.9489,-2.9652,-2.9673,-2.9699,-2.962,-2.9571,-2.9352,-2.9188,-2.9032,-2.8844,-2.866,-2.8119,-2.709,-2.654,-2.6228,-2.5798,-2.5354,-2.4977,-2.4637,-2.4679,-2.4635,-2.439,-2.4171,-2.4216,-2.42,-2.4125,-2.4125,-1.2305,-1.2305,-1.2378,-1.3033,-1.4104,-1.5598,-1.646,-1.6883,-1.7509,-1.792,-1.792,-1.7939,-1.7871,-1.7676,-1.7461,-1.7334,-1.7197,-1.6885,-1.668,-1.6629,-1.6443,-1.6279,-1.6084,-1.6047,-1.6178,-1.6228,-1.6655,-1.7439,-1.8162,-1.8709,-1.9013,-1.9013,-1.9013,-1.9013,-1.9025,-1.9143,-1.9289,-1.9373,-1.9646,-2.0041,-2.0702,-2.125,-2.1877,-2.3204,-2.3817,-2.4127,-2.4581,-2.4897,-2.5071,-2.5517,-2.5792,-2.605,-2.6428,-2.6881,-2.6881,-2.6948,-2.7,-2.6963,-2.7,-2.7152,-2.7276,-2.7515,-2.7938,-2.7913,-2.7839,-2.7953,-2.8231,-2.8134,-2.7815,-2.7715,-2.769,-2.7261,-2.7045,-2.7004,-2.6927,-2.6967,-2.7023,-2.6907,-2.6727,-2.6717,-2.672,-2.6893,-2.6909,-2.733,-2.7619,-2.7738,-2.8082,-2.8755,-2.9154,-2.9392,-2.9572,-2.9638,-2.967,-2.9608,-2.9518,-2.9327,-2.9105,-2.8895,-2.8486,-2.7966,-2.6996,-2.6608,-2.6399,-2.5939,-2.5481,-2.5118,-2.485,-2.4878,-2.4765,-2.4434,-2.429,-2.4319,-2.429,-2.42,-2.4125,-1.2305,-1.2378,-1.3105,-1.3503,-1.3766,-1.5352,-1.6014,-1.6006,-1.6708,-1.7204,-1.748,-1.75,-1.7363,-1.7119,-1.6982,-1.6885,-1.6787,-1.6445,-1.629,-1.6113,-1.5977,-1.5879,-1.5625,-1.5674,-1.5664,-1.5943,-1.6528,-1.7479,-1.8402,-1.8854,-1.9013,-1.9013,-1.9013,-1.9013,-1.9013,-1.9143,-1.917,-1.9143,-1.9419,-1.9692,-2.018,-2.0617,-2.1214,-2.2289,-2.2957,-2.3572,-2.4096,-2.4588,-2.4805,-2.5067,-2.5096,-2.5429,-2.5992,-2.6817,-2.7071,-2.7,-2.7312,-2.7255,-2.7192,-2.7265,-2.7454,-2.7504,-2.778,-2.8061,-2.8264,-2.8496,-2.8535,-2.8319,-2.8198,-2.8198,-2.8052,-2.753,-2.7148,-2.7148,-2.7071,-2.7214,-2.7331,-2.7115,-2.691,-2.6832,-2.6832,-2.6767,-2.677,-2.6929,-2.7178,-2.7453,-2.7671,-2.8121,-2.8555,-2.8872,-2.9227,-2.938,-2.9669,-2.9648,-2.9431,-2.8975,-2.848,-2.8043,-2.7578,-2.7157,-2.675,-2.6231,-2.5741,-2.5826,-2.5605,-2.5135,-2.4886,-2.5034,-2.4865,-2.4551,-2.4507,-2.4622,-2.4463,-2.4361,-2.4229,-1.2031,-1.206,-1.3269,-1.3788,-1.41,-1.5506,-1.6141,-1.6166,-1.6538,-1.6748,-1.6868,-1.6973,-1.6943,-1.6629,-1.6543,-1.6436,-1.6357,-1.5967,-1.582,-1.5674,-1.5605,-1.5508,-1.542,-1.542,-1.5459,-1.5719,-1.6669,-1.7655,-1.8548,-1.8934,-1.9013,-1.9013,-1.9013,-1.9013,-1.9013,-1.9105,-1.9208,-1.9196,-1.942,-1.9617,-1.9914,-2.0434,-2.131,-2.2292,-2.2808,-2.3252,-2.3394,-2.3867,-2.4085,-2.4433,-2.4704,-2.4979,-2.5523,-2.6151,-2.6484,-2.6619,-2.6941,-2.7494,-2.7367,-2.7479,-2.779,-2.7953,-2.8415,-2.9005,-2.8779,-2.902,-2.9289,-2.9136,-2.9113,-2.909,-2.909,-2.8701,-2.8638,-2.8614,-2.8264,-2.8134,-2.7987,-2.7755,-2.7469,-2.7203,-2.7063,-2.6794,-2.6782,-2.6782,-2.7028,-2.7144,-2.7376,-2.7666,-2.8059,-2.8263,-2.8627,-2.8799,-2.8894,-2.8703,-2.8205,-2.7793,-2.744,-2.7003,-2.661,-2.6006,-2.5472,-2.5274,-2.505,-2.5124,-2.5087,-2.4911,-2.4777,-2.4888,-2.5023,-2.4809,-2.4836,-2.4935,-2.475,-2.4578,-2.4534,-1.1733,-1.1806,-1.3202,-1.4008,-1.4506,-1.5748,-1.6362,-1.6471,-1.6512,-1.6328,-1.6114,-1.6396,-1.6512,-1.6406,-1.6191,-1.6085,-1.5919,-1.5674,-1.5498,-1.5469,-1.5449,-1.542,-1.542,-1.542,-1.5497,-1.5835,-1.6585,-1.7396,-1.8201,-1.8548,-1.8827,-1.896,-1.9013,-1.9013,-1.904,-1.9105,-1.9182,-1.9223,-1.9342,-1.9486,-2.0003,-2.0608,-2.1513,-2.2249,-2.276,-2.282,-2.288,-2.3004,-2.3302,-2.3731,-2.4283,-2.4597,-2.5024,-2.5595,-2.6041,-2.6326,-2.7001,-2.7455,-2.767,-2.8119,-2.8496,-2.8912,-2.9538,-2.9643,-2.9319,-2.947,-2.9748,-2.9792,-2.9792,-2.9687,-2.9665,-2.9448,-2.9425,-2.9425,-2.9005,-2.8591,-2.8312,-2.8061,-2.774,-2.7403,-2.7152,-2.6832,-2.6794,-2.6794,-2.6837,-2.6939,-2.7113,-2.7362,-2.7608,-2.7681,-2.7901,-2.7735,-2.7554,-2.7285,-2.6975,-2.6623,-2.6314,-2.595,-2.5514,-2.4824,-2.4359,-2.45,-2.45,-2.4345,-2.4311,-2.4349,-2.4488,-2.4603,-2.4749,-2.4818,-2.4846,-2.4846,-2.509,-2.4962,-2.499,-1.1854,-1.2545,-1.3453,-1.4103,-1.4693,-1.5526,-1.5814,-1.5664,-1.5693,-1.5596,-1.5615,-1.5596,-1.5625,-1.5634,-1.5605,-1.5566,-1.5625,-1.5439,-1.543,-1.542,-1.542,-1.542,-1.542,-1.541,-1.5719,-1.6112,-1.6528,-1.709,-1.7984,-1.8294,-1.8563,-1.896,-1.9013,-1.9013,-1.9013,-1.9078,-1.917,-1.9237,-1.942,-1.9565,-2.0067,-2.056,-2.0845,-2.1479,-2.2039,-2.2449,-2.2775,-2.2888,-2.2983,-2.3267,-2.3757,-2.4049,-2.4496,-2.51,-2.5688,-2.6174,-2.687,-2.7639,-2.8061,-2.8397,-2.8723,-2.8958,-2.938,-2.9538,-2.947,-2.9671,-2.9858,-2.9836,-2.9732,-2.9454,-2.928,-2.8685,-2.8496,-2.8662,-2.8496,-2.8085,-2.773,-2.7545,-2.728,-2.7141,-2.7026,-2.6832,-2.6794,-2.6794,-2.6794,-2.6852,-2.6866,-2.7113,-2.7142,-2.7157,-2.7229,-2.6852,-2.6519,-2.6301,-2.6167,-2.5551,-2.5175,-2.4852,-2.4528,-2.4008,-2.3825,-2.4132,-2.4064,-2.3588,-2.3739,-2.3951,-2.4103,-2.3991,-2.4352,-2.442,-2.453,-2.4668,-2.4998,-2.5231,-2.5162]}]]